[[{"header":{"parameterUnit":"m.s-1","parameterCategory":1,"la1":30.6,"la2":28.766,"lo1":-90.7593,"lo2":-88.6598,"dx":0.0162,"dy":0.0183,"nx":116,"ny":114,"refTime":"2023-02-04T06:00:00:Z","depth":0,"parameterNumber":2,"parameterNumberName":"U-component_of_WINDS"},"data":[0.0,0.0,0.0,0.0,0.0,0.0,0.0,0.0,0.0,0.0,0.0,0.0,0.0,0.0,0.0,0.0,0.0,0.0,0.0,0.0,0.0,0.0,0.0,0.0,0.0,0.0,0.0,0.0,0.0,0.0,0.0,0.0,0.0,0.0,0.0,0.0,0.0,0.0,0.0,0.0,0.0,0.0,0.0,0.0,0.0,0.0,0.0,0.0,0.0,0.0,0.0,0.0,0.0,0.0,0.0,0.0,0.0,0.0,0.0,0.0,0.0,0.0,0.0,0.0,0.0,0.0,0.0,0.0,0.0,0.0,0.0,0.0,0.0,0.0,0.0,0.0,0.0,0.0,0.0,0.0,0.0,0.0,0.0,0.0,0.0,0.0,0.0,0.0,0.0,0.0,0.0,0.0,0.0,0.0,0.0,0.0,0.0,0.0,0.0,0.0,0.0,0.0,0.0,0.0,0.0,0.0,0.0,0.0,0.0,0.0,0.0,0.0,0.0,0.0,0.0,0.0,0.0,0.0,0.0,0.0,0.0,0.0,0.0,0.0,0.0,0.0,0.0,0.0,0.0,0.0,0.0,0.0,0.0,0.0,0.0,0.0,0.0,0.0,0.0,0.0,0.0,0.0,0.0,0.0,0.0,0.0,0.0,0.0,0.0,0.0,0.0,0.0,0.0,0.0,0.0,0.0,0.0,0.0,0.0,0.0,0.0,0.0,0.0,0.0,0.0,0.0,0.0,0.0,0.0,0.0,0.0,0.0,0.0,0.0,0.0,0.0,0.0,0.0,0.0,0.0,0.0,0.0,0.0,0.0,0.0,0.0,0.0,0.0,0.0,0.0,0.0,0.0,0.0,0.0,0.0,0.0,0.0,0.0,0.0,0.0,0.0,0.0,0.0,0.0,0.0,0.0,0.0,0.0,0.0,0.0,0.0,0.0,0.0,0.0,0.0,0.0,0.0,0.0,0.0,0.0,0.0,0.0,0.0,0.0,0.0,0.0,0.0,0.0,0.0,0.0,0.0,0.0,0.0,0.0,0.0,0.0,0.0,0.0,0.0,0.0,0.0,0.0,0.0,0.0,0.0,0.0,0.0,0.0,0.0,0.0,0.0,0.0,0.0,0.0,0.0,0.0,0.0,0.0,0.0,0.0,0.0,0.0,0.0,0.0,0.0,0.0,0.0,0.0,0.0,0.0,0.0,0.0,0.0,0.0,0.0,0.0,0.0,0.0,0.0,0.0,0.0,0.0,0.0,0.0,0.0,0.0,0.0,0.0,0.0,0.0,0.0,0.0,0.0,0.0,0.0,0.0,0.0,0.0,0.0,0.0,0.0,0.0,0.0,0.0,0.0,0.0,0.0,0.0,0.0,0.0,0.0,0.0,0.0,0.0,0.0,0.0,0.0,0.0,0.0,0.0,0.0,0.0,0.0,0.0,0.0,0.0,0.0,0.0,0.0,0.0,0.0,0.0,0.0,0.0,0.0,0.0,0.0,0.0,0.0,0.0,0.0,0.0,0.0,0.0,0.0,0.0,0.0,0.0,0.0,0.0,0.0,0.0,0.0,0.0,0.0,0.0,0.0,0.0,0.0,0.0,0.0,0.0,0.0,0.0,0.0,0.0,0.0,0.0,0.0,0.0,0.0,0.0,0.0,0.0,0.0,0.0,0.0,0.0,0.0,0.0,0.0,0.0,0.0,0.0,0.0,0.0,0.0,0.0,0.0,0.0,0.0,0.0,0.0,0.0,0.0,0.0,0.0,0.0,0.0,0.0,0.0,0.0,0.0,0.0,0.0,0.0,0.0,0.0,0.0,0.0,0.0,0.0,0.0,0.0,0.0,0.0,0.0,0.0,0.0,0.0,0.0,0.0,0.0,0.0,0.0,0.0,0.0,0.0,0.0,0.0,0.0,0.0,0.0,0.0,0.0,0.0,0.0,0.0,0.0,0.0,0.0,0.0,0.0,0.0,0.0,0.0,0.0,0.0,0.0,0.0,0.0,0.0,0.0,0.0,0.0,0.0,0.0,0.0,0.0,0.0,0.0,0.0,0.0,0.0,0.0,0.0,0.0,0.0,0.0,0.0,0.0,0.0,0.0,0.0,0.0,0.0,0.0,0.0,0.0,0.0,0.0,0.0,0.0,0.0,0.0,0.0,0.0,0.0,0.0,0.0,0.0,0.0,0.0,0.0,0.0,0.0,0.0,0.0,0.0,0.0,0.0,0.0,0.0,0.0,0.0,0.0,0.0,0.0,0.0,0.0,0.0,0.0,0.0,0.0,0.0,0.0,0.0,0.0,0.0,0.0,0.0,0.0,0.0,0.0,0.0,0.0,0.0,0.0,0.0,0.0,0.0,0.0,0.0,0.0,0.0,0.0,0.0,0.0,0.0,0.0,0.0,0.0,0.0,0.0,0.0,0.0,0.0,0.0,0.0,0.0,0.0,0.0,0.0,0.0,0.0,0.0,0.0,0.0,0.0,0.0,0.0,0.0,0.0,0.0,0.0,0.0,0.0,0.0,0.0,0.0,0.0,0.0,0.0,0.0,0.0,0.0,0.0,0.0,0.0,0.0,0.0,0.0,0.0,0.0,0.0,0.0,0.0,0.0,0.0,0.0,0.0,0.0,0.0,0.0,0.0,0.0,0.0,0.0,0.0,0.0,0.0,0.0,0.0,0.0,0.0,0.0,0.0,0.0,0.0,0.0,0.0,0.0,0.0,0.0,0.0,0.0,0.0,0.0,0.0,0.0,0.0,0.0,0.0,0.0,0.0,0.0,0.0,0.0,0.0,0.0,0.0,0.0,0.0,0.0,0.0,0.0,0.0,0.0,0.0,0.0,0.0,0.0,0.0,0.0,0.0,0.0,0.0,0.0,0.0,0.0,0.0,0.0,0.0,0.0,0.0,0.0,0.0,0.0,0.0,0.0,0.0,0.0,0.0,0.0,0.0,0.0,0.0,0.0,0.0,0.0,0.0,0.0,0.0,0.0,0.0,0.0,0.0,0.0,0.0,0.0,0.0,0.0,0.0,0.0,0.0,0.0,0.0,0.0,0.0,0.0,0.0,0.0,0.0,0.0,0.0,0.0,0.0,0.0,0.0,0.0,0.0,0.0,0.0,0.0,0.0,0.0,0.0,0.0,0.0,0.0,0.0,0.0,0.0,0.0,0.0,0.0,0.0,0.0,0.0,0.0,0.0,0.0,0.0,0.0,0.0,0.0,0.0,0.0,0.0,0.0,0.0,0.0,0.0,0.0,0.0,0.0,0.0,0.0,0.0,0.0,0.0,0.0,0.0,0.0,0.0,0.0,0.0,0.0,0.0,0.0,0.0,0.0,0.0,0.0,0.0,0.0,0.0,0.0,0.0,0.0,0.0,0.0,0.0,0.0,0.0,0.0,0.0,0.0,0.0,0.0,0.0,0.0,0.0,0.0,0.0,0.0,0.0,0.0,0.0,0.0,0.0,0.0,0.0,0.0,0.0,0.0,0.0,0.0,0.0,0.0,0.0,0.0,0.0,0.0,0.0,0.0,0.0,0.0,0.0,0.0,0.0,0.0,0.0,0.0,0.0,0.0,0.0,0.0,0.0,0.0,0.0,0.0,0.0,0.0,0.0,0.0,0.0,0.0,0.0,0.0,0.0,0.0,0.0,0.0,0.0,0.0,0.0,0.0,0.0,0.0,0.0,0.0,0.0,0.0,0.0,0.0,0.0,0.0,0.0,0.0,0.0,0.0,0.0,0.0,0.0,0.0,0.0,0.0,0.0,0.0,0.0,0.0,0.0,0.0,0.0,0.0,0.0,0.0,0.0,0.0,0.0,0.0,0.0,0.0,0.0,0.0,0.0,0.0,0.0,0.0,0.0,0.0,0.0,0.0,0.0,0.0,0.0,0.0,0.0,0.0,0.0,0.0,0.0,0.0,0.0,0.0,0.0,0.0,0.0,0.0,0.0,0.0,0.0,0.0,0.0,0.0,0.0,0.0,0.0,0.0,0.0,0.0,0.0,0.0,0.0,0.0,0.0,0.0,0.0,0.0,0.0,0.0,0.0,0.0,0.0,0.0,0.0,0.0,0.0,0.0,0.0,0.0,0.0,0.0,0.0,0.0,0.0,0.0,0.0,0.0,0.0,0.0,0.0,0.0,0.0,0.0,0.0,0.0,0.0,0.0,0.0,0.0,0.0,0.0,0.0,0.0,0.0,0.0,0.0,0.0,0.0,0.0,0.0,0.0,0.0,0.0,0.0,0.0,0.0,0.0,0.0,0.0,0.0,0.0,0.0,0.0,0.0,0.0,0.0,0.0,0.0,0.0,0.0,0.0,0.0,0.0,0.0,0.0,0.0,0.0,0.0,0.0,0.0,0.0,0.0,0.0,0.0,0.0,0.0,0.0,0.0,0.0,0.0,0.0,0.0,0.0,0.0,0.0,0.0,0.0,0.0,0.0,0.0,0.0,0.0,0.0,0.0,0.0,0.0,0.0,0.0,0.0,0.0,0.0,0.0,0.0,0.0,0.0,0.0,0.0,0.0,0.0,0.0,0.0,0.0,0.0,0.0,0.0,0.0,0.0,0.0,0.0,0.0,0.0,0.0,0.0,0.0,0.0,0.0,0.0,0.0,0.0,0.0,0.0,0.0,0.0,0.0,0.0,0.0,0.0,0.0,0.0,0.0,0.0,0.0,0.0,0.0,0.0,0.0,0.0,0.0,0.0,0.0,0.0,0.0,0.0,0.0,0.0,0.0,0.0,0.0,0.0,0.0,0.0,0.0,0.0,0.0,0.0,0.0,0.0,0.0,0.0,0.0,0.0,0.0,0.0,0.0,0.0,0.0,0.0,0.0,0.0,0.0,0.0,0.0,0.0,0.0,0.0,0.0,0.0,0.0,0.0,0.0,0.0,0.0,0.0,0.0,0.0,0.0,0.0,0.0,0.0,0.0,0.0,0.0,0.0,0.0,0.0,0.0,0.0,0.0,0.0,0.0,0.0,0.0,0.0,0.0,0.0,0.0,0.0,0.0,0.0,0.0,0.0,0.0,0.0,0.0,0.0,0.0,0.0,0.0,0.0,0.0,0.0,0.0,0.0,0.0,0.0,0.0,0.0,0.0,0.0,0.0,0.0,0.0,0.0,0.0,0.0,0.0,0.0,0.0,0.0,0.0,0.0,0.0,0.0,0.0,0.0,0.0,0.0,0.0,0.0,0.0,0.0,0.0,0.0,0.0,0.0,0.0,0.0,0.0,0.0,0.0,0.0,0.0,0.0,0.0,0.0,0.0,0.0,0.0,0.0,0.0,0.0,0.0,0.0,0.0,0.0,0.0,0.0,0.0,0.0,0.0,0.0,0.0,0.0,0.0,0.0,0.0,0.0,0.0,0.0,0.0,0.0,0.0,0.0,0.0,0.0,0.0,0.0,0.0,0.0,0.0,0.0,0.0,0.0,0.0,0.0,0.0,0.0,0.0,0.0,0.0,0.0,0.0,0.0,0.0,0.0,0.0,0.0,0.0,0.0,0.0,0.0,0.0,0.0,0.0,0.0,0.0,0.0,0.0,0.0,0.0,0.0,0.0,0.0,0.0,0.0,0.0,0.0,0.0,0.0,0.0,0.0,0.0,0.0,0.0,0.0,0.0,0.0,0.0,0.0,0.0,0.0,0.0,0.0,0.0,0.0,0.0,0.0,0.0,0.0,0.0,0.0,0.0,0.0,0.0,0.0,0.0,0.0,0.0,0.0,0.0,0.0,0.0,0.0,0.0,0.0,0.0,0.0,0.0,0.0,0.0,0.0,0.0,0.0,0.0,0.0,0.0,0.0,0.0,0.0,0.0,0.0,0.0,0.0,0.0,0.0,0.0,0.0,0.0,0.0,0.0,0.0,0.0,0.0,0.0,0.0,0.0,0.0,0.0,0.0,0.0,0.0,0.0,0.0,0.0,0.0,0.0,0.0,0.0,0.0,0.0,0.0,0.0,0.0,0.0,0.0,0.0,0.0,0.0,0.0,0.0,0.0,0.0,0.0,0.0,0.0,0.0,0.0,0.0,0.0,0.0,0.0,0.0,0.0,0.0,0.0,0.0,0.0,0.0,0.0,0.0,0.0,0.0,0.0,0.0,0.0,0.0,0.0,-2.6544,-2.6088,0.0,0.0,0.0,0.0,0.0,0.0,0.0,0.0,0.0,0.0,0.0,0.0,0.0,0.0,0.0,0.0,0.0,0.0,0.0,0.0,0.0,0.0,0.0,0.0,0.0,0.0,0.0,0.0,0.0,0.0,0.0,0.0,0.0,0.0,0.0,0.0,0.0,0.0,0.0,0.0,0.0,0.0,0.0,0.0,0.0,0.0,0.0,0.0,0.0,0.0,0.0,0.0,0.0,0.0,0.0,0.0,0.0,0.0,0.0,0.0,0.0,0.0,0.0,0.0,0.0,0.0,0.0,0.0,0.0,0.0,0.0,0.0,0.0,0.0,0.0,0.0,0.0,0.0,0.0,0.0,0.0,0.0,0.0,0.0,0.0,0.0,0.0,0.0,0.0,0.0,0.0,0.0,0.0,0.0,0.0,0.0,0.0,0.0,0.0,0.0,0.0,0.0,0.0,0.0,0.0,0.0,0.0,0.0,0.0,0.0,0.0,0.0,0.0,0.0,-2.7137,-2.6778,0.0,0.0,0.0,0.0,0.0,0.0,0.0,0.0,0.0,0.0,0.0,0.0,0.0,0.0,0.0,0.0,0.0,0.0,0.0,0.0,0.0,0.0,0.0,0.0,0.0,0.0,0.0,0.0,0.0,0.0,0.0,0.0,0.0,0.0,0.0,0.0,0.0,0.0,0.0,0.0,0.0,0.0,0.0,0.0,0.0,0.0,0.0,0.0,0.0,0.0,0.0,0.0,0.0,0.0,0.0,0.0,0.0,0.0,0.0,0.0,0.0,0.0,0.0,0.0,0.0,0.0,0.0,0.0,0.0,0.0,0.0,0.0,0.0,0.0,0.0,0.0,0.0,0.0,0.0,0.0,0.0,0.0,0.0,0.0,0.0,0.0,0.0,0.0,0.0,0.0,0.0,0.0,0.0,0.0,0.0,0.0,0.0,0.0,0.0,0.0,0.0,0.0,0.0,0.0,0.0,0.0,0.0,0.0,-2.7926,-2.8067,-2.7906,-2.8121,-2.8247,-2.8301,-2.7745,-2.7691,-2.7853,-2.7368,0.0,0.0,0.0,0.0,0.0,0.0,0.0,0.0,0.0,0.0,0.0,0.0,0.0,0.0,0.0,0.0,0.0,0.0,0.0,0.0,0.0,0.0,0.0,0.0,0.0,0.0,0.0,0.0,0.0,0.0,0.0,0.0,0.0,0.0,0.0,0.0,0.0,0.0,-2.6387,-2.6445,-2.666,-2.7031,-2.7519,0.0,0.0,0.0,0.0,0.0,0.0,0.0,0.0,0.0,0.0,0.0,0.0,0.0,0.0,0.0,0.0,0.0,0.0,0.0,0.0,0.0,0.0,0.0,0.0,0.0,0.0,0.0,0.0,0.0,0.0,0.0,0.0,0.0,0.0,0.0,0.0,0.0,0.0,0.0,0.0,0.0,0.0,0.0,-2.796,-2.8228,0.0,0.0,0.0,0.0,0.0,0.0,0.0,0.0,0.0,0.0,0.0,0.0,0.0,-2.7906,-2.7906,-2.7638,-2.7476,-2.7368,-2.7476,-2.7638,-2.7906,-2.796,-2.8067,-2.8301,-2.8247,0.0,-2.7906,-2.7799,0.0,0.0,0.0,0.0,0.0,0.0,0.0,0.0,0.0,0.0,0.0,0.0,0.0,0.0,0.0,0.0,0.0,0.0,0.0,0.0,0.0,0.0,0.0,0.0,0.0,0.0,0.0,0.0,0.0,0.0,0.0,0.0,0.0,0.0,0.0,0.0,-2.5977,-2.6074,-2.6016,-2.6016,-2.6387,-2.7031,-2.7207,-2.7676,-2.8301,-2.8301,0.0,0.0,0.0,0.0,0.0,0.0,0.0,0.0,0.0,0.0,0.0,0.0,0.0,0.0,0.0,0.0,0.0,0.0,0.0,0.0,0.0,0.0,0.0,0.0,0.0,0.0,0.0,0.0,0.0,0.0,0.0,0.0,0.0,0.0,0.0,0.0,0.0,0.0,0.0,-2.7368,-2.7422,-2.7584,-2.7225,-2.7062,0.0,0.0,0.0,0.0,0.0,0.0,0.0,0.0,0.0,-2.7584,-2.7638,-2.7691,-2.7906,-2.7745,-2.7584,-2.7368,-2.7368,-2.7584,-2.7906,-2.7906,-2.8067,-2.8301,-2.8301,-2.8228,-2.8121,-2.796,-2.7745,-2.7476,0.0,0.0,0.0,0.0,-2.7206,-2.726,0.0,0.0,0.0,0.0,0.0,0.0,0.0,0.0,0.0,0.0,0.0,0.0,0.0,0.0,0.0,-2.5693,0.0,0.0,0.0,0.0,0.0,0.0,0.0,0.0,0.0,0.0,0.0,-2.5693,-2.6055,-2.6055,-2.5693,-2.5693,-2.6142,-2.7012,-2.7012,-2.748,-2.8301,-2.8301,-2.8301,0.0,0.0,0.0,0.0,0.0,0.0,0.0,0.0,0.0,0.0,0.0,0.0,0.0,0.0,0.0,0.0,0.0,0.0,0.0,0.0,0.0,0.0,0.0,0.0,0.0,0.0,0.0,0.0,0.0,0.0,0.0,0.0,0.0,0.0,0.0,0.0,0.0,0.0,-2.7098,-2.7098,-2.7098,-2.6899,-2.6791,0.0,0.0,0.0,0.0,0.0,0.0,-2.6591,-2.67,-2.6899,-2.726,-2.7422,-2.7638,-2.7906,-2.8022,-2.7918,-2.7701,-2.7706,-2.7908,-2.8234,-2.8234,-2.8284,-2.8457,-2.8457,-2.8398,-2.8301,-2.8067,-2.796,-2.7906,-2.7638,-2.7476,-2.7422,-2.7476,-2.753,-2.7584,0.0,0.0,0.0,0.0,0.0,0.0,0.0,0.0,0.0,0.0,0.0,0.0,0.0,0.0,-2.5693,-2.5693,-2.5693,-2.5693,0.0,0.0,0.0,0.0,0.0,0.0,0.0,0.0,0.0,-2.5693,-2.5713,-2.5713,-2.5693,-2.5693,-2.6142,-2.7012,-2.7012,-2.748,-2.8301,-2.8301,-2.8301,-2.8301,0.0,0.0,0.0,0.0,0.0,0.0,0.0,0.0,0.0,0.0,0.0,0.0,0.0,0.0,0.0,0.0,0.0,0.0,0.0,0.0,0.0,0.0,0.0,0.0,0.0,0.0,0.0,0.0,0.0,0.0,0.0,0.0,0.0,0.0,0.0,0.0,0.0,0.0,0.0,-2.7368,-2.7152,0.0,0.0,0.0,0.0,-2.6646,-2.6591,-2.6591,-2.6591,-2.6845,-2.6989,-2.7043,-2.7584,-2.7906,-2.7906,-2.8276,-2.8468,-2.8432,-2.8593,-2.8784,-2.9064,-2.9064,-2.9,-2.8887,-2.8887,-2.8652,-2.8301,-2.8301,-2.8121,-2.7906,-2.7906,-2.7691,-2.7422,-2.7745,-2.7853,-2.7906,0.0,0.0,0.0,0.0,0.0,0.0,0.0,0.0,0.0,0.0,0.0,0.0,0.0,-2.5693,-2.5693,-2.5693,-2.5693,-2.5693,-2.5693,0.0,0.0,0.0,0.0,0.0,0.0,0.0,-2.583,-2.6152,-2.6152,-2.6289,-2.6562,-2.6562,-2.6875,-2.7441,-2.7441,-2.7754,-2.8301,-2.8301,-2.8301,-2.8301,-2.8014,-2.7906,0.0,0.0,0.0,0.0,0.0,0.0,0.0,0.0,0.0,0.0,0.0,0.0,0.0,0.0,0.0,0.0,0.0,0.0,0.0,0.0,0.0,0.0,0.0,0.0,0.0,0.0,0.0,0.0,0.0,0.0,0.0,0.0,0.0,0.0,0.0,0.0,0.0,-2.6899,-2.6791,0.0,-2.6736,-2.6646,-2.6591,-2.6591,-2.6591,-2.6701,-2.6958,-2.7068,-2.7345,-2.7772,-2.8162,-2.8384,-2.8384,-2.8722,-2.8799,-2.8631,-2.8652,-2.8841,-2.9066,-2.9066,-2.9213,-2.9336,-2.9336,-2.9258,-2.9121,-2.9121,-2.8735,-2.8174,-2.8174,-2.8067,-2.796,-2.8121,-2.8174,-2.8174,0.0,0.0,0.0,0.0,0.0,0.0,0.0,0.0,0.0,0.0,0.0,-2.5693,-2.5693,-2.5693,-2.5693,-2.5693,-2.5693,-2.5693,-2.5693,0.0,0.0,0.0,0.0,0.0,0.0,-2.5879,-2.6094,-2.6387,-2.6523,-2.6738,-2.7012,-2.7012,-2.7246,-2.7728,-2.7728,-2.7891,-2.8301,-2.8301,-2.8301,-2.8301,-2.8121,-2.8014,-2.7906,0.0,0.0,0.0,0.0,0.0,0.0,0.0,0.0,0.0,0.0,0.0,0.0,0.0,0.0,0.0,0.0,0.0,0.0,0.0,0.0,0.0,0.0,0.0,0.0,0.0,0.0,0.0,0.0,0.0,0.0,0.0,0.0,0.0,0.0,-2.6682,-2.6591,-2.6591,-2.6591,-2.6646,-2.6774,-2.6793,-2.6848,-2.6976,-2.6976,-2.7105,-2.7361,-2.7492,-2.7715,-2.8049,-2.8502,-2.8728,-2.8728,-2.9087,-2.9277,-2.9221,-2.9374,-2.9565,-2.9735,-2.9735,-2.9752,-2.9785,-2.9785,-2.9707,-2.9626,-2.9626,-2.9238,-2.873,-2.873,-2.873,-2.873,-2.873,-2.873,-2.873,0.0,0.0,0.0,0.0,0.0,0.0,0.0,0.0,0.0,0.0,-2.5693,-2.5693,-2.5693,-2.5693,-2.5693,-2.5693,-2.5693,-2.5693,-2.5693,-2.5693,0.0,0.0,0.0,0.0,-2.5713,-2.6191,-2.6426,-2.6426,-2.6836,-2.7051,-2.7051,-2.7051,-2.7285,-2.7728,-2.7728,-2.7963,-2.8301,-2.8301,-2.8301,-2.8301,-2.8301,-2.7906,-2.7441,0.0,0.0,0.0,0.0,0.0,0.0,0.0,0.0,0.0,0.0,0.0,0.0,0.0,0.0,0.0,0.0,0.0,0.0,0.0,0.0,0.0,0.0,0.0,0.0,0.0,0.0,0.0,0.0,0.0,0.0,0.0,0.0,0.0,-2.6591,-2.6591,-2.6591,-2.6609,-2.6609,-2.6756,-2.7215,-2.7196,-2.7361,-2.7785,-2.7822,-2.7822,-2.784,-2.8068,-2.8086,-2.7858,-2.8427,-2.8766,-2.8766,-2.947,-2.9948,-3.0215,-3.0684,-3.0898,-3.0898,-3.0898,-3.0644,-3.0215,-3.0215,-2.998,-2.9665,-2.9665,-2.9665,-2.9665,-2.9646,-2.9626,-2.9626,-2.9626,-2.9626,-2.9626,0.0,0.0,0.0,0.0,0.0,0.0,0.0,0.0,0.0,0.0,-2.5693,-2.5693,-2.5693,-2.5693,-2.5693,-2.5693,-2.5693,-2.5693,-2.5693,0.0,0.0,0.0,0.0,0.0,-2.6211,-2.6621,-2.6992,-2.7324,-2.7422,-2.7637,-2.7949,-2.7949,-2.8008,-2.8125,-2.8125,-2.8184,-2.8301,-2.8301,-2.8194,-2.8014,-2.8014,-2.8014,-2.8014,0.0,0.0,0.0,0.0,0.0,0.0,0.0,0.0,0.0,0.0,0.0,0.0,0.0,0.0,0.0,0.0,0.0,0.0,0.0,0.0,0.0,0.0,0.0,0.0,0.0,0.0,0.0,0.0,0.0,0.0,0.0,-2.8024,-2.7638,-2.6956,-2.6736,-2.6701,-2.6976,-2.7013,-2.7289,-2.7845,-2.7769,-2.7768,-2.8049,-2.7879,-2.795,-2.8205,-2.8281,-2.8584,-2.9037,-2.9406,-2.9581,-2.9581,-3.0238,-3.0529,-3.0335,-3.0704,-3.0898,-3.0898,-3.0898,-3.082,-3.0703,-3.0703,-3.0644,-3.0527,-3.0527,-3.0527,-3.0469,-2.9824,-2.9626,-2.9626,-2.9626,-2.9626,-2.9626,0.0,0.0,0.0,0.0,0.0,0.0,0.0,0.0,0.0,0.0,-2.5693,-2.5693,-2.5693,-2.5693,-2.5693,-2.5693,-2.5693,-2.5693,-2.5693,0.0,0.0,0.0,0.0,-2.6465,-2.6641,-2.707,-2.7422,-2.7728,-2.8027,-2.832,-2.8555,-2.875,-2.8828,-2.8828,-2.8828,-2.873,-2.8555,-2.8555,-2.8349,-2.8067,-2.796,-2.7906,-2.7853,-2.753,-2.7368,-2.7368,-2.7098,-2.6899,-2.6736,-2.6646,0.0,0.0,0.0,0.0,0.0,0.0,0.0,0.0,0.0,0.0,0.0,0.0,0.0,0.0,0.0,0.0,0.0,0.0,0.0,0.0,0.0,0.0,0.0,0.0,-2.8242,-2.7932,-2.7382,-2.7179,-2.7215,-2.7566,-2.7603,-2.7864,-2.8386,-2.8423,-2.8479,-2.8549,-2.851,-2.8602,-2.8861,-2.8997,-2.9149,-2.949,-2.9745,-2.9922,-2.9922,-3.0294,-3.0528,-3.0645,-3.082,-3.0898,-3.0898,-3.0898,-3.0898,-3.0898,-3.0898,-3.0898,-3.0898,-3.0898,-3.0898,-3.084,0.0,0.0,0.0,0.0,-3.0117,-3.0117,0.0,0.0,0.0,0.0,0.0,0.0,0.0,0.0,0.0,0.0,0.0,-2.5693,-2.5693,-2.5693,-2.5693,-2.5693,-2.5693,-2.5693,0.0,0.0,0.0,-2.6367,-2.6426,-2.666,-2.709,-2.7559,-2.7865,-2.7865,-2.8594,-2.8984,-2.9004,-2.9394,-2.9626,-2.9626,-2.9626,-2.9355,-2.8984,-2.8984,-2.8696,-2.8306,-2.8037,-2.773,-2.7422,-2.7422,-2.7368,-2.7368,-2.7152,-2.7043,-2.6935,-2.6736,0.0,0.0,0.0,0.0,0.0,0.0,0.0,0.0,0.0,0.0,0.0,0.0,0.0,0.0,0.0,0.0,0.0,0.0,0.0,0.0,0.0,0.0,0.0,0.0,-2.815,-2.795,-2.8008,-2.7969,-2.8008,-2.818,-2.8294,-2.85,-2.8853,-2.918,-2.9273,-2.9135,-2.9331,-2.9509,-2.945,-2.9686,0.0,0.0,0.0,-2.9998,-2.9998,-3.0094,-3.0428,-3.0976,-3.1035,-3.1016,-3.0957,-3.0957,-3.0937,-3.0898,-3.0898,-3.0898,-3.0898,-3.0898,-3.0898,-3.0898,-3.0898,-3.0898,-3.0898,-3.0898,-3.0898,-3.0898,0.0,0.0,0.0,0.0,0.0,0.0,0.0,0.0,0.0,-2.5693,-2.5693,-2.5693,-2.5693,-2.5693,-2.5693,-2.5693,-2.5693,-2.5693,0.0,0.0,-2.5937,-2.6367,-2.6719,-2.709,-2.7519,-2.8281,-2.8672,-2.8672,-2.9199,-2.9453,-2.9453,-2.9587,-2.9626,-2.9626,-2.9626,-2.9531,-2.9453,-2.9453,-2.9089,-2.8446,-2.8391,-2.816,-2.7745,-2.7476,-2.7368,-2.7368,-2.7314,-2.7152,-2.6989,-2.6935,-2.6791,-2.6591,-2.6591,0.0,0.0,0.0,0.0,0.0,0.0,0.0,0.0,0.0,0.0,0.0,0.0,0.0,0.0,0.0,0.0,0.0,0.0,0.0,0.0,-2.8865,-2.881,-2.8855,-2.9149,-2.8913,-2.8685,-2.8373,-2.8762,-2.9277,-2.9634,-2.9554,-2.9533,-2.9686,-2.9568,-2.939,-2.9094,-2.939,-2.9627,-2.9804,-3.0263,-3.0553,-3.0773,-3.1438,-3.1672,-3.1571,-3.1793,0.0,-3.1406,-3.1406,-3.1211,-3.0898,-3.0898,-3.0898,-3.0898,-3.0898,-3.0898,-3.0898,-3.0898,-3.0898,-3.0898,-3.0898,-3.0898,-3.0898,0.0,0.0,0.0,0.0,0.0,0.0,0.0,0.0,0.0,0.0,-2.5693,-2.5693,-2.5693,-2.5693,-2.5693,-2.5693,-2.5693,0.0,0.0,-2.5937,-2.625,-2.668,-2.7109,-2.7539,-2.7969,-2.8594,-2.8926,-2.8926,-2.957,-2.9883,-2.9883,-3.0117,-3.0234,-3.0234,-3.0234,-3.0098,-2.9883,-2.9883,-2.9592,-2.9017,-2.8658,-2.8372,-2.816,-2.7625,-2.7368,-2.7368,-2.726,-2.7206,-2.7152,-2.7043,-2.6989,-2.6954,-2.6845,-2.6791,-2.6791,0.0,0.0,0.0,0.0,0.0,0.0,0.0,0.0,0.0,0.0,0.0,0.0,0.0,0.0,-2.8755,-2.8938,0.0,-2.9035,-2.9213,-2.9094,-2.9094,-2.945,-2.945,-2.9434,-2.9404,-2.9367,-2.95,-2.9844,-2.9922,-2.9938,-2.9987,-2.9987,-3.0081,-3.0366,-3.0366,-3.0487,-3.0806,-3.1016,-3.1232,-3.1353,-3.1747,-3.1924,-3.1924,-3.2107,-3.2051,-3.1836,-3.1836,-3.1738,-3.1523,-3.1523,-3.1523,-3.1504,-3.1289,-3.1211,-3.1191,-3.0976,-3.0898,-3.0898,-3.0898,-3.0898,-3.0898,0.0,0.0,0.0,0.0,0.0,0.0,0.0,0.0,0.0,0.0,-2.5693,-2.5693,-2.5693,-2.5693,-2.5693,0.0,0.0,0.0,0.0,-2.6074,-2.6484,-2.6992,-2.7344,-2.7773,-2.8281,-2.8789,-2.9043,-2.9043,-2.9902,-3.0332,-3.0332,-3.0723,-3.0898,-3.0898,-3.0898,-3.0684,-3.0332,-3.0332,-3.0078,-2.9648,-2.8962,-2.8639,-2.8413,-2.7755,-2.7476,-2.7476,-2.7152,-2.7206,-2.7368,-2.7098,-2.7098,-2.7225,-2.6989,-2.6935,-2.6935,-2.6935,-2.6791,0.0,0.0,0.0,0.0,0.0,0.0,0.0,0.0,-2.7252,-2.7805,-2.7914,-2.8465,-2.9002,-2.9094,-2.9094,-2.9213,-2.945,-2.9331,-2.9272,-2.9568,-2.9761,-3.0113,-3.0566,-3.0154,-2.9917,-3.0094,-3.0407,-3.0479,-3.0358,-3.0479,-3.0872,-3.1478,-3.1356,-3.1417,-3.1619,-3.1757,-3.1815,-3.1815,-3.1954,-3.2176,-3.2422,-3.2422,-3.2363,-3.2285,-3.2285,-3.2246,-3.2229,-3.2229,-3.2229,-3.2148,-3.1797,-3.1641,-3.1601,-3.1269,-3.1133,-3.1113,-3.0957,-3.0898,-3.0898,0.0,0.0,0.0,0.0,0.0,0.0,0.0,0.0,0.0,0.0,0.0,0.0,0.0,0.0,0.0,0.0,0.0,0.0,-2.5693,-2.5732,-2.6122,-2.6973,-2.707,-2.7461,-2.8281,-2.9082,-2.9492,-2.9492,-3.0371,-3.082,-3.082,-3.0859,-3.0898,-3.0898,-3.0898,-3.0859,-3.082,-3.082,-3.0547,-3.0078,-2.9668,-2.9056,-2.8468,-2.8026,-2.7853,-2.7799,-2.7476,-2.7368,-2.7368,-2.7098,-2.6845,-2.67,-2.6646,-2.6646,-2.6646,-2.6646,0.0,-2.6591,-2.6646,-2.6646,-2.6591,-2.6591,-2.6591,-2.6683,0.0,-2.7382,-2.7753,-2.8226,-2.8602,-2.8944,-2.9375,-2.945,-2.945,-2.9509,-2.9686,-2.9804,-2.9863,-2.9964,-3.037,-3.1267,-3.1326,-3.1188,-3.0871,-3.1035,-3.11,-3.1096,-3.1096,-3.1054,-3.0803,-3.1313,-3.1497,-3.1294,-3.1903,-3.2238,-3.2238,-3.2918,-3.3218,-3.3281,-3.3281,-3.3086,-3.2734,-3.2734,-3.2519,-3.2229,-3.2229,-3.2229,-3.2229,-3.2109,-3.209,-3.209,-3.2051,-3.2031,-3.1934,-3.1172,-3.0898,-3.0898,0.0,0.0,0.0,0.0,0.0,0.0,0.0,0.0,0.0,0.0,0.0,0.0,0.0,0.0,0.0,0.0,0.0,0.0,-2.5693,-2.5977,-2.6269,-2.6641,-2.7129,-2.7559,-2.793,-2.8769,-2.9199,-2.9199,-2.9824,-3.0117,-3.0137,-3.0371,-3.0488,-3.0488,-3.0762,-3.0898,-3.0879,-3.0605,-3.0371,-3.0137,-2.9453,-2.9027,-2.8668,-2.8114,-2.7906,-2.7853,-2.7314,-2.726,0.0,0.0,-2.7043,-2.7062,-2.6899,-2.6845,-2.6845,-2.6845,-2.6736,0.0,-2.6591,-2.6591,-2.6591,-2.6591,-2.6736,-2.6902,-2.7142,-2.7567,-2.8013,-2.8336,-2.8864,-2.9303,-2.9471,-2.9627,-2.9804,-2.9981,-2.9981,-3.0016,-3.0244,-3.0493,-3.0822,-3.1252,-3.1866,-3.2046,-3.1491,-3.1443,-3.1593,-3.1822,-3.1841,-3.1894,-3.1998,-3.2036,-3.2161,-3.2205,-3.2502,-3.2724,-3.2913,-3.3277,-3.3418,-3.3418,-3.3418,-3.332,-3.3164,-3.3164,-3.3066,-3.2891,-3.2704,-3.2723,-3.2891,-3.2451,-3.2293,-3.2273,-3.2205,-3.1924,-3.1581,-3.1638,-3.1641,-3.1641,0.0,0.0,0.0,0.0,0.0,0.0,0.0,0.0,0.0,0.0,0.0,0.0,0.0,0.0,0.0,0.0,0.0,0.0,0.0,-2.6035,-2.6269,-2.6387,-2.6973,-2.7474,-2.7708,-2.8379,-2.8809,-2.8926,-2.9355,-2.9626,-2.9626,-2.9883,-3.0019,-3.0039,-3.0371,-3.0527,-3.0508,-3.0156,-3.0019,-2.9961,-2.9219,-2.8871,-2.8723,-2.8114,-2.7853,-2.7691,-2.7206,-2.7098,0.0,0.0,-2.7008,-2.7171,-2.6935,-2.6881,-2.6881,-2.6881,-2.6791,-2.6682,-2.6646,-2.6646,-2.6682,-2.6682,-2.6865,-2.7104,-2.7419,-2.7995,-2.8575,-2.8695,-2.9245,-2.9745,-2.9745,-2.9922,-3.0098,-3.0392,-3.037,-3.0443,-3.061,-3.1038,-3.1427,-3.1612,-3.2324,-3.2665,-3.2231,-3.2088,-3.2161,-3.245,-3.2469,-3.2604,-3.2912,-3.274,-3.2721,-3.2912,-3.2994,-3.3102,-3.3228,-3.3355,-3.3355,-3.3228,-3.3355,-3.3355,-3.3292,-3.3355,-3.3355,-3.3228,-3.2994,-3.2994,-3.3082,-3.2541,-3.2406,-3.245,-3.2328,-3.1965,-3.1698,-3.2623,-3.277,-3.2573,0.0,0.0,0.0,0.0,0.0,0.0,0.0,0.0,0.0,0.0,0.0,0.0,0.0,0.0,0.0,0.0,0.0,0.0,0.0,-2.5693,-2.5937,-2.6367,-2.6406,-2.6816,-2.7708,-2.8086,-2.8516,-2.8926,-2.9355,-2.9626,-2.9626,-2.9646,-2.9646,-2.9646,-2.9609,-2.9665,-2.9665,-2.959,-2.9646,-2.9551,-2.9101,-2.8762,-2.8468,-2.808,-2.7691,-2.7368,-2.7098,0.0,0.0,0.0,-2.6646,-2.6646,-2.6591,-2.6591,0.0,-2.6591,-2.6791,0.0,-2.67,-2.6791,-2.6989,-2.6989,-2.7086,-2.7381,-2.7995,-2.8747,-2.9315,-2.9456,-2.9962,-3.0392,-3.0392,-3.0392,-3.0392,-3.0392,-3.0975,-3.1325,-3.1007,-3.1738,-3.2401,-3.2711,-3.2831,-3.3019,-3.3316,-3.3063,-3.2892,-3.2892,-3.2912,-3.2912,-3.2912,-3.3165,-3.3228,-3.2912,-3.3228,-3.3228,-3.2931,-3.3228,-3.3228,-3.2931,-3.3228,-3.3228,-3.2912,-3.3228,-3.3228,-3.2912,-3.2912,-3.274,-3.2422,-3.2403,-3.2594,-3.2829,-3.2511,-3.2575,-3.3,-3.4342,-3.4289,-3.3593,0.0,0.0,0.0,0.0,0.0,0.0,0.0,0.0,0.0,0.0,0.0,0.0,0.0,0.0,0.0,0.0,0.0,0.0,0.0,-2.5693,-2.5752,-2.5957,-2.6504,-2.6934,-2.7226,-2.793,-2.8359,-2.8496,-2.8652,-2.873,-2.873,-2.9004,-2.9141,-2.9141,-2.9434,-2.9626,-2.9551,-2.9258,-2.9141,-2.9101,-2.8672,-2.8462,-2.8334,-2.8018,-2.7853,-2.7691,0.0,0.0,0.0,0.0,0.0,0.0,-2.6591,0.0,0.0,-2.6591,0.0,0.0,-2.6881,-2.7303,-2.7729,-2.7729,-2.7939,-2.8352,-2.8804,-2.9126,-2.9353,-2.971,-3.0098,-3.0392,-3.0392,-3.0567,-3.0704,-3.0704,-3.1171,-3.1501,-3.1411,-3.2115,-3.2723,-3.287,-3.3087,-3.3292,-3.3355,-3.3102,-3.2975,-3.3228,-3.3038,-3.2912,-3.2912,-3.2994,-3.3038,-3.2912,-3.2975,-3.3102,-3.3228,-3.3355,-3.3355,-3.3228,-3.3355,-3.3228,-3.2912,-3.3228,-3.3102,-3.2549,-3.2549,-3.2613,-3.2804,-3.3461,-3.3882,-3.432,-3.5294,-3.5479,-3.5273,-3.6133,-3.6729,-3.6925,0.0,0.0,0.0,0.0,0.0,0.0,0.0,0.0,0.0,0.0,0.0,0.0,0.0,0.0,0.0,0.0,0.0,0.0,0.0,0.0,-2.6142,-2.6142,-2.6719,-2.709,-2.7246,-2.7793,-2.8144,-2.8301,-2.8301,-2.8301,-2.8301,-2.8574,-2.8691,-2.8711,-2.8984,-2.9121,-2.9101,-2.8809,-2.8691,-2.8672,-2.8398,-2.8228,-2.8121,-2.796,-2.7799,0.0,0.0,0.0,0.0,0.0,0.0,0.0,0.0,0.0,0.0,0.0,0.0,-2.7189,-2.7339,-2.7729,-2.814,-2.8403,-2.8596,-2.8842,-2.9336,-2.9584,-2.9774,-3.0041,-3.0333,-3.0567,-3.0567,-3.0762,-3.0898,-3.0898,-3.1367,-3.1776,-3.1825,-3.2533,-3.3062,-3.3082,-3.3292,-3.3418,-3.3418,-3.3102,-3.3038,-3.3355,-3.3165,-3.3102,-3.3102,-3.3102,-3.3038,-3.2912,-3.3038,-3.3102,-3.3228,-3.3355,-3.3418,-3.3418,-3.3292,-3.3165,-3.3102,-3.3292,-3.3102,-3.2613,-3.3102,-3.3355,-3.3461,-3.4133,-3.4632,-3.5005,-3.5909,-3.6072,-3.5949,-3.7287,-3.8186,-3.8602,0.0,0.0,0.0,0.0,0.0,0.0,0.0,0.0,0.0,0.0,0.0,0.0,0.0,0.0,0.0,0.0,0.0,0.0,0.0,0.0,0.0,-2.7012,-2.7031,-2.7246,-2.7708,-2.7748,-2.7891,-2.8301,-2.8301,-2.8301,-2.8301,-2.8301,-2.8301,-2.8301,-2.8301,-2.8301,-2.8301,-2.8301,-2.8301,-2.8301,-2.8301,-2.8121,-2.7906,-2.7926,0.0,0.0,0.0,0.0,0.0,0.0,0.0,0.0,0.0,0.0,0.0,-2.7314,-2.7441,-2.7555,-2.8007,-2.814,-2.8309,-2.9008,-2.9013,-2.9027,-2.968,-3.0161,-3.0392,-3.045,-3.0704,-3.0898,-3.0898,-3.0898,-3.0898,-3.0898,-3.1601,-3.2229,-3.2229,-3.2891,-3.3418,-3.3418,-3.3418,-3.3418,-3.3418,-3.3102,-3.3058,-3.3355,-3.3355,-3.3355,-3.3418,-3.3374,-3.3267,-3.295,-3.3223,-3.3306,-3.2988,-3.3306,-3.3476,-3.3457,-3.314,-3.314,-3.3355,-3.3418,-3.3228,-3.2912,-3.4258,-3.4632,-3.432,-3.4507,-3.4757,-3.5005,-3.4798,-3.4922,-3.554,-3.797,-3.8885,-3.8885,0.0,0.0,0.0,0.0,0.0,0.0,0.0,0.0,0.0,0.0,0.0,0.0,0.0,0.0,0.0,0.0,0.0,0.0,0.0,0.0,0.0,0.0,0.0,0.0,0.0,0.0,0.0,-2.8301,-2.8301,-2.8301,-2.8301,-2.8301,-2.8301,-2.8301,-2.8301,-2.8301,-2.8301,-2.8301,-2.8301,-2.8301,0.0,-2.8247,-2.8213,0.0,0.0,0.0,0.0,0.0,0.0,0.0,0.0,0.0,0.0,-2.7314,-2.7314,-2.7368,-2.7758,-2.8263,-2.8377,-2.9005,-2.9676,-2.9906,-2.9968,-3.0102,-3.0548,-3.049,-3.045,-3.0704,-3.082,-3.0898,-3.0898,-3.0898,-3.0898,-3.0898,-3.1601,-3.2229,-3.2229,-3.2891,-3.3418,-3.3418,-3.3418,-3.3418,-3.3418,-3.3292,-3.3292,-3.3418,-3.3165,-3.3102,-3.3355,-3.3456,-3.3437,-3.3373,-3.3505,-3.3677,-3.3854,-3.418,-3.4219,-3.3906,-3.3842,-3.3539,-3.3038,-3.3292,-3.3102,-3.2549,-3.3165,-3.3355,-3.3398,-3.5396,-3.6377,-3.6864,-3.8744,-3.9533,-3.972,-4.0764,-4.0964,-4.0858,0.0,0.0,0.0,0.0,0.0,0.0,0.0,0.0,0.0,0.0,0.0,0.0,0.0,0.0,0.0,0.0,0.0,0.0,0.0,0.0,0.0,0.0,0.0,0.0,0.0,0.0,0.0,0.0,0.0,0.0,-2.8301,-2.8301,-2.8301,-2.8301,-2.8301,-2.8301,-2.8301,-2.8301,0.0,0.0,0.0,0.0,0.0,0.0,0.0,0.0,0.0,0.0,0.0,0.0,0.0,-2.7744,-2.766,-2.7638,-2.7638,-2.7745,-2.8106,-2.8545,-2.8904,-2.9482,-3.0082,-3.0449,-3.0451,-3.0509,-3.082,-3.0762,-3.0704,-3.084,-3.0898,-3.0898,-3.0898,-3.0898,-3.0898,-3.0898,-3.1601,-3.2229,-3.2229,-3.2891,-3.3418,-3.3418,-3.3418,-3.3418,-3.3418,-3.3594,-3.3711,-3.3711,-3.352,-3.352,-3.3711,-3.3798,-3.377,-3.3554,-3.3605,-3.3804,-3.42,-3.4398,-3.4459,-3.4336,-3.4225,-3.3914,-3.3489,-3.3682,-3.3553,-3.3211,-3.4157,-3.4839,-3.5346,-3.6809,-3.7819,-3.8553,-3.9988,-4.0608,-4.0691,-4.1615,-4.1793,-4.1661,0.0,0.0,0.0,0.0,0.0,0.0,0.0,0.0,0.0,0.0,0.0,0.0,0.0,0.0,0.0,0.0,0.0,0.0,0.0,0.0,0.0,0.0,0.0,0.0,0.0,0.0,0.0,0.0,0.0,0.0,0.0,0.0,0.0,0.0,0.0,0.0,0.0,0.0,0.0,0.0,0.0,0.0,0.0,0.0,0.0,0.0,0.0,0.0,0.0,0.0,-2.9082,-2.8157,-2.8153,-2.8134,-2.8188,-2.8403,-2.8606,-2.8868,-2.9495,-2.981,-3.0065,-3.0742,-3.0645,-3.0509,-3.082,-3.0898,-3.0898,-3.082,-3.0879,-3.0879,-3.0762,-3.084,-3.0898,-3.082,-3.1601,-3.2229,-3.2229,-3.2891,-3.3418,-3.3418,-3.3418,-3.3437,-3.3496,-3.3848,-3.4101,-3.4096,-3.4154,-3.4154,-3.4096,-3.4131,-3.3984,-3.369,-3.3775,-3.3908,-3.426,-3.4326,-3.4487,-3.4654,-3.4363,-3.4211,-3.4087,-3.4087,-3.42,-3.451,-3.597,-3.7169,-3.8184,-3.8373,-3.8938,-3.9854,-3.9978,-4.0101,-4.0225,-4.1443,-4.1855,-4.1855,0.0,0.0,0.0,0.0,0.0,0.0,0.0,0.0,0.0,0.0,0.0,0.0,0.0,0.0,0.0,0.0,0.0,0.0,0.0,0.0,0.0,0.0,0.0,0.0,0.0,0.0,0.0,0.0,0.0,0.0,0.0,0.0,0.0,0.0,0.0,0.0,0.0,0.0,0.0,0.0,0.0,0.0,0.0,0.0,0.0,0.0,0.0,0.0,0.0,0.0,-2.9622,-2.9429,-2.9342,-2.93,-2.93,-2.9355,-2.9648,-2.9943,-3.0059,-3.018,-3.0354,-3.0801,-3.0645,-3.0509,-3.082,-3.0898,-3.082,-3.0509,-3.0704,-3.0704,-3.0176,-3.0528,-3.082,-3.0509,-3.1482,-3.2229,-3.2229,-3.2891,-3.3418,-3.3418,-3.3418,-3.3555,-3.3926,-3.4023,-3.4154,-3.4178,-3.4478,-3.4517,-3.4216,-3.3956,-3.3811,-3.3803,-3.4352,-3.4557,-3.4371,-3.4986,-3.495,-3.4403,-3.4336,-3.4079,-3.3671,-3.3671,-3.4379,-3.5536,-3.584,-3.6742,-3.8016,-3.9085,-3.9645,-3.9916,-4.0984,-4.1434,-4.1541,-4.2146,-4.2186,-4.2009,0.0,0.0,0.0,0.0,0.0,0.0,0.0,0.0,0.0,0.0,0.0,0.0,0.0,0.0,0.0,0.0,0.0,0.0,0.0,0.0,0.0,0.0,0.0,0.0,0.0,0.0,0.0,0.0,0.0,0.0,0.0,0.0,0.0,0.0,0.0,0.0,0.0,0.0,0.0,0.0,0.0,0.0,0.0,0.0,0.0,0.0,0.0,0.0,0.0,0.0,-2.9968,-3.0026,-2.9729,-2.9626,-2.9626,-2.9626,-2.9863,-3.0195,-3.0195,-3.0412,-3.0704,-3.084,-3.0762,-3.0704,-3.0879,-3.0898,-3.082,-3.045,-3.0704,-3.0704,-3.0039,-3.047,-3.0762,-3.045,-3.1422,-3.2229,-3.2229,-3.2891,-3.3418,-3.3418,-3.3418,-3.3594,-3.4023,-3.4148,-3.4262,-3.4489,-3.4594,-3.4497,-3.428,-3.412,-3.3959,-3.3798,-3.4163,-3.437,-3.437,-3.4715,-3.4827,-3.4618,-3.4433,-3.4252,-3.4064,-3.4787,-3.5505,-3.6216,-3.7139,-3.8248,-3.9473,-4.0047,-4.0639,-4.1143,-4.1791,-4.2063,-4.2087,-4.2319,-4.2286,-4.2183,0.0,0.0,0.0,0.0,0.0,0.0,0.0,0.0,0.0,0.0,0.0,0.0,0.0,0.0,0.0,0.0,0.0,0.0,0.0,0.0,0.0,0.0,0.0,0.0,0.0,0.0,0.0,-2.8301,0.0,0.0,0.0,0.0,0.0,0.0,-2.8301,0.0,0.0,0.0,0.0,0.0,0.0,0.0,0.0,0.0,0.0,0.0,0.0,0.0,0.0,0.0,-3.0098,-3.0218,-2.9774,-2.9731,-2.9844,-2.9844,-3.0078,-3.0351,-3.0351,-3.049,-3.0704,-3.084,-3.0762,-3.0704,-3.0898,-3.0898,-3.0762,-3.0392,-3.0645,-3.0645,-2.9863,-3.0352,-3.0762,-3.0333,-3.1362,-3.2229,-3.2229,-3.2891,-3.3418,-3.3418,-3.3418,-3.3633,-3.416,-3.4185,-3.4345,-3.4796,-3.4458,-3.424,-3.4176,-3.4271,-3.4094,-3.3817,-3.3886,-3.4024,-3.4232,-3.437,-3.4646,-3.5108,-3.4834,-3.4902,-3.5226,-3.6316,-3.7038,-3.7374,-3.8772,-4.004,-4.11,-4.11,-4.1614,-4.2275,-4.2275,-4.2275,-4.2275,-4.2275,-4.2275,-4.2339,0.0,0.0,0.0,0.0,0.0,0.0,0.0,0.0,0.0,0.0,0.0,0.0,0.0,0.0,0.0,0.0,0.0,0.0,0.0,0.0,0.0,0.0,0.0,0.0,0.0,0.0,0.0,-2.8301,-2.8301,0.0,0.0,0.0,0.0,0.0,0.0,-2.8301,-2.8301,0.0,0.0,0.0,0.0,0.0,0.0,0.0,0.0,0.0,0.0,0.0,0.0,0.0,0.0,-2.9922,-2.9886,-3.0296,-3.0762,-3.0762,-3.0801,-3.082,-3.082,-3.0431,-3.0157,-3.0762,-3.047,-3.0157,-3.0762,-3.0898,-3.0704,-3.0098,-3.047,-3.0528,-2.929,-3.0058,-3.0704,-3.0039,-3.1243,-3.2229,-3.2229,-3.2891,-3.3418,-3.3418,-3.3418,-3.375,-3.4551,-3.4379,-3.4413,-3.4876,-3.4283,-3.3868,-3.3831,-3.3868,-3.3817,-3.3817,-3.4163,-3.4163,-3.3886,-3.4232,-3.4834,-3.5821,-3.5753,-3.6479,-3.7734,-3.7868,-3.8663,-3.9866,-4.0062,-4.0862,-4.2148,-4.2148,-4.2212,-4.2275,-4.2275,-4.2275,-4.2275,-4.2275,-4.2275,-4.2275,0.0,0.0,0.0,0.0,0.0,0.0,0.0,0.0,0.0,0.0,0.0,0.0,0.0,0.0,0.0,0.0,0.0,0.0,0.0,0.0,0.0,0.0,0.0,0.0,0.0,0.0,0.0,0.0,0.0,0.0,0.0,0.0,0.0,0.0,0.0,-2.8301,-2.8301,0.0,0.0,0.0,0.0,0.0,0.0,0.0,0.0,0.0,0.0,0.0,-2.9686,0.0,0.0,0.0,-2.9863,-3.0098,0.0,0.0,-3.0762,-3.0898,-3.0898,-3.0704,-3.0528,-3.0567,-3.0392,-3.0216,-3.0274,-3.047,-3.0392,-2.9804,-3.0352,-3.0587,-2.9509,-2.9981,-3.0509,0.0,0.0,0.0,-3.1764,-3.2367,-3.2831,-3.3082,-3.3292,-3.3642,-3.4321,-3.4068,-3.3964,-3.4245,-3.4746,-3.4677,-3.3886,-3.3817,-3.3817,-3.3817,-3.3955,-3.3955,-3.3817,-3.4815,-3.548,-3.5889,-3.6816,-3.7534,-3.8134,-3.8993,-3.967,-4.0257,-4.1077,-4.1806,-4.2275,-4.2275,-4.2275,-4.2275,-4.2275,-4.2275,-4.2275,-4.2275,-4.2275,-4.2339,0.0,0.0,0.0,0.0,0.0,0.0,0.0,0.0,0.0,0.0,0.0,0.0,0.0,0.0,0.0,0.0,0.0,0.0,0.0,0.0,0.0,0.0,0.0,0.0,0.0,0.0,0.0,0.0,0.0,0.0,0.0,0.0,-2.8301,-2.8301,0.0,0.0,0.0,0.0,0.0,0.0,0.0,0.0,0.0,0.0,0.0,0.0,0.0,0.0,0.0,0.0,0.0,0.0,0.0,0.0,0.0,0.0,-3.0509,-3.0762,-3.0762,-3.0704,-3.0587,-3.0567,-3.0333,-3.0098,-3.0039,-3.0157,-3.0098,-2.9627,-3.0117,-3.0352,-2.9509,-2.9863,-3.0216,0.0,0.0,-3.0819,-3.1421,-3.1965,-3.2387,-3.2746,-3.3038,-3.3514,-3.4123,-3.4431,-3.4528,-3.4433,-3.5753,-3.6141,-3.5139,-3.507,-3.4677,-3.3817,-3.3817,-3.4024,-3.4421,-3.5412,-3.6344,-3.722,-3.82,-3.8927,-3.9408,-4.0409,-4.0797,-4.0862,-4.187,-4.2275,-4.2275,-4.2275,-4.2275,-4.2275,-4.2275,-4.2275,-4.2275,-4.2275,-4.2339,-4.2529,0.0,0.0,0.0,0.0,0.0,0.0,0.0,0.0,0.0,0.0,0.0,0.0,0.0,0.0,0.0,0.0,0.0,0.0,0.0,0.0,0.0,0.0,0.0,0.0,0.0,0.0,0.0,0.0,0.0,0.0,0.0,0.0,0.0,-2.8301,0.0,0.0,0.0,0.0,0.0,0.0,0.0,0.0,0.0,0.0,0.0,0.0,0.0,0.0,0.0,0.0,0.0,0.0,0.0,0.0,0.0,0.0,-3.0157,-3.0392,-3.0392,-3.0157,-3.0039,-3.0704,-3.0235,-2.9686,-3.0274,-3.0157,-2.9804,-2.9568,-2.9745,-2.9745,-2.9094,-2.9509,-2.9804,-2.9568,-3.0103,0.0,-3.1157,-3.1841,-3.2344,-3.2365,-3.2676,-3.3258,-3.4104,-3.587,-3.6634,-3.5957,-3.7266,-3.8067,-3.8067,-3.8067,-3.6749,-3.3886,-3.3817,-3.449,-3.5889,-3.5889,-3.7354,-4.0127,-4.0192,-4.0926,-4.2275,-4.2275,-4.2275,-4.2275,-4.2275,-4.2275,-4.2275,-4.2275,-4.2275,-4.2275,-4.2275,-4.2275,-4.2275,-4.2275,-4.2529,-4.2822,0.0,0.0,0.0,0.0,0.0,0.0,0.0,0.0,0.0,0.0,0.0,0.0,0.0,0.0,0.0,0.0,0.0,0.0,0.0,0.0,0.0,0.0,0.0,0.0,0.0,0.0,0.0,0.0,0.0,0.0,0.0,0.0,0.0,0.0,0.0,0.0,0.0,0.0,0.0,0.0,0.0,0.0,0.0,0.0,0.0,0.0,0.0,0.0,0.0,0.0,0.0,0.0,0.0,0.0,0.0,0.0,0.0,0.0,-3.0039,-2.9981,-2.9922,-2.9922,-2.9745,-2.9509,-2.945,-2.9568,-2.9568,-2.9213,-2.9568,-2.9804,-2.939,-2.9509,-2.9686,-2.9745,-2.9621,-2.9837,-3.0709,-3.1819,-3.2432,-3.2091,-3.2868,-3.3939,-3.5171,-3.6958,-3.7888,-3.7467,-3.8729,-3.9125,-3.8134,-3.8067,-3.7199,-3.5275,-3.6209,-3.6479,-3.5889,-3.7868,-3.9277,-4.0192,-4.1206,-4.187,-4.2275,-4.2275,-4.2275,-4.2275,-4.2275,-4.2275,-4.2275,-4.2275,-4.2275,-4.2275,-4.2275,-4.2275,-4.2275,-4.2275,-4.2529,-4.2822,0.0,0.0,0.0,0.0,0.0,0.0,0.0,0.0,0.0,0.0,0.0,0.0,0.0,0.0,0.0,0.0,0.0,0.0,0.0,0.0,0.0,0.0,0.0,0.0,0.0,0.0,0.0,0.0,0.0,0.0,0.0,0.0,0.0,0.0,0.0,0.0,0.0,0.0,0.0,0.0,0.0,0.0,-2.9272,0.0,0.0,0.0,0.0,0.0,0.0,0.0,0.0,0.0,0.0,0.0,0.0,0.0,0.0,0.0,0.0,-2.9745,-2.9745,-2.9686,-2.9509,-2.9272,-2.9213,-2.9272,-2.9272,-2.9035,-2.9272,-2.9509,-2.9331,-2.9331,-2.939,-2.9509,-2.9272,-2.9389,-3.0568,-3.1825,-3.2869,-3.3364,-3.4418,-3.5321,-3.6099,-3.8138,-3.9277,-3.8927,-4.0192,-4.0603,-3.9736,-3.967,-3.9014,-3.7534,-3.7868,-3.7934,-3.7554,-3.9277,-4.0473,-4.0991,-4.187,-4.2275,-4.2275,-4.2275,-4.2275,-4.2275,-4.2275,-4.2275,0.0,-4.2275,-4.2275,-4.2275,-4.2275,-4.2275,-4.2275,-4.2275,-4.2593,-4.3012,0.0,0.0,0.0,0.0,0.0,0.0,0.0,0.0,0.0,0.0,0.0,0.0,0.0,0.0,0.0,0.0,0.0,0.0,0.0,0.0,0.0,0.0,0.0,0.0,0.0,0.0,0.0,0.0,-2.8301,-2.8301,-2.8301,0.0,0.0,0.0,0.0,0.0,0.0,0.0,-2.7921,0.0,0.0,-2.8663,0.0,0.0,0.0,0.0,0.0,0.0,0.0,0.0,0.0,0.0,0.0,0.0,0.0,0.0,0.0,0.0,0.0,0.0,0.0,0.0,-2.939,-2.9094,-2.939,-2.9213,0.0,-2.8975,-2.8975,-2.8975,-2.8975,-2.8975,-2.8975,-2.8975,-2.8975,-2.9389,-3.0506,-3.1883,-3.3599,-3.5785,-3.6771,-3.7127,-3.6914,-3.9239,-4.0646,-4.0387,-4.1527,-4.2275,-4.2275,-4.2275,-4.1678,-4.0409,-3.9059,-3.8993,-4.0192,-4.0279,-4.1013,-4.2275,-4.2275,-4.2275,-4.2275,-4.2275,-4.2275,-4.2275,-4.2275,-4.2275,-4.2275,-4.2275,-4.2275,-4.2275,-4.2275,-4.2275,-4.2275,-4.2275,-4.2696,-4.3326,0.0,0.0,0.0,0.0,0.0,0.0,0.0,0.0,0.0,0.0,0.0,0.0,0.0,0.0,0.0,0.0,0.0,0.0,0.0,0.0,0.0,0.0,0.0,0.0,0.0,0.0,0.0,-2.8301,-2.8301,-2.8301,-2.8301,-2.8301,0.0,0.0,0.0,0.0,-2.7641,-2.7995,-2.8126,0.0,-2.867,-2.8902,0.0,0.0,0.0,0.0,-2.8975,-2.8975,0.0,0.0,0.0,0.0,0.0,0.0,0.0,0.0,-2.8975,0.0,0.0,0.0,0.0,0.0,-2.9094,-2.9035,0.0,-2.9035,-2.8975,-2.8975,-2.8975,-2.8975,-2.8975,-2.8975,-2.8975,-2.8975,-2.8975,-2.9329,-3.0199,-3.2013,-3.4265,-3.7028,-3.6931,-3.7233,-3.8625,-3.9658,-4.0634,-4.1719,-4.2148,-4.2275,-4.2275,-4.2275,-4.2148,-4.1806,-4.1463,-4.0926,-4.0214,-4.1271,-4.1998,-4.2275,-4.2275,-4.2275,-4.2275,-4.2275,-4.2275,-4.2275,-4.2275,-4.2275,-4.2275,-4.2275,-4.2275,-4.2275,-4.2275,-4.2275,-4.2275,-4.2275,-4.2696,-4.3326,0.0,0.0,0.0,0.0,0.0,0.0,0.0,0.0,0.0,0.0,0.0,0.0,0.0,0.0,0.0,0.0,0.0,0.0,0.0,0.0,0.0,0.0,0.0,0.0,0.0,0.0,0.0,0.0,0.0,-2.8301,0.0,0.0,0.0,0.0,0.0,0.0,-2.7262,-2.7734,-2.7939,-2.8048,-2.852,0.0,0.0,0.0,0.0,0.0,-2.8975,-2.8975,0.0,-2.8975,-2.8975,-2.8975,0.0,0.0,0.0,0.0,-2.8975,-2.8975,-2.8975,-2.8975,-2.8975,-2.8975,-2.8975,-2.8975,-2.8975,0.0,-2.8975,-2.8975,-2.8975,-2.8975,-2.8975,-2.8975,-2.8975,-2.8975,-2.9658,-3.089,-3.2934,-3.394,-3.5561,-3.8134,-3.8254,-3.868,-3.9933,-4.045,-4.1158,-4.2229,-4.2275,-4.2275,-4.2275,-4.2275,-4.2275,-4.2275,-4.2275,-4.1934,-4.1206,-4.1934,-4.2275,-4.2275,-4.2275,-4.2275,-4.2275,-4.2275,-4.2275,-4.2275,-4.2275,-4.2402,-4.2529,-4.2339,-4.2402,-4.2529,-4.2529,-4.2466,-4.2339,-4.2633,-4.3012,-4.3326,0.0,0.0,0.0,0.0,0.0,0.0,0.0,0.0,0.0,0.0,0.0,0.0,0.0,0.0,0.0,0.0,0.0,0.0,0.0,0.0,0.0,0.0,0.0,0.0,0.0,0.0,0.0,0.0,0.0,0.0,0.0,0.0,0.0,0.0,0.0,0.0,-2.6972,-2.7456,-2.7678,-2.7858,-2.8297,0.0,0.0,0.0,0.0,0.0,0.0,0.0,0.0,-2.8975,-2.8975,-2.8975,-2.8975,0.0,0.0,0.0,0.0,0.0,-2.8975,-2.8975,-2.8975,-2.8975,-2.8975,-2.8975,-2.8975,0.0,-2.8975,-2.8975,-2.8975,-2.8975,-2.8975,-2.8975,-2.8975,-2.8975,-3.0539,-3.2892,-3.6242,-3.6363,-3.6907,-3.9049,-3.9675,-4.0135,-4.0663,-4.1099,-4.1558,-4.2063,-4.2178,-4.2224,-4.2224,-4.2229,-4.2275,-4.2275,-4.2275,-4.2275,-4.2275,-4.2275,-4.2275,-4.2275,-4.2275,-4.2275,-4.2275,-4.2275,-4.2275,-4.2275,-4.2339,-4.2529,-4.2759,-4.2529,-4.2633,-4.2886,-4.2886,-4.2696,-4.2529,-4.3075,-4.3326,-4.3428,0.0,0.0,0.0,0.0,0.0,0.0,0.0,0.0,0.0,0.0,0.0,0.0,0.0,0.0,0.0,0.0,0.0,0.0,0.0,0.0,0.0,0.0,0.0,0.0,0.0,0.0,0.0,0.0,0.0,0.0,-2.8301,-2.8247,-2.796,0.0,0.0,0.0,-2.6682,-2.7474,-2.7767,-2.7877,-2.859,0.0,0.0,0.0,0.0,0.0,0.0,0.0,0.0,-2.8975,-2.8975,-2.8975,-2.8975,0.0,0.0,0.0,0.0,0.0,-2.8975,-2.8975,-2.8975,-2.8975,-2.8975,-2.8975,-2.8975,-2.8975,-2.8975,-2.8975,-2.8975,-2.8975,-2.8975,-2.8975,-2.8975,-2.8975,-3.0768,-3.3175,-3.6286,-3.6943,-3.7632,-3.9108,-3.9377,-3.9607,-4.0195,-4.031,-4.0502,-4.1007,-4.1443,-4.1696,-4.1696,-4.2109,-4.2275,-4.2275,-4.2275,-4.2275,-4.2275,-4.2275,-4.2275,-4.2275,-4.2275,-4.2275,-4.2275,-4.2275,-4.2275,-4.2339,-4.2593,-4.2759,-4.2822,-4.3075,-4.32,-4.32,-4.32,-4.32,-4.3137,-4.3263,-4.3514,-4.374,0.0,0.0,0.0,0.0,0.0,0.0,0.0,0.0,0.0,0.0,0.0,0.0,0.0,0.0,0.0,0.0,0.0,0.0,0.0,0.0,0.0,0.0,0.0,0.0,0.0,0.0,0.0,0.0,0.0,-2.8067,-2.8067,-2.7745,-2.7368,-2.6954,0.0,0.0,-2.6646,-2.7491,-2.7822,-2.7895,0.0,0.0,0.0,0.0,0.0,0.0,0.0,0.0,0.0,0.0,-2.8975,-2.8975,-2.8975,0.0,0.0,0.0,0.0,0.0,-2.8975,-2.8975,-2.8975,-2.8975,-2.8975,-2.8975,-2.8975,-2.8975,-2.8975,-2.8975,-2.8975,-2.8975,-2.8975,-2.8975,-2.958,-3.1485,-3.2016,-3.3578,-3.7547,-3.7657,-3.779,-3.9108,-3.9308,-3.9492,-4.0057,-4.0126,-4.0272,-4.0778,-4.103,-4.1168,-4.1168,-4.1397,-4.165,-4.1903,-4.1926,-4.2063,-4.2275,-4.2275,-4.2275,-4.2275,-4.2275,-4.2275,-4.2275,-4.2275,-4.2402,-4.2593,-4.2696,-4.3012,-4.3326,-4.3326,-4.3451,-4.3553,-4.3553,-4.3451,-4.3326,-4.3514,-4.3764,-4.4075,0.0,0.0,0.0,0.0,0.0,0.0,0.0,0.0,0.0,0.0,0.0,0.0,0.0,0.0,0.0,0.0,0.0,0.0,0.0,0.0,0.0,0.0,0.0,0.0,0.0,0.0,0.0,-2.8087,-2.7853,-2.7799,-2.7745,-2.726,-2.6881,0.0,0.0,0.0,-2.6774,-2.7581,-2.7911,-2.7967,0.0,0.0,0.0,0.0,0.0,0.0,0.0,0.0,0.0,0.0,0.0,0.0,0.0,0.0,0.0,-2.8975,-2.8975,-2.8975,-2.8975,-2.892,-2.8865,-2.8957,-2.8975,-2.8975,-2.8975,-2.8975,-2.8975,-2.8975,-2.8975,-2.8975,-2.8975,-2.8975,-3.0109,-3.3528,-3.3274,-3.418,-3.8676,-3.8432,-3.8171,-3.9167,-3.9308,-3.9446,-3.9836,-3.9882,-4.0043,-4.0433,-4.0571,-4.064,-4.064,-4.0755,-4.1007,-4.1374,-4.1512,-4.1765,-4.2155,-4.227,-4.2275,-4.2275,-4.2275,-4.2275,-4.2275,-4.2275,-4.2466,-4.2696,-4.2822,-4.32,-4.3678,-4.3576,-4.3701,-4.395,-4.395,-4.3764,-4.3576,-4.3826,-4.4075,-4.4285,0.0,0.0,0.0,0.0,0.0,0.0,0.0,0.0,0.0,0.0,0.0,0.0,0.0,0.0,0.0,0.0,0.0,0.0,0.0,0.0,0.0,0.0,0.0,0.0,0.0,-2.7638,-2.7476,-2.7476,-2.7422,-2.7422,-2.7422,-2.7152,-2.6989,0.0,0.0,0.0,-2.7196,-2.8003,-2.8352,-2.8388,-2.881,0.0,0.0,0.0,0.0,0.0,0.0,0.0,0.0,0.0,0.0,0.0,0.0,0.0,0.0,0.0,-2.8975,-2.8975,-2.8975,-2.8718,-2.8517,-2.8902,-2.8975,-2.8975,-2.8975,-2.8975,-2.8975,-2.8975,-2.8975,-2.8975,-2.8975,-2.8975,-3.0109,-3.3528,-3.4028,-3.5193,-3.8794,-3.9249,-3.9167,-3.9308,-3.9308,-3.9331,-3.9354,-3.9354,-3.9377,-3.9423,-3.9859,-4.0172,-4.0172,-4.0571,-4.0846,-4.0869,-4.1329,-4.1604,-4.1627,-4.2109,-4.2275,-4.2275,-4.2275,-4.2275,-4.2275,-4.2275,-4.2339,-4.2402,-4.3012,-4.3326,-4.3389,-4.395,-4.4223,-4.4285,-4.4285,-4.4223,-4.4223,-4.4285,-4.4285,-4.4285,0.0,0.0,0.0,0.0,0.0,0.0,0.0,0.0,0.0,0.0,0.0,0.0,0.0,0.0,0.0,0.0,0.0,0.0,0.0,0.0,0.0,0.0,0.0,-2.7206,-2.7368,-2.7368,-2.7368,-2.7368,-2.7206,-2.7062,-2.6899,-2.6791,0.0,0.0,0.0,0.0,-2.7581,-2.815,-2.8388,-2.8425,-2.8828,-2.8975,0.0,0.0,0.0,0.0,0.0,0.0,0.0,0.0,0.0,0.0,0.0,0.0,0.0,0.0,-2.8627,-2.8553,-2.8297,-2.8113,-2.8095,-2.8517,-2.8627,-2.8682,-2.892,-2.8975,-2.8975,-2.8975,-2.8975,-2.8975,-2.8975,-2.8975,-3.0109,-3.3528,-3.4087,-3.5312,-3.8794,-3.9308,-3.9308,-3.9308,-3.9308,-3.9308,-3.9308,-3.9308,-3.9308,-3.9308,-3.9469,-3.9584,-3.9584,-3.9767,-4.002,-4.0341,-4.0586,-4.1,-4.1558,-4.2015,-4.2206,-4.2275,-4.2275,-4.2275,-4.2275,-4.2275,-4.2529,-4.2949,-4.32,-4.3514,-4.395,-4.4223,-4.4285,-4.4285,-4.4285,-4.4285,-4.4285,-4.4285,-4.4285,-4.4285,0.0,0.0,0.0,0.0,0.0,0.0,0.0,0.0,0.0,0.0,0.0,0.0,0.0,0.0,0.0,0.0,0.0,0.0,0.0,0.0,0.0,0.0,0.0,-2.6881,-2.6881,-2.7062,-2.7171,-2.7171,-2.6954,-2.6846,-2.6774,0.0,0.0,0.0,0.0,0.0,0.0,-2.8407,-2.859,-2.8608,-2.8883,-2.8975,0.0,0.0,0.0,0.0,0.0,0.0,0.0,0.0,0.0,0.0,0.0,0.0,0.0,0.0,-2.8297,-2.8132,-2.7838,-2.773,-2.7767,-2.826,-2.8297,-2.8333,-2.8865,-2.8975,-2.8975,-2.8975,-2.8975,-2.8975,-2.8975,-2.8975,-3.0109,-3.3528,-3.4087,-3.5312,-3.8794,-3.9308,-3.9308,-3.9308,-3.9308,-3.9308,-3.9308,-3.9308,-3.9308,-3.9308,-3.9308,-3.9308,-3.9308,-3.9308,-3.9469,-3.9873,-4.0034,-4.0448,-4.1161,-4.1769,-4.2179,-4.2213,-4.25,-4.2529,-4.2275,-4.2275,-4.257,-4.3137,-4.3263,-4.3639,-4.4161,-4.4285,-4.4285,-4.4285,-4.4285,-4.4285,-4.4285,-4.4285,-4.4285,-4.4285,0.0,0.0,0.0,0.0,0.0,0.0,0.0,0.0,0.0,0.0,0.0,0.0,0.0,0.0,0.0,0.0,0.0,0.0,0.0,0.0,0.0,0.0,0.0,-2.6591,-2.6591,-2.6591,-2.6591,-2.6591,-2.6591,-2.6793,-2.7178,0.0,0.0,0.0,0.0,0.0,0.0,0.0,-2.8975,-2.8975,-2.8975,-2.8975,-2.8975,0.0,0.0,0.0,0.0,0.0,0.0,0.0,-2.8975,-2.8975,0.0,0.0,0.0,-2.8388,-2.8095,-2.7822,-2.7803,-2.7528,-2.7361,-2.8187,-2.8077,-2.8042,-2.8792,-2.8975,-2.8975,-2.8975,-2.8975,-2.8975,-2.8975,-2.9035,-3.0168,-3.3528,-3.4087,-3.5312,-3.8794,-3.9308,-3.9308,-3.9308,-3.9308,-3.9308,-3.9308,-3.9308,-3.9308,-3.9308,-3.9308,-3.9308,-3.9308,-3.9308,-3.9308,-3.9308,-3.985,-4.0103,-4.0126,-4.1422,-4.2118,-4.2118,-4.2942,-4.2949,-4.2339,-4.2339,-4.2466,-4.2822,-4.3137,-4.349,-4.3802,-4.4137,-4.4285,-4.4285,-4.4285,-4.4285,-4.4285,-4.4285,-4.4285,-4.4285,0.0,0.0,0.0,0.0,0.0,0.0,0.0,0.0,0.0,0.0,0.0,0.0,0.0,0.0,0.0,0.0,0.0,0.0,0.0,0.0,0.0,0.0,0.0,0.0,0.0,0.0,-2.6591,-2.6591,-2.6866,-2.7068,0.0,0.0,0.0,-2.8205,0.0,0.0,0.0,0.0,0.0,-2.8975,-2.8975,-2.8975,-2.8975,0.0,0.0,0.0,0.0,0.0,0.0,0.0,0.0,0.0,0.0,0.0,0.0,-2.771,-2.7453,-2.7344,-2.7013,-2.6848,-2.6958,-2.7746,-2.7914,-2.8042,-2.8792,-2.8975,-2.8975,-2.8975,-2.9667,-3.002,-2.9153,-3.0412,-3.2024,-3.3372,-3.4625,-3.6246,-3.8455,-3.9078,-3.9308,-3.9308,-3.9308,-3.9308,-3.9308,-3.9308,-3.9308,-3.9308,-3.9308,-3.9308,-3.9308,-3.9308,-3.9308,-3.9308,-3.9446,-3.9698,-4.0126,-4.1317,-4.1929,-4.2118,-4.313,-4.3428,-4.3012,-4.3012,-4.32,-4.349,-4.3615,-4.3826,-4.4137,-4.4285,-4.4285,-4.4285,-4.4285,-4.4285,-4.4285,-4.4285,-4.4285,-4.4285,0.0,0.0,0.0,0.0,0.0,0.0,0.0,0.0,0.0,0.0,0.0,0.0,0.0,0.0,0.0,0.0,0.0,0.0,0.0,0.0,0.0,0.0,0.0,0.0,0.0,-2.6738,-2.683,0.0,0.0,0.0,0.0,0.0,0.0,-2.8627,0.0,-2.8755,0.0,0.0,-2.8975,-2.8975,-2.8975,-2.8975,-2.8975,0.0,0.0,0.0,0.0,0.0,0.0,0.0,0.0,0.0,-2.8462,0.0,0.0,-2.7325,-2.7068,-2.6885,-2.6646,-2.6591,-2.6774,-2.762,-2.7822,-2.8042,-2.8792,-2.8975,-2.8975,-2.8975,-2.9962,-3.0587,-2.9844,-3.1323,-3.2939,-3.3938,-3.5006,-3.6387,-3.8308,-3.8826,-3.9078,-3.9285,-3.9308,-3.9308,-3.9308,-3.9308,-3.9308,-3.9308,-3.9308,-3.9308,-3.9308,-3.9308,-3.9308,-3.9308,-3.9308,-3.9446,-3.9744,-4.1098,-4.1855,-4.1999,-4.3346,-4.3888,-4.3701,-4.3451,-4.349,-4.3802,-4.395,-4.4075,-4.4285,-4.4285,-4.4285,-4.4285,-4.4285,-4.4285,-4.4285,-4.4285,-4.4285,-4.4309,0.0,0.0,0.0,0.0,0.0,0.0,0.0,0.0,0.0,0.0,0.0,0.0,0.0,0.0,0.0,0.0,0.0,0.0,0.0,0.0,0.0,0.0,0.0,0.0,0.0,0.0,0.0,0.0,0.0,0.0,0.0,0.0,-2.8645,-2.8975,0.0,-2.8975,0.0,-2.8975,-2.8975,-2.8975,-2.8975,-2.8975,-2.8975,-2.8975,0.0,0.0,0.0,0.0,0.0,0.0,0.0,0.0,-2.8352,-2.7801,-2.7178,-2.7141,-2.6866,-2.6591,-2.6591,-2.6591,-2.6774,-2.762,-2.7877,-2.8077,-2.881,-2.8975,-2.8975,-2.8975,-3.0079,-3.0937,-3.082,-3.1937,-3.343,-3.4902,-3.5238,-3.6067,-3.8183,-3.8527,-3.8757,-3.9193,-3.9285,-3.9308,-3.9308,-3.9308,-3.9308,-3.9308,-3.9308,-3.9308,-3.9308,-3.9308,-3.9308,-3.9308,-3.9308,-3.9367,-3.9367,-4.0971,-4.1788,-4.1835,-4.3463,-4.4237,-4.4285,-4.3639,-4.3576,-4.3864,-4.4161,-4.4285,-4.4285,-4.4285,-4.4285,-4.4285,-4.4285,-4.4285,-4.4285,-4.4285,-4.4285,-4.4357,0.0,0.0,0.0,0.0,0.0,0.0,0.0,0.0,0.0,0.0,0.0,0.0,0.0,0.0,0.0,0.0,0.0,0.0,0.0,0.0,0.0,0.0,0.0,0.0,0.0,0.0,0.0,0.0,0.0,0.0,0.0,0.0,0.0,-2.8975,0.0,-2.8975,0.0,-2.8975,-2.8975,-2.8975,-2.8975,-2.8975,-2.8975,-2.8975,-2.8975,0.0,0.0,0.0,0.0,0.0,0.0,0.0,-2.8003,-2.7563,-2.7123,-2.6811,-2.6646,-2.6591,-2.6591,-2.6591,-2.6774,-2.762,-2.8242,-2.8773,-2.8938,-2.8975,-2.8975,-2.8975,-3.0684,-3.1937,-3.0995,-3.336,-3.5345,-3.4712,-3.5737,-3.6769,-3.7277,-3.8068,-3.8619,-3.8734,-3.9078,-3.9308,-3.9308,-3.9308,-3.9308,-3.9308,-3.9308,-3.9308,-3.9308,-3.9308,-3.9308,-3.9308,-3.9567,-3.9684,-3.9684,-4.094,-4.1757,-4.222,-4.3203,-4.3853,-4.4285,-4.4161,-4.4099,-4.4223,-4.4285,-4.4285,-4.4285,-4.4285,-4.4285,-4.4285,-4.4285,-4.4285,-4.4285,-4.4285,-4.4285,-4.4357,0.0,0.0,0.0,0.0,0.0,0.0,0.0,0.0,0.0,0.0,0.0,0.0,0.0,0.0,0.0,0.0,0.0,0.0,0.0,0.0,0.0,0.0,0.0,0.0,0.0,0.0,0.0,0.0,0.0,0.0,0.0,0.0,0.0,-2.8975,0.0,-2.8975,-2.8975,-2.8975,-2.8975,-2.8975,-2.8975,-2.8975,-2.8975,-2.8975,-2.8975,-2.8975,-2.8975,0.0,0.0,0.0,0.0,0.0,0.0,0.0,-2.6848,-2.6646,-2.6591,-2.6591,-2.6591,-2.6591,-2.6774,-2.762,-2.837,-2.8975,-2.8975,-2.8975,-2.8975,-2.8975,-3.0917,-3.2395,-3.1785,-3.4224,-3.6091,-3.5488,-3.6099,-3.6759,-3.6956,-3.7494,-3.8022,-3.8527,-3.8803,-3.9055,-3.9285,-3.9308,-3.9308,-3.9308,-3.9308,-3.9367,-3.9544,-3.9567,-3.9567,-3.9567,-3.9837,-3.9896,-3.9802,-4.0964,-4.1781,-4.228,-4.3083,-4.3818,-4.4285,-4.4285,-4.4285,-4.4285,-4.4285,-4.4285,-4.4285,-4.4285,-4.4285,-4.4285,-4.4285,-4.4285,-4.4285,-4.4285,-4.4453,-4.4741,0.0,0.0,0.0,0.0,0.0,0.0,0.0,0.0,0.0,0.0,0.0,0.0,0.0,0.0,0.0,0.0,0.0,0.0,0.0,0.0,0.0,0.0,0.0,0.0,0.0,0.0,0.0,0.0,0.0,0.0,0.0,0.0,0.0,-2.8975,0.0,0.0,-2.8975,-2.8975,-2.8975,-2.8975,-2.8975,-2.8975,-2.8975,-2.8975,-2.8975,-2.8975,-2.8975,-2.8975,-2.8975,-2.8902,0.0,0.0,0.0,0.0,-2.6591,-2.6591,-2.6591,-2.6591,-2.6591,-2.6683,-2.694,-2.76,-2.837,-2.8975,-2.8975,-2.9153,-2.9272,-2.9035,-3.0917,-3.2623,-3.2623,-3.4614,-3.6332,-3.6332,-3.6332,-3.6415,-3.6828,-3.6933,-3.7379,-3.8344,-3.8527,-3.878,-3.9262,-3.9308,-3.9308,-3.9308,-3.9367,-3.9508,-3.9802,-3.9861,-3.9861,-3.9861,-4.013,-4.0188,-3.9978,-4.0928,-4.1745,-4.2424,-4.324,-4.389,-4.4285,-4.4285,-4.4285,-4.4285,-4.4285,-4.4285,-4.4285,-4.4285,-4.4285,-4.4285,-4.4285,-4.4285,-4.4285,-4.4381,-4.4693,-4.5149,0.0,0.0,0.0,0.0,0.0,0.0,0.0,0.0,0.0,0.0,0.0,0.0,0.0,0.0,0.0,0.0,0.0,0.0,0.0,0.0,0.0,0.0,0.0,0.0,0.0,0.0,0.0,0.0,0.0,0.0,0.0,0.0,0.0,-2.8975,0.0,0.0,0.0,-2.8975,-2.8975,-2.8975,-2.8975,-2.8975,-2.8975,-2.8975,-2.8975,-2.8975,-2.8975,-2.8975,-2.8938,-2.859,-2.8168,0.0,0.0,0.0,-2.6591,-2.6591,-2.6591,-2.6591,-2.6591,-2.7086,-2.7693,-2.7803,-2.837,-2.8975,-2.8975,-2.9785,-3.0255,-2.9213,-3.0917,-3.2623,-3.2623,-3.4614,-3.6332,-3.6332,-3.6332,-3.6355,-3.6369,-3.6759,-3.7242,-3.7816,-3.8298,-3.878,-3.9262,-3.9308,-3.9308,-3.9308,-3.9567,-3.9743,-3.9802,-4.0013,-4.0165,-4.0165,-4.0479,-4.0619,-4.0561,-4.1038,-4.1739,-4.2784,-4.3708,-4.4213,-4.4285,-4.4285,-4.4285,-4.4285,-4.4285,-4.4285,-4.4285,-4.4285,-4.4285,-4.4285,-4.4285,-4.4285,-4.4333,-4.4789,-4.5005,-4.5221,0.0,0.0,0.0,0.0,0.0,0.0,0.0,0.0,0.0,0.0,0.0,0.0,0.0,0.0,0.0,0.0,0.0,0.0,0.0,0.0,0.0,0.0,0.0,0.0,0.0,0.0,0.0,0.0,0.0,0.0,0.0,-2.8975,-2.8975,0.0,0.0,0.0,0.0,0.0,-2.8975,-2.8975,-2.8975,-2.8975,0.0,0.0,-2.8975,-2.8975,-2.8975,-2.8975,-2.892,-2.8535,-2.8113,-2.7748,-2.7362,0.0,0.0,0.0,-2.6591,-2.6591,-2.6591,-2.7013,-2.7546,-2.7767,-2.8223,-2.8718,-2.8938,-2.939,-2.9844,-2.9962,-3.1381,-3.2623,-3.2623,-3.4614,-3.6332,-3.6332,-3.6332,-3.6332,-3.6332,-3.6461,-3.6805,-3.7311,-3.7816,-3.8344,-3.8849,-3.9147,-3.9367,-3.9567,-3.9743,-3.9919,-4.027,-4.0421,-4.0479,-4.0479,-4.0826,-4.0908,-4.0735,-4.1,-4.1701,-4.2843,-4.3842,-4.4285,-4.4285,-4.4285,-4.4285,-4.4285,-4.4285,-4.4285,-4.4285,-4.4285,-4.4285,-4.4285,-4.4285,-4.4285,-4.4357,-4.4885,-4.5269,-4.5694,0.0,0.0,0.0,0.0,0.0,0.0,0.0,0.0,0.0,0.0,0.0,0.0,0.0,0.0,0.0,0.0,0.0,0.0,0.0,0.0,0.0,0.0,0.0,0.0,0.0,0.0,0.0,0.0,0.0,0.0,-2.8975,-2.8975,-2.8975,0.0,-2.8975,0.0,0.0,0.0,0.0,0.0,0.0,0.0,0.0,0.0,-2.8975,0.0,-2.8975,-2.8975,-2.8902,-2.8407,-2.8022,-2.773,-2.7178,-2.683,0.0,0.0,0.0,-2.6591,-2.6591,-2.6885,-2.7251,-2.7601,-2.8003,-2.8462,-2.8773,-2.9415,-3.006,-3.0704,-3.2281,-3.3473,-3.3134,-3.4836,-3.6332,-3.6332,-3.6332,-3.6332,-3.6332,-3.6332,-3.6461,-3.6911,-3.7471,-3.7999,-3.8527,-3.9091,-3.9544,-3.9802,-3.9919,-4.0211,-4.0677,-4.0792,-4.085,-4.085,-4.1057,-4.1081,-4.085,-4.1345,-4.199,-4.2843,-4.3842,-4.4285,-4.4285,-4.4285,-4.4285,-4.4285,-4.4285,-4.4285,-4.4285,-4.4285,-4.4285,-4.4285,-4.4285,-4.4357,-4.4549,-4.5077,-4.5669,-4.6199,0.0,0.0,0.0,0.0,0.0,0.0,0.0,0.0,0.0,0.0,0.0,0.0,0.0,0.0,0.0,0.0,0.0,0.0,0.0,0.0,0.0,0.0,0.0,0.0,0.0,0.0,0.0,0.0,0.0,0.0,-2.8975,-2.8975,-2.8975,-2.8975,-2.8975,-2.8975,-2.8975,0.0,0.0,0.0,0.0,0.0,0.0,0.0,0.0,0.0,0.0,-2.8975,-2.8865,-2.8134,-2.784,-2.7693,-2.6866,-2.6609,-2.6591,0.0,0.0,0.0,-2.6591,-2.6885,-2.7178,-2.7196,-2.7801,-2.8407,-2.8425,-3.0527,-3.2109,-3.1053,-3.3663,-3.5763,-3.458,-3.5433,-3.6332,-3.6332,-3.6332,-3.6332,-3.6332,-3.6332,-3.6461,-3.6911,-3.7471,-3.7999,-3.8527,-3.9325,-3.9802,-3.9802,-4.0328,-4.0677,-4.0735,-4.1024,-4.1172,-4.1172,-4.1196,-4.1196,-4.1172,-4.2182,-4.2771,-4.2843,-4.3842,-4.4285,-4.4285,-4.4285,-4.4285,-4.4285,-4.4285,-4.4285,-4.4285,-4.4285,-4.4285,-4.4285,-4.4285,-4.4597,-4.5101,-4.5694,-4.6223,-4.6752,0.0,0.0,0.0,0.0,0.0,0.0,0.0,0.0,0.0,0.0,0.0,0.0,0.0,0.0,0.0,0.0,0.0,0.0,0.0,0.0,0.0,0.0,0.0,0.0,0.0,0.0,0.0,0.0,0.0,-2.8975,-2.8975,-2.8975,-2.8975,-2.8975,-2.8975,-2.8975,-2.8975,-2.8975,0.0,0.0,0.0,0.0,0.0,0.0,0.0,-2.8975,-2.8975,-2.8975,-2.8865,-2.8097,-2.7822,-2.7675,-2.683,-2.6591,-2.6591,-2.6591,-2.6591,-2.6591,-2.6591,-2.6683,-2.6866,-2.7123,-2.7581,-2.8058,-2.8333,-2.9367,-3.0626,-3.1707,-3.2395,-3.3381,-3.53,-3.5982,-3.6332,-3.6332,-3.6332,-3.6332,-3.6332,-3.6332,-3.6346,-3.653,-3.7288,-3.7862,-3.8045,-3.914,-3.9861,-4.0013,-4.0421,-4.0792,-4.1024,-4.1115,-4.1172,-4.1172,-4.1172,-4.1172,-4.1172,-4.223,-4.2819,-4.2843,-4.3842,-4.4285,-4.4285,-4.4285,-4.4285,-4.4285,-4.4285,-4.4285,-4.4285,-4.4285,-4.4285,-4.4285,-4.4285,-4.4621,-4.5125,-4.5718,-4.6247,-4.68,0.0,0.0,0.0,0.0,0.0,0.0,0.0,0.0,0.0,0.0,0.0,0.0,0.0,0.0,0.0,0.0,0.0,0.0,0.0,0.0,0.0,0.0,0.0,0.0,0.0,0.0,0.0,0.0,0.0,0.0,0.0,-2.8975,-2.8975,-2.8975,-2.8975,-2.8975,0.0,0.0,0.0,-2.8975,0.0,0.0,-2.8975,0.0,-2.8975,-2.8975,-2.8975,-2.8975,-2.8865,-2.8097,-2.7822,-2.7675,-2.683,-2.6591,-2.6591,0.0,0.0,0.0,-2.6591,-2.6591,-2.6646,-2.6921,-2.738,-2.7895,-2.8113,-2.9214,-3.0684,-3.2281,-3.2623,-3.3381,-3.5872,-3.6332,-3.6332,-3.6332,-3.6332,-3.6332,-3.644,-3.6386,-3.6332,-3.644,-3.7229,-3.7849,-3.7963,-3.9175,-4.0071,-4.0363,-4.0653,-4.0966,-4.1196,-4.1172,-4.1172,-4.1172,-4.1172,-4.1172,-4.1172,-4.223,-4.2819,-4.2843,-4.3842,-4.4285,-4.4285,-4.4285,-4.4285,-4.4285,-4.4285,-4.4285,-4.4285,-4.4285,-4.4285,-4.4309,-4.4477,-4.4885,-4.539,-4.6006,-4.6535,-4.7016,0.0,0.0,0.0,0.0,0.0,0.0,0.0,0.0,0.0,0.0,0.0,0.0,0.0,0.0,0.0,0.0,0.0,0.0,0.0,0.0,0.0,0.0,0.0,0.0,0.0,0.0,0.0,0.0,0.0,0.0,0.0,0.0,-2.8975,-2.8975,-2.8975,-2.8975,-2.8975,0.0,-2.8975,-2.8975,-2.8975,-2.8975,-2.8975,-2.8975,-2.8975,-2.8975,-2.8975,-2.8975,-2.8865,-2.8058,-2.784,-2.7711,-2.6848,-2.6591,0.0,0.0,0.0,0.0,0.0,0.0,0.0,-2.6591,-2.7178,-2.7822,-2.7822,-3.0233,-3.2488,-3.2566,-3.4447,-3.6145,-3.62,-3.6277,-3.6277,-3.6277,-3.6332,-3.6386,-3.6657,-3.6495,-3.644,-3.6657,-3.7396,-3.7963,-3.8268,-3.9463,-4.0363,-4.0677,-4.1024,-4.1172,-4.1172,-4.1172,-4.1172,-4.1172,-4.1172,-4.1196,-4.1196,-4.2289,-4.2819,-4.2867,-4.3842,-4.4285,-4.4285,-4.4285,-4.4285,-4.4285,-4.4285,-4.4285,-4.4285,-4.4285,-4.4285,-4.4357,-4.4885,-4.5477,-4.6006,-4.6535,-4.704,-4.7497,0.0,0.0,0.0,0.0,0.0,0.0,0.0,0.0,0.0,0.0,0.0,0.0,0.0,0.0,0.0,0.0,0.0,0.0,0.0,0.0,0.0,0.0,0.0,0.0,0.0,0.0,0.0,0.0,0.0,0.0,0.0,0.0,0.0,0.0,-2.8975,-2.8975,-2.8975,-2.8975,0.0,-2.8975,-2.8975,-2.8975,-2.8975,-2.8975,-2.8975,-2.8975,-2.8975,-2.8975,-2.8902,-2.8388,-2.8223,-2.8077,-2.727,0.0,0.0,0.0,0.0,0.0,-2.6591,0.0,0.0,0.0,0.0,0.0,-2.7822,-2.895,-3.0236,-3.1091,-3.1842,-3.2871,-3.4692,-3.4991,-3.5268,-3.6145,-3.6332,-3.6332,-3.6386,-3.6495,-3.6603,-3.6712,-3.7705,-3.8503,-3.8583,-3.9807,-4.0595,-4.0677,-4.1024,-4.1172,-4.1172,-4.1172,-4.1172,-4.1172,-4.1172,-4.1365,-4.1749,-4.2482,-4.2952,-4.3313,-4.3949,-4.4285,-4.4285,-4.4285,-4.4285,-4.4285,-4.4285,-4.4285,-4.4285,-4.4285,-4.4525,-4.4861,-4.5005,-4.563,-4.6511,-4.6655,-4.704,-4.7497,0.0,0.0,0.0,0.0,0.0,0.0,0.0,0.0,0.0,0.0,0.0,0.0,0.0,0.0,0.0,0.0,0.0,0.0,0.0,0.0,0.0,0.0,0.0,0.0,0.0,0.0,0.0,0.0,0.0,0.0,0.0,0.0,0.0,0.0,0.0,0.0,0.0,0.0,-2.8975,-2.8975,-2.8975,-2.8975,-2.8975,-2.8975,-2.8975,-2.8975,-2.8975,-2.8975,-2.892,-2.8535,-2.8278,-2.804,-2.7563,-2.727,0.0,0.0,0.0,0.0,0.0,0.0,0.0,0.0,0.0,0.0,-2.7985,-2.8925,-2.9962,-3.0645,-3.1632,-3.2758,-3.4246,-3.4936,-3.5488,-3.6223,-3.6332,-3.6332,-3.644,-3.658,-3.6766,-3.685,-3.7926,-3.8727,-3.8918,-3.9978,-4.0792,-4.0908,-4.1081,-4.1172,-4.1172,-4.1172,-4.1172,-4.1172,-4.1172,-4.1437,-4.1966,-4.2554,-4.3024,-4.3529,-4.4021,-4.4285,-4.4285,-4.4285,-4.4285,-4.4285,-4.4285,-4.4405,-4.4621,-4.4621,-4.4789,-4.5125,-4.5558,-4.6175,-4.6728,-4.6968,-4.7233,-4.7497,0.0,0.0,0.0,0.0,0.0,0.0,0.0,0.0,0.0,0.0,0.0,0.0,0.0,0.0,0.0,0.0,0.0,0.0,0.0,0.0,0.0,0.0,0.0,0.0,0.0,0.0,0.0,0.0,0.0,0.0,0.0,0.0,0.0,0.0,0.0,0.0,0.0,0.0,-2.8975,-2.8975,-2.8975,-2.8975,-2.8975,-2.8975,-2.8975,-2.8975,-2.8975,-2.8975,-2.8938,-2.8572,-2.8187,-2.7895,-2.7895,-2.7858,-2.7748,-2.7343,-2.7289,0.0,0.0,0.0,0.0,0.0,-2.7601,0.0,-2.8315,-2.956,-3.0587,-3.0587,-3.2473,-3.4078,-3.4078,-3.508,-3.5927,-3.6091,-3.6091,-3.62,-3.658,-3.6688,-3.6796,-3.7066,-3.8044,-3.8847,-3.9197,-4.0126,-4.0836,-4.1172,-4.1172,-4.1172,-4.1172,-4.1172,-4.1172,-4.1172,-4.1244,-4.1533,-4.2062,-4.2591,-4.3096,-4.3601,-4.4045,-4.4285,-4.4285,-4.4285,-4.4285,-4.4285,-4.4357,-4.4645,-4.5077,-4.5197,-4.5309,-4.5342,-4.6343,-4.6752,-4.6848,-4.7329,-4.7497,-4.7497,0.0,0.0,0.0,0.0,0.0,0.0,0.0,0.0,0.0,0.0,0.0,0.0,0.0,0.0,0.0,0.0,0.0,0.0,0.0,0.0,0.0,0.0,0.0,0.0,0.0,0.0,0.0,0.0,0.0,0.0,0.0,0.0,0.0,0.0,0.0,0.0,0.0,-2.8975,-2.8975,-2.8975,-2.8975,-2.8975,-2.8975,-2.8975,-2.8975,-2.8975,-2.8975,-2.8975,-2.8975,-2.8902,-2.8608,-2.8278,-2.8278,-2.804,-2.7803,-2.773,-2.7711,0.0,0.0,0.0,0.0,-2.7693,-2.7967,0.0,-2.837,-2.8877,-2.9331,-2.9331,-3.0529,-3.1516,-3.1516,-3.2509,-3.3642,-3.4692,-3.488,-3.5212,-3.62,-3.6742,-3.7012,-3.7066,-3.8065,-3.8964,-3.945,-4.0074,-4.0658,-4.1148,-4.1172,-4.1172,-4.1172,-4.1172,-4.1172,-4.1172,-4.1605,-4.2062,-4.2651,-4.312,-4.3649,-4.4117,-4.4237,-4.4285,-4.4285,-4.4285,-4.4285,-4.4309,-4.4741,-4.4981,-4.5213,-4.6054,-4.6415,-4.6439,-4.6631,-4.6968,-4.7353,-4.7473,-4.7497,-4.7497,0.0,0.0,0.0,0.0,0.0,0.0,0.0,0.0,0.0,0.0,0.0,0.0,0.0,0.0,0.0,0.0,0.0,0.0,0.0,0.0,0.0,0.0,0.0,0.0,0.0,0.0,0.0,0.0,0.0,0.0,0.0,0.0,0.0,0.0,0.0,0.0,0.0,-2.8975,-2.8975,-2.8975,-2.8975,-2.8975,-2.8975,-2.8975,-2.8975,-2.8975,-2.8975,-2.8975,-2.8975,-2.8975,-2.8847,-2.8682,-2.8682,-2.8535,-2.8333,-2.8132,-2.8077,-2.804,-2.782,-2.7822,-2.7877,-2.8022,-2.8242,0.0,0.0,-2.8847,-2.8975,-2.8975,-2.9962,-3.082,-3.082,-3.1765,-3.3021,-3.4302,-3.4469,-3.4936,-3.6145,-3.6742,-3.7089,-3.7089,-3.8102,-3.9032,-3.9561,-4.009,-4.0619,-4.1148,-4.1172,-4.1172,-4.1172,-4.1172,-4.1172,-4.1172,-4.1701,-4.2289,-4.2819,-4.3265,-4.3794,-4.4285,-4.4285,-4.4285,-4.4285,-4.4285,-4.4429,-4.4693,-4.4957,-4.5366,-4.5958,-4.6487,-4.6872,-4.7112,-4.7112,-4.7257,-4.7497,-4.7497,-4.7497,-4.7497,0.0,0.0,0.0,0.0,0.0,0.0,0.0,0.0,0.0,0.0,0.0,0.0,0.0,0.0,0.0,0.0,0.0,0.0,0.0,0.0,0.0,0.0,0.0,-2.8975,0.0,0.0,0.0,0.0,0.0,0.0,0.0,0.0,0.0,0.0,0.0,0.0,0.0,-2.8975,-2.8975,-2.8975,-2.8975,-2.8975,-2.8975,-2.8975,-2.8975,-2.8975,-2.8975,-2.8975,-2.8975,-2.8975,-2.8975,-2.8975,-2.8975,-2.8975,-2.892,-2.8608,-2.8517,-2.8425,-2.8095,-2.8061,-2.8077,-2.8425,-2.8517,-2.859,0.0,0.0,0.0,-2.8975,-2.9785,-3.047,-3.047,-3.1265,-3.2276,-3.3372,-3.3669,-3.4236,-3.5545,-3.6356,-3.685,-3.7012,-3.8006,-3.8912,-3.9482,-4.013,-4.0715,-4.1148,-4.1172,-4.1172,-4.1172,-4.1172,-4.1172,-4.1172,-4.1798,-4.2386,-4.2819,-4.3361,-4.389,-4.4285,-4.4285,-4.4285,-4.4285,-4.4381,-4.4669,-4.5077,-4.5357,-4.5934,-4.6728,-4.6824,-4.7112,-4.7497,-4.7497,-4.7497,-4.7497,-4.7497,-4.7497,-4.7497,-2.8975,-2.8975,0.0,0.0,0.0,0.0,0.0,0.0,0.0,0.0,0.0,0.0,0.0,0.0,-2.8975,0.0,0.0,-2.8975,-2.8975,-2.8975,0.0,0.0,0.0,0.0,-2.8975,0.0,0.0,0.0,0.0,0.0,0.0,0.0,0.0,0.0,-2.8975,0.0,0.0,-2.8975,-2.8975,-2.8975,-2.8975,-2.8975,-2.8975,-2.8975,-2.8975,-2.8975,-2.8975,-2.8975,-2.8975,-2.8975,-2.8975,-2.8975,-2.8975,-2.8975,-2.8975,-2.8938,-2.892,-2.8902,-2.8865,-2.8847,-2.8847,-2.8902,-2.892,-2.892,-2.8975,0.0,-2.8975,-2.8975,0.0,-2.9213,-2.9213,0.0,0.0,-3.0066,-3.0769,-3.1808,-3.3419,-3.4719,-3.5827,-3.6634,-3.7566,-3.8371,-3.9181,-4.0386,-4.1124,-4.1172,-4.1172,-4.1172,-4.1172,-4.1172,-4.1172,-4.1172,-4.2158,-4.2747,-4.2819,-4.3746,-4.4213,-4.4285,-4.4285,-4.4285,-4.4309,-4.4765,-4.5005,-4.5125,-4.6126,-4.6607,-4.6752,-4.7209,-4.7449,-4.7497,-4.7497,-4.7497,-4.7497,-4.7497,-4.7497,-4.7497,-2.8975,-2.8975,0.0,0.0,0.0,0.0,0.0,0.0,0.0,0.0,0.0,0.0,-2.8975,-2.8975,-2.8975,-2.8975,-2.8975,-2.8975,-2.8975,-2.8975,0.0,0.0,0.0,0.0,0.0,0.0,0.0,0.0,-2.8975,0.0,0.0,0.0,0.0,0.0,-2.8975,-2.8975,-2.8975,-2.8975,-2.8975,-2.8975,-2.8975,-2.8975,-2.8975,-2.8975,-2.8975,-2.8975,-2.8975,-2.8975,-2.8975,-2.8975,-2.8975,-2.8975,-2.8975,-2.8975,-2.8975,-2.8975,-2.8975,-2.8975,-2.8975,-2.8975,-2.8975,-2.8975,-2.8975,-2.8975,-2.8975,-2.8975,-2.8975,-2.8975,0.0,0.0,0.0,0.0,0.0,0.0,-3.0586,-3.1377,-3.2984,-3.4406,-3.564,-3.658,-3.7441,-3.8353,-3.9323,-4.0226,-4.086,-4.1172,-4.1172,-4.1172,-4.1172,-4.1485,-4.1629,-4.1629,-4.2663,-4.3192,-4.3192,-4.3962,-4.4285,-4.4285,-4.4285,-4.4285,-4.4309,-4.4837,-4.5245,-4.5645,-4.6391,-4.6896,-4.7185,-4.7401,-4.7497,-4.7497,-4.7497,-4.7497,-4.7497,-4.7497,-4.7497,-4.7497,-2.8975,0.0,0.0,0.0,0.0,0.0,0.0,0.0,0.0,0.0,-2.8975,-2.8975,-2.8975,-2.8975,-2.8975,-2.8975,-2.8975,-2.8975,-2.8975,-2.8975,-2.8975,-2.8975,-2.8975,-2.8975,-2.8975,0.0,0.0,0.0,0.0,0.0,0.0,0.0,0.0,0.0,0.0,-2.8975,-2.8975,-2.8975,-2.8975,-2.8975,-2.8975,-2.9048,-2.914,-2.903,-2.8975,-2.8993,-2.9104,-2.9067,-2.8993,-2.9104,-2.9067,-2.8975,-2.8975,-2.8975,-2.8975,-2.8975,-2.8975,-2.8975,-2.8975,-2.8975,-2.8975,-2.8975,-2.8975,-2.8975,-2.8975,-2.8975,-2.8975,-2.8975,-2.8975,0.0,0.0,0.0,0.0,0.0,0.0,-3.0916,-3.2538,-3.3973,-3.5201,-3.62,-3.7369,-3.8521,-3.9513,-4.009,-4.0619,-4.1148,-4.1172,-4.1172,-4.1172,-4.1677,-4.1966,-4.1966,-4.2976,-4.3505,-4.3505,-4.3997,-4.4285,-4.4285,-4.4285,-4.4357,-4.4525,-4.5053,-4.5645,-4.6175,-4.6704,-4.7136,-4.7497,-4.7497,-4.7497,-4.7497,-4.7497,-4.7497,-4.7497,-4.7497,-4.7497,-4.7497,-2.8975,-2.8975,0.0,0.0,0.0,0.0,0.0,0.0,-2.8975,-2.8975,-2.8975,-2.8975,-2.8975,-2.8975,-2.8975,-2.8975,-2.8975,-2.8975,-2.8975,-2.8975,-2.8975,-2.8975,-2.8975,-2.8975,-2.8975,-2.8975,0.0,0.0,0.0,0.0,0.0,0.0,0.0,0.0,-2.8975,-2.8975,-2.8975,-2.8975,-2.8975,-2.8975,-2.8975,-2.9214,-2.9507,-2.9122,-2.8975,-2.903,-2.9415,-2.9305,-2.9048,-2.9415,-2.9305,-2.8975,-2.8975,-2.8975,-2.8975,-2.8975,-2.8975,-2.8975,-2.8975,-2.8975,-2.8975,-2.8975,-2.8975,-2.8975,-2.8975,-2.8975,-2.8975,-2.8975,-2.8975,-2.8975,-2.8975,0.0,0.0,0.0,0.0,0.0,0.0,-3.2878,-3.4035,-3.53,-3.7208,-3.8735,-3.9506,-4.009,-4.0619,-4.1148,-4.1172,-4.1172,-4.1172,-4.1677,-4.1966,-4.1966,-4.2976,-4.3505,-4.3505,-4.3997,-4.4285,-4.4285,-4.4285,-4.4549,-4.5053,-4.5645,-4.6199,-4.6728,-4.7257,-4.7473,-4.7497,-4.7497,-4.7497,-4.7497,-4.7497,-4.7497,-4.7497,-4.7497,-4.7497,-4.7497,0.0,0.0,0.0,0.0,-2.8975,-2.8975,-2.8975,-2.8975,-2.8975,-2.8975,-2.9214,-2.9379,-2.9379,-2.9617,-2.9782,-2.9782,-2.9782,-2.9672,-2.9397,-2.9379,-2.925,-2.8993,-2.8975,-2.8975,-2.8975,-2.8975,-2.8975,0.0,0.0,0.0,0.0,0.0,0.0,0.0,0.0,-2.8975,-2.8975,-2.8975,-2.914,-2.9397,-2.9672,-2.9874,-2.9965,-2.9837,-2.9782,-2.98,-2.9947,-2.9892,-2.98,-2.9947,-2.9892,-2.9782,-2.9782,-2.9782,-2.9782,-2.9782,-2.9599,-2.9379,-2.9379,-2.9177,-2.8975,-2.8975,-2.8975,-2.8975,-2.8975,-2.8975,-2.8975,-2.8975,-2.8975,-2.8975,-2.8975,0.0,0.0,0.0,0.0,0.0,0.0,-3.3819,-3.5717,-3.6989,-3.7577,-3.8323,-3.9458,-3.9777,-4.0234,-4.1124,-4.1172,-4.1341,-4.1677,-4.2265,-4.2639,-4.2976,-4.3697,-4.3997,-4.3997,-4.4189,-4.4285,-4.4285,-4.4285,-4.4573,-4.5101,-4.5694,-4.6223,-4.6752,-4.7281,-4.7497,-4.7497,-4.7497,-4.7497,-4.7497,-4.7497,-4.7497,-4.7497,-4.7497,-4.7497,-4.7545,-2.8975,-2.8975,0.0,-2.8975,-2.8975,-2.8975,-2.8975,-2.8975,-2.903,-2.9177,-2.9415,-2.9635,-2.9782,-3.0039,-3.0204,-3.0204,-3.0204,-3.0094,-2.9819,-2.98,-2.9617,-2.9214,-2.9195,-2.9122,-2.8993,-2.8975,-2.8975,-2.8975,0.0,-2.8975,0.0,0.0,0.0,0.0,0.0,-2.8975,-2.8993,-2.914,-2.9342,-2.9678,-3.0185,-3.0406,-3.0424,-3.0571,-3.0442,-3.0222,-3.0369,-3.0314,-3.0222,-3.0369,-3.0314,-3.0204,-3.0204,-3.0204,-3.0204,-3.0204,-3.0002,-2.98,-2.98,-2.9617,-2.9415,-2.9415,-2.9415,-2.9379,-2.9232,-2.9195,-2.9159,-2.9012,-2.8975,-2.8975,-2.8975,0.0,0.0,0.0,0.0,0.0,0.0,-3.4481,-3.6557,-3.7868,-3.7838,-3.8216,-3.9513,-3.9609,-4.0042,-4.11,-4.1172,-4.1413,-4.1942,-4.253,-4.3,-4.3505,-4.3997,-4.4285,-4.4285,-4.4285,-4.4285,-4.4285,-4.4477,-4.4837,-4.5366,-4.5958,-4.6487,-4.7016,-4.7353,-4.7497,-4.7497,-4.7497,-4.7497,-4.7497,-4.7497,-4.7497,-4.7497,-4.7497,-4.7617,-4.7858,-2.8975,-2.8975,-2.8975,-2.8975,-2.8975,-2.8975,-2.8975,-2.8993,-2.914,-2.9525,-2.9599,-2.9782,-3.0185,-3.0241,-3.0259,-3.0259,-3.0259,-3.0241,-3.0241,-3.0222,-3.0039,-2.9678,-2.9599,-2.9415,-2.9012,-2.9012,-2.9012,-2.8975,-2.8975,0.0,0.0,0.0,0.0,0.0,-2.9012,0.0,-2.903,-2.9434,-2.9617,-2.9751,-3.0497,-3.0809,-3.0864,-3.1231,-3.0919,-3.0314,-3.0681,-3.0571,-3.0314,-3.0699,-3.0571,-3.0259,-3.0259,-3.0259,-3.0259,-3.0259,-3.0241,-3.0222,-3.0222,-3.0222,-3.0204,-3.0204,-3.0204,-3.0094,-2.969,-2.9599,-2.9489,-2.9122,-2.9048,-2.9048,-2.9048,-2.9048,0.0,0.0,0.0,0.0,0.0,-3.4736,-3.6263,-3.7761,-3.7945,-3.8377,-3.9513,-3.9609,-4.0042,-4.11,-4.1172,-4.1437,-4.199,-4.2554,-4.3,-4.3529,-4.3997,-4.4285,-4.4285,-4.4285,-4.4285,-4.4285,-4.4813,-4.5342,-4.5934,-4.6463,-4.6992,-4.7497,-4.7497,-4.7497,-4.7497,-4.7497,-4.7497,-4.7497,-4.7497,-4.7521,-4.7545,-4.7545,-4.7858,-4.8363,-2.8975,-2.8975,-2.8975,-2.8975,-2.8975,-2.8975,-2.8975,-2.9232,-2.9452,-2.9562,-3.0094,-3.0516,-3.0626,-3.0901,-3.1084,-3.1084,-3.1084,-3.0956,-3.0662,-3.0644,-3.0461,-3.0057,-3.0039,-2.9837,-2.9434,-2.9415,-2.9269,-2.8975,-2.8975,0.0,-2.8975,0.0,0.0,0.0,0.0,-2.9415,-2.9452,-2.9874,-3.0204,-3.0516,-3.1029,-3.1231,-3.1231,-3.1341,-3.1249,-3.1084,-3.1194,-3.1157,-3.1084,-3.1194,-3.1157,-3.1084,-3.1084,-3.1084,-3.1084,-3.1084,-3.0864,-3.0644,-3.0644,-3.0424,-3.0204,-3.0204,-3.0204,-3.0167,-3.0057,-3.0039,-3.002,-2.991,-2.9892,-2.9892,-2.9892,-2.9892,0.0,0.0,0.0,0.0,0.0,-3.3508,-3.5035,-3.6503,-3.7014,-3.7888,-3.9426,-3.9609,-4.0042,-4.11,-4.1172,-4.1581,-4.2554,-4.2747,-4.3192,-4.4045,-4.4213,-4.4285,-4.4285,-4.4285,-4.4285,-4.4285,-4.4813,-4.5342,-4.5934,-4.6463,-4.6992,-4.7497,-4.7497,-4.7497,-4.7497,-4.7497,-4.7497,-4.7497,-4.7497,-4.7738,-4.8074,-4.8074,-4.8171,-4.8411,-2.8975,-2.8975,-2.903,-2.9214,-2.9232,-2.9232,-2.9232,-2.958,-2.991,-3.0075,-3.0497,-3.0846,-3.1029,-3.1249,-3.1377,-3.1377,-3.1377,-3.1286,-3.1066,-3.1047,-3.0864,-3.0479,-3.0461,-3.0259,-2.9855,-2.9837,-2.9745,-2.9525,-2.9324,-2.9232,-2.9232,0.0,0.0,0.0,0.0,-2.9562,-2.9678,-3.0204,-3.0681,-3.1066,-3.1286,-3.1377,0.0,-3.1377,-3.1377,-3.1377,-3.1377,-3.1377,-3.1377,-3.1377,-3.1377,-3.1377,-3.1377,-3.1377,-3.1377,-3.1377,-3.1231,-3.1047,-3.1047,-3.0882,-3.0717,-3.0717,-3.0717,-3.0662,-3.0497,-3.0461,-3.0406,-3.0241,-3.0204,-3.0204,-3.0204,-3.0204,-3.0174,0.0,0.0,0.0,-3.2349,-3.3203,-3.4318,-3.5815,-3.6736,-3.7742,-3.8953,-3.9586,-4.0282,-4.1124,-4.1172,-4.1653,-4.2771,-4.2819,-4.3241,-4.4261,-4.4285,-4.4285,-4.4285,-4.4285,-4.4405,-4.4645,-4.5173,-4.5766,-4.6295,-4.6824,-4.7209,-4.7497,-4.7497,-4.7497,-4.7497,-4.7497,-4.7497,-4.7497,-4.7497,-4.7834,-4.8315,-4.8555,-4.8772,-4.906,-2.9048,-2.9067,-2.9195,-2.958,-2.969,-2.9727,-2.9727,-3.0039,-3.0406,-3.0754,-3.0827,-3.0992,-3.1341,-3.1377,-3.1377,-3.1377,-3.1377,-3.1377,-3.1377,-3.1377,-3.1231,-3.0882,-3.0864,-3.0681,-3.0296,-3.0277,-3.0259,-3.0204,-2.9837,-2.9654,0.0,0.0,0.0,0.0,0.0,0.0,0.0,-3.0571,-3.1066,-3.1377,-3.1377,-3.1377,-3.1377,-3.1377,-3.1377,-3.1377,-3.1377,-3.1377,-3.1377,-3.1377,-3.1377,-3.1377,-3.1377,-3.1377,-3.1377,-3.1377,-3.1377,-3.1377,-3.1377,-3.1377,-3.1377,-3.1377,-3.1377,-3.1286,-3.0937,-3.0864,-3.0772,-3.0424,-3.0351,-3.0351,-3.0351,-3.0438,-3.0631,0.0,0.0,-3.1642,-3.3513,-3.3633,-3.4108,-3.5751,-3.7051,0.0,-3.8608,-3.9732,-4.0619,-4.1148,-4.1172,-4.1653,-4.2771,-4.2819,-4.3241,-4.4261,-4.4285,-4.4285,-4.4285,-4.4285,-4.4549,-4.5077,-4.5669,-4.6199,-4.6728,-4.7257,-4.7497,-4.7497,-4.7497,-4.7497,-4.7497,-4.7497,-4.7497,-4.7521,-4.7569,-4.793,-4.8459,-4.8988,-4.9517,-4.9974,-2.9397,-2.947,-2.9599,-3.002,-3.0351,-3.0571,-3.0571,-3.0644,-3.0717,-3.0772,-3.1066,-3.1304,-3.1377,-3.1377,-3.1377,-3.1377,-3.1377,-3.1377,-3.1377,-3.1377,-3.1341,-3.1267,-3.1267,-3.1084,-3.0699,-3.0681,-3.0534,-3.0204,-3.013,-3.0094,-3.0075,0.0,0.0,0.0,0.0,0.0,-3.1066,-3.1212,-3.1322,-3.1377,-3.1377,-3.1377,-3.1377,-3.1377,-3.1377,-3.1377,-3.1377,-3.1377,-3.1377,-3.1377,-3.1377,-3.1377,-3.1377,-3.1377,-3.1377,-3.1377,-3.1377,-3.1377,-3.1377,-3.1377,-3.1377,-3.1377,-3.1377,-3.1359,-3.1286,-3.1267,-3.1249,-3.1176,-3.1176,-3.1176,-3.1176,-3.1829,-3.2451,-3.2721,-3.2507,-3.2995,-3.4891,-3.4244,-3.456,-3.7155,-3.8057,-3.8873,-3.9959,-4.0266,-4.0619,-4.1148,-4.1172,-4.1653,-4.2771,-4.2819,-4.3241,-4.4261,-4.4285,-4.4285,-4.4285,-4.4285,-4.4549,-4.5077,-4.5669,-4.6199,-4.6728,-4.7257,-4.7497,-4.7497,-4.7497,-4.7497,-4.7497,-4.7497,-4.7497,-4.7545,-4.7978,-4.8483,-4.9012,-4.9541,-5.007,-5.0551,-3.0793,-3.0363,-3.0267,-3.1356,-3.1146,-3.0864,-3.1066,-3.172,-3.191,-3.1212,-3.1267,-3.1469,-3.1689,-3.1708,-3.1781,-3.1983,-3.2001,-3.1928,-3.1726,-3.1708,-3.1616,-3.1396,-3.1377,-3.1286,-3.1102,-3.1102,-3.1011,-3.0809,-3.0607,-3.0406,-3.0185,0.0,0.0,0.0,0.0,-3.0827,0.0,-3.1377,-3.1377,-3.1377,-3.1377,-3.1506,-3.1708,-3.1708,-3.1836,-3.2001,-3.2001,-3.2001,-3.1946,-3.1524,-3.1377,-3.1377,-3.1377,-3.1377,-3.1377,-3.1377,-3.1377,-3.1377,-3.1377,-3.1377,-3.1377,-3.1377,-3.1377,-3.1377,-3.1377,-3.1377,-3.1377,-3.1377,-3.1377,-3.1442,-3.1653,-3.2061,-3.2478,-3.2941,-3.291,-3.3144,-3.4268,-3.3861,-3.4289,-3.6313,-3.7362,-3.8403,-3.965,-4.0445,-4.0908,-4.1172,-4.1172,-4.1653,-4.2771,-4.2819,-4.3241,-4.4261,-4.4285,-4.4285,-4.4285,-4.4549,-4.4957,-4.5486,-4.6078,-4.6607,-4.7136,-4.7377,-4.7497,-4.7497,-4.7497,-4.7497,-4.7497,-4.7497,-4.7497,-4.7545,-4.8074,-4.8603,-4.9133,-4.9662,-5.0215,-5.0696,-3.2146,-3.147,-3.1232,-3.2688,-3.2017,-3.1582,-3.2136,-3.3126,-3.3253,-3.1635,-3.1709,-3.194,-3.1964,-3.2074,-3.2258,-3.257,-3.2588,-3.2459,-3.2148,-3.2056,-3.1854,-3.1524,-3.1433,-3.1377,-3.1377,-3.1377,-3.1377,-3.1377,-3.1066,-3.0717,-3.0314,0.0,0.0,0.0,0.0,-3.1084,-3.1377,-3.1469,-3.1506,-3.1524,-3.1598,-3.1836,-3.2129,-3.2129,-3.2331,-3.2588,-3.2588,-3.2551,-3.2368,-3.1726,-3.1506,-3.1506,-3.1396,-3.1377,-3.1377,-3.1377,-3.1377,-3.1377,-3.1377,-3.1377,-3.1377,-3.1377,-3.1377,-3.1377,-3.1377,-3.1377,-3.1377,-3.1377,-3.1442,-3.157,-3.191,-3.223,-3.2721,-3.3587,-3.3713,-3.4027,-3.4943,-3.4819,-3.5129,-3.646,-3.7402,-3.8394,-3.9533,-4.0476,-4.1076,-4.1172,-4.1293,-4.1774,-4.2771,-4.2856,-4.3361,-4.4261,-4.4285,-4.4285,-4.4285,-4.4813,-4.5342,-4.5934,-4.6463,-4.6992,-4.7497,-4.7497,-4.7497,-4.7497,-4.7497,-4.7497,-4.7497,-4.7497,-4.7569,-4.7714,-4.8243,-4.8772,-4.9325,-4.9854,-5.0335,-5.0696,-3.2844,-3.2633,-3.2708,-3.3242,-3.3257,-3.3591,-3.4819,-3.5129,-3.432,-3.1744,-3.277,-3.334,-3.2132,-3.2331,-3.2551,-3.2588,-3.2588,-3.257,-3.2551,-3.2203,-3.1983,-3.1946,-3.1579,-3.1377,-3.1377,-3.1377,-3.1377,-3.1377,-3.1341,-3.1121,-3.0736,-3.0699,-3.0681,-3.0699,-3.1121,-3.1341,-3.1396,-3.1781,-3.1946,-3.1983,-3.2331,-3.2496,-3.2533,-3.2533,-3.257,-3.2588,-3.2588,-3.2368,-3.2056,-3.1983,-3.1946,-3.1873,-3.1506,-3.1377,-3.1377,-3.1377,-3.1377,-3.1377,-3.1377,-3.1377,-3.1377,-3.1377,-3.1377,-3.1377,-3.1377,-3.1377,-3.1377,-3.1377,-3.1653,-3.1974,-3.2294,-3.3335,-3.4674,-3.6194,-3.646,-3.7391,-4.0083,-3.9416,-3.9157,-4.0513,-4.034,-4.0359,-4.0952,-4.0682,-4.0667,-4.1148,-4.1629,-4.2158,-4.2795,-4.3192,-4.3721,-4.4261,-4.4285,-4.4285,-4.4285,-4.4813,-4.5342,-4.5934,-4.6463,-4.6992,-4.7497,-4.7497,-4.7497,-4.7497,-4.7497,-4.7497,-4.7497,-4.7497,-4.7786,-4.8267,-4.8796,-4.9325,-4.9854,-5.0431,-5.0648,-5.0696,-3.4266,-3.4369,-3.4656,-3.556,-3.5108,-3.4757,-3.5314,-3.6347,-3.6019,-3.3303,-3.3585,-3.37,-3.2814,-3.2881,-3.3065,-3.3303,-3.3321,-3.323,-3.2991,-3.2826,-3.2625,-3.2368,-3.1964,-3.1763,-3.1763,-3.1506,-3.1377,-3.1377,-3.1377,-3.1176,-3.0791,-3.0791,-3.0791,-3.0809,-3.1469,-3.1763,-3.1781,-3.2184,-3.2368,-3.2368,-3.2533,-3.2753,-3.2973,-3.2973,-3.312,-3.3303,-3.3065,-3.2863,-3.2661,-3.2166,-3.1836,-3.1598,-3.1433,-3.1377,-3.1377,-3.1377,-3.1377,-3.1377,-3.1377,-3.1377,-3.1377,-3.1377,-3.1377,-3.1377,-3.1377,-3.1377,-3.1377,-3.1377,-3.1506,-3.1782,-3.2294,-3.3059,-3.398,-3.5037,-3.5387,-3.593,-3.7105,-3.6855,-3.698,-3.8345,-3.9046,-3.9785,-4.0795,-4.1163,-4.1557,-4.2145,-4.2038,-4.2265,-4.2795,-4.3241,-4.377,-4.4261,-4.4285,-4.4429,-4.4765,-4.5293,-4.5886,-4.6415,-4.6944,-4.7305,-4.7497,-4.7497,-4.7497,-4.7497,-4.7497,-4.7497,-4.7497,-4.7497,-4.781,-4.8339,-4.8868,-4.9397,-4.9926,-5.0503,-5.0696,-5.0696,-3.5848,-3.5971,-3.6215,-3.7127,-3.6581,-3.6156,-3.6713,-3.7833,-3.7953,-3.5881,-3.5601,-3.5001,-3.336,-3.3321,-3.3505,-3.378,-3.3817,-3.3688,-3.3413,-3.3285,-3.3101,-3.279,-3.2404,-3.2184,-3.2184,-3.1891,-3.1744,-3.1744,-3.1616,-3.1359,-3.0956,-3.0956,-3.1084,-3.1341,-3.1928,-3.2184,-3.2203,-3.2606,-3.2771,-3.279,-3.29,-3.3138,-3.3395,-3.3395,-3.3578,-3.3762,-3.3358,-3.3138,-3.2936,-3.2239,-3.1726,-3.1377,-3.1377,-3.1377,-3.1377,-3.1377,-3.1377,-3.1377,-3.1377,-3.1377,-3.1377,-3.1377,-3.1377,-3.1377,-3.1377,-3.1377,-3.1442,-3.1506,-3.1635,-3.1891,-3.2422,-3.2925,-3.3502,-3.4314,-3.4799,-3.5206,-3.5574,-3.6126,-3.685,-3.772,-3.8909,-4.0121,-4.1219,-4.1721,-4.2182,-4.2771,-4.2543,-4.2591,-4.2952,-4.3481,-4.3938,-4.4261,-4.4429,-4.4693,-4.5077,-4.5814,-4.6343,-4.6728,-4.7257,-4.7497,-4.7497,-4.7497,-4.7497,-4.7497,-4.7497,-4.7497,-4.7521,-4.7666,-4.805,-4.8579,-4.9109,-4.9638,-5.0167,-5.0551,-5.0696,-5.0696,-3.755,-3.7309,-3.7309,-3.7309,-3.7309,-3.7907,-3.9771,-4.0043,-3.9901,-3.9404,-3.9343,-3.7775,-3.3619,-3.3578,-3.3798,-3.3817,-3.3817,-3.3817,-3.3798,-3.3431,-3.323,-3.3211,-3.2808,-3.2588,-3.2588,-3.2588,-3.2588,-3.2588,-3.2184,-3.1781,-3.1377,-3.1377,-3.1799,-3.257,-3.2588,-3.2588,-3.2625,-3.3028,-3.3211,-3.3248,-3.3651,-3.3798,-3.3798,-3.3798,-3.3817,-3.3762,-3.3358,-3.2955,-3.2551,-3.2148,-3.1726,-3.1377,-3.1377,-3.1377,-3.1377,-3.1377,-3.1377,-3.1377,-3.1377,-3.1377,-3.1377,-3.1377,-3.1377,-3.1377,-3.1377,-3.1377,-3.1506,-3.1846,-3.2166,-3.2485,-3.2867,-3.3184,-3.3859,-3.5149,-3.5686,-3.6415,-3.77,-3.9472,-4.0609,-4.067,-4.1424,-4.2182,-4.2711,-4.2279,-4.2182,-4.2771,-4.3216,-4.3505,-4.3505,-4.3973,-4.4285,-4.4285,-4.4789,-4.5053,-4.5077,-4.6175,-4.6704,-4.6728,-4.7257,-4.7497,-4.7497,-4.7497,-4.7497,-4.7497,-4.7497,-4.7497,-4.7545,-4.805,-4.8603,-4.9109,-4.9662,-5.0191,-5.0696,-5.0696,-5.0696,-5.0696,-3.7369,-3.8052,-3.867,-3.867,-3.8964,-3.9416,-4.002,-4.0701,-4.0694,-3.9577,-3.9713,-3.8716,-3.5423,-3.5131,-3.5207,-3.5207,-3.4352,-3.3817,-3.3817,-3.3688,-3.3633,-3.3633,-3.323,-3.3028,-3.3028,-3.2735,-3.2588,-3.2588,-3.2459,-3.2331,-3.2203,-3.2203,-3.2349,-3.2606,-3.29,-3.3028,-3.3046,-3.345,-3.3633,-3.3633,-3.3762,-3.3817,-3.3817,-3.3817,-3.3817,-3.3762,-3.3358,-3.3138,-3.2955,-3.2551,-3.2148,-3.1799,-3.1799,-3.1616,-3.1377,-3.1377,-3.1377,-3.1377,-3.1377,-3.1377,-3.1377,-3.1377,-3.1377,-3.1377,-3.1377,-3.1589,-3.1782,-3.1864,-3.2392,-3.2986,-3.329,-3.3965,-3.4923,-3.6591,-3.7156,-3.7903,-3.9301,-3.9966,-4.0373,-4.0373,-4.1462,-4.2273,-4.2436,-4.279,-4.3241,-4.3794,-4.3625,-4.3505,-4.3505,-4.3973,-4.4285,-4.4285,-4.4789,-4.5309,-4.5669,-4.6367,-4.6896,-4.7257,-4.7425,-4.7497,-4.7497,-4.7497,-4.7497,-4.7497,-4.7497,-4.7497,-4.7545,-4.8074,-4.8603,-4.9133,-4.9662,-5.0215,-5.0696,-5.0696,-5.0696,-5.0696,-3.8052,-3.8888,-3.9584,-3.9584,-3.9997,-4.041,-4.0655,-4.123,-4.1314,-4.0587,-4.0813,-4.0279,-3.8465,-3.7801,-3.6884,-3.5275,-3.4283,-3.3817,-3.3817,-3.3817,-3.3817,-3.3817,-3.3578,-3.345,-3.345,-3.3193,-3.3046,-3.3046,-3.29,-3.2826,-3.2826,-3.2826,-3.2918,-3.3065,-3.3321,-3.345,-3.3468,-3.3707,-3.3817,-3.3817,-3.3817,-3.3817,-3.3817,-3.3817,-3.3817,-3.3762,-3.3358,-3.323,-3.3156,-3.2735,-3.2423,-3.2221,-3.2221,-3.2056,-3.1781,-3.1469,-3.1377,-3.1377,-3.1377,-3.1377,-3.1377,-3.1377,-3.1506,-3.1717,-3.1995,-3.2728,-3.3373,-3.3373,-3.4275,-3.516,-3.5352,-3.5925,-3.6766,-3.7867,-3.8377,-3.8935,-3.9779,-4.0535,-4.0991,-4.0991,-4.2229,-4.3051,-4.3051,-4.3517,-4.3962,-4.4261,-4.3949,-4.3914,-4.4106,-4.4213,-4.4381,-4.4573,-4.5101,-4.5694,-4.6223,-4.6752,-4.7185,-4.7497,-4.7497,-4.7497,-4.7497,-4.7497,-4.7497,-4.7497,-4.7497,-4.7617,-4.7834,-4.8363,-4.8892,-4.9421,-4.9974,-5.0383,-5.0696,-5.0696,-5.0696,-5.0696,-3.94,-3.979,-4.0172,-4.0172,-4.0525,-4.103,-4.1489,-4.1604,-4.1788,-4.2206,-4.2275,-4.2275,-4.2148,-4.0991,-3.8531,-3.449,-3.4006,-3.3955,-3.3955,-3.3886,-3.3817,-3.3937,-3.3886,-3.3817,-3.3817,-3.3817,-3.3817,-3.3817,-3.345,-3.3266,-3.3266,-3.3266,-3.3468,-3.3817,-3.3817,-3.3817,-3.3817,-3.3817,-3.3817,-3.3817,-3.3817,-3.3817,-3.3817,-3.3817,-3.3817,-3.3762,-3.3395,-3.3266,-3.3211,-3.2808,-3.2661,-3.2643,-3.2643,-3.2625,-3.2441,-3.1689,-3.1469,-3.1469,-3.1469,-3.1469,-3.1469,-3.1534,-3.1828,-3.228,-3.3047,-3.4602,-3.58,-3.58,-3.7233,-3.8458,-3.8458,-3.8731,-3.9026,-3.9151,-3.944,-3.9726,-3.979,-4.1316,-4.242,-4.242,-4.3514,-4.4285,-4.4285,-4.4285,-4.4309,-4.4333,-4.4333,-4.4573,-4.5101,-4.4669,-4.4621,-4.5101,-4.5694,-4.6223,-4.6704,-4.7233,-4.7497,-4.7497,-4.7497,-4.7497,-4.7497,-4.7497,-4.7497,-4.7497,-4.7545,-4.7834,-4.8339,-4.8892,-4.9421,-4.9926,-5.0479,-5.0696,-5.0696,-5.0696,-5.0696,-5.0696,-4.0456,-4.0548,-4.064,-4.064,-4.1053,-4.1443,-4.1558,-4.1903,-4.2201,-4.2252,-4.2275,-4.187,-4.0797,-4.0409,-3.9343,-3.7266,-3.6073,-3.5412,-3.5412,-3.4421,-3.4283,-3.5344,-3.4352,-3.3817,-3.3817,-3.3817,-3.3817,-3.3817,-3.3725,-3.367,-3.367,-3.367,-3.3725,-3.3817,-3.3817,-3.3817,-3.3817,-3.3817,-3.3817,-3.3817,-3.3817,-3.3817,-3.3817,-3.3817,-3.3817,-3.3798,-3.3707,-3.367,-3.3651,-3.356,-3.3321,-3.3083,-3.3083,-3.2845,-3.2551,-3.2368,-3.2313,-3.2313,-3.2313,-3.2313,-3.2379,-3.271,-3.3049,-3.3341,-3.3567,-3.493,-3.6187,-3.6187,-3.7805,-3.9211,-3.9253,-3.958,-4.0228,-4.1334,-4.1575,-4.196,-4.3052,-4.3544,-4.3826,-4.3826,-4.4099,-4.4285,-4.4285,-4.4285,-4.4453,-4.4861,-4.4885,-4.5125,-4.5718,-4.5621,-4.5597,-4.5742,-4.6247,-4.6583,-4.6704,-4.7233,-4.7497,-4.7497,-4.7497,-4.7497,-4.7497,-4.7497,-4.7497,-4.7521,-4.793,-4.8171,-4.8363,-4.9301,-4.9758,-4.9926,-5.0479,-5.0696,-5.0696,-5.0696,-5.0696,-5.0696,-4.0823,-4.1007,-4.1168,-4.1168,-4.1581,-4.1926,-4.1926,-4.2155,-4.2275,-4.2275,-4.2275,-4.1998,-4.1271,-4.1142,-4.0603,-3.919,-3.7734,-3.6884,-3.6884,-3.5549,-3.5089,-3.5889,-3.454,-3.3817,-3.3817,-3.3817,-3.3817,-3.3817,-3.3817,-3.3817,-3.3817,-3.3817,-3.3817,-3.3817,-3.3817,-3.3817,-3.3817,-3.3817,-3.3817,-3.3817,-3.3817,-3.3817,-3.3817,-3.3817,-3.3817,-3.3817,-3.3817,-3.3817,-3.3817,-3.3817,-3.367,-3.3486,-3.3486,-3.334,-3.3156,-3.3156,-3.2881,-3.2588,-3.2588,-3.2721,-3.2977,-3.3565,-3.445,-3.5198,-3.5414,-3.7343,-3.9065,-3.9065,-4.0453,-4.1731,-4.1708,-4.1874,-4.2333,-4.3051,-4.32,-4.3451,-4.4223,-4.4285,-4.4285,-4.4285,-4.4285,-4.4381,-4.4621,-4.4645,-4.4861,-4.5453,-4.5501,-4.5718,-4.6247,-4.6295,-4.6295,-4.6295,-4.6559,-4.6824,-4.7064,-4.7353,-4.7497,-4.7497,-4.7497,-4.7497,-4.7497,-4.7497,-4.7497,-4.7521,-4.805,-4.8435,-4.8724,-4.9517,-5.0022,-5.0287,-5.0576,-5.0696,-5.0696,-5.0696,-5.0696,-5.0696,-4.1053,-4.1397,-4.1696,-4.1696,-4.204,-4.2275,-4.2275,-4.2275,-4.2275,-4.2275,-4.2275,-4.2275,-4.2275,-4.2275,-4.1806,-4.0603,-3.9408,-3.8531,-3.8134,-3.6749,-3.5889,-3.5889,-3.454,-3.3817,-3.3817,-3.3817,-3.3817,-3.3817,-3.3817,-3.3817,-3.3817,-3.3817,-3.3817,-3.3817,-3.3817,-3.3817,-3.3817,-3.3817,-3.3817,-3.3817,-3.3817,-3.3817,-3.3817,-3.3817,-3.3817,-3.3817,-3.3817,-3.3817,-3.3817,-3.3817,-3.3817,-3.3817,-3.3817,-3.3817,-3.3817,-3.3817,-3.3321,-3.2771,-3.2771,-3.3125,-3.3602,-3.421,-3.5611,-3.6867,-3.7206,-3.9518,-4.1697,-4.1952,-4.3051,-4.4037,-4.4285,-4.4285,-4.4285,-4.4285,-4.4285,-4.4285,-4.4285,-4.4285,-4.4309,-4.4405,-4.4405,-4.4621,-4.5149,-4.5197,-4.5414,-4.6006,-4.6054,-4.6271,-4.68,-4.6824,-4.6824,-4.6824,-4.6824,-4.704,-4.7497,-4.7497,-4.7497,-4.7497,-4.7497,-4.7497,-4.7497,-4.7497,-4.7545,-4.7642,-4.8171,-4.87,-4.9229,-4.9782,-5.0287,-5.0696,-5.0696,-5.0696,-5.0696,-5.0696,-5.0696,-5.0696,-4.2109,-4.2092,-4.2224,-4.2224,-4.2229,-4.2275,-4.2275,-4.2275,-4.2275,-4.2275,-4.2275,-4.2275,-4.2275,-4.2275,-4.2212,-4.1998,-4.1742,-4.0668,-3.8266,-3.6749,-3.5889,-3.5889,-3.454,-3.3817,-3.3817,-3.3817,-3.3817,-3.3817,-3.3817,-3.3817,-3.3817,-3.3817,-3.3817,-3.3817,-3.3817,-3.3817,-3.3817,-3.3817,-3.3817,-3.3817,-3.3817,-3.3817,-3.3817,-3.3817,-3.3817,-3.3817,-3.3817,-3.3817,-3.3817,-3.3817,-3.3817,-3.3817,-3.3817,-3.3817,-3.3817,-3.3817,-3.3725,-3.3615,-3.3615,-3.4097,-3.4664,-3.4808,-3.5491,-3.6189,-3.62,-3.7528,-3.9101,-4.0257,-4.1633,-4.2925,-4.4099,-4.4285,-4.4285,-4.4285,-4.4285,-4.4285,-4.4285,-4.4285,-4.4453,-4.4909,-4.4957,-4.5149,-4.5742,-4.579,-4.603,-4.6559,-4.6583,-4.6824,-4.7353,-4.7377,-4.7377,-4.7377,-4.7377,-4.7425,-4.7497,-4.7497,-4.7497,-4.7497,-4.7497,-4.7497,-4.7497,-4.7497,-4.7738,-4.8195,-4.8724,-4.9253,-4.9782,-5.0335,-5.0624,-5.0696,-5.0696,-5.0696,-5.0696,-5.0696,-5.0696,-5.0696,-4.2275,-4.2275,-4.2275,-4.2275,-4.2275,-4.2275,-4.2275,-4.2275,-4.2275,-4.2275,-4.2275,-4.2275,-4.2275,-4.2275,-4.2275,-4.2275,-4.2275,-4.1399,-3.9408,-3.7868,-3.6749,-3.5957,-3.454,-3.3817,-3.3817,-3.3817,-3.3817,-3.3817,-3.3817,-3.3817,-3.3817,-3.3817,-3.3817,-3.3817,-3.3817,-3.3817,-3.3817,-3.3817,-3.3817,-3.3817,-3.3817,-3.3817,-3.3817,-3.3817,-3.3817,-3.3817,-3.3817,-3.3817,-3.3817,-3.3817,-3.3817,-3.3817,-3.3817,-3.3817,-3.3817,-3.4094,-3.3955,-3.3886,-3.4301,-3.4646,-3.499,-3.5401,-3.6336,-3.7126,-3.7126,-3.8838,-4.0538,-4.1184,-4.242,-4.3576,-4.4161,-4.4285,-4.4285,-4.4285,-4.4285,-4.4381,-4.4669,-4.4717,-4.4909,-4.5501,-4.5549,-4.5766,-4.6295,-4.6343,-4.6559,-4.7088,-4.7136,-4.7233,-4.7497,-4.7497,-4.7497,-4.7497,-4.7497,-4.7497,-4.7497,-4.7497,-4.7497,-4.7497,-4.7497,-4.7497,-4.7521,-4.7786,-4.805,-4.8339,-4.9157,-4.9638,-4.9902,-5.0479,-5.0696,-5.0696,-5.0696,-5.0696,-5.0696,-5.0696,-5.0696,-5.0696,-4.2275,-4.2275,-4.2275,-4.2275,-4.2275,-4.2275,-4.2275,-4.2275,-4.2275,-4.2275,-4.2275,-4.2275,-4.2275,-4.2275,-4.2275,-4.2275,-4.2275,-4.1678,-4.0257,-3.8861,-3.7467,-3.5957,-3.454,-3.3817,-3.3817,-3.3817,-3.3817,-3.3817,-3.3817,-3.3817,-3.3817,-3.3817,-3.3853,-3.3945,-3.3945,-3.4,-3.4092,-3.4092,-3.4092,-3.4092,-3.4092,-3.4092,-3.4092,-3.4092,-3.4037,-3.3945,-3.3945,-3.389,-3.3817,-3.3817,-3.3817,-3.3817,-3.3886,-3.3955,-3.4024,-3.437,-3.4301,-3.4163,-3.4784,-3.499,-3.5196,-3.5743,-3.6742,-3.7729,-3.8042,-3.9736,-4.1505,-4.2166,-4.3137,-4.3912,-4.4223,-4.4285,-4.4285,-4.4285,-4.4381,-4.4621,-4.5005,-4.5237,-4.5438,-4.6054,-4.6102,-4.6319,-4.6848,-4.6896,-4.7064,-4.7473,-4.7497,-4.7497,-4.7497,-4.7497,-4.7497,-4.7497,-4.7497,-4.7497,-4.7497,-4.7497,-4.7497,-4.7497,-4.7497,-4.7569,-4.769,-4.8098,-4.8435,-4.87,-4.9517,-4.995,-5.0095,-5.0527,-5.0696,-5.0696,-5.0696,-5.0696,-5.0696,-5.0696,-5.0696,-5.0696,-4.2275,-4.2275,-4.2275,-4.2275,-4.2275,-4.2275,-4.2275,-4.2275,-4.2275,-4.2275,-4.2275,-4.2275,-4.2275,-4.2275,-4.2275,-4.2275,-4.2275,-4.1678,-4.0257,-3.8861,-3.7467,-3.5957,-3.454,-3.3817,-3.3817,-3.3817,-3.3817,-3.3817,-3.3817,-3.3817,-3.3817,-3.3817,-3.4,-3.4367,-3.4367,-3.4568,-3.4935,-3.4935,-3.4935,-3.4935,-3.4935,-3.4935,-3.4935,-3.4935,-3.4697,-3.4367,-3.4367,-3.4128,-3.3817,-3.3817,-3.3817,-3.3886,-3.4232,-3.437,-3.4439,-3.4784,-3.4853,-3.4853,-3.4921,-3.5196,-3.547,-3.5557,-3.5811,-3.6471,-3.7775,-3.8242,-3.9146,-4.1761,-4.2356,-4.2799,-4.4099,-4.4285,-4.4285,-4.4285,-4.4693,-4.5029,-4.5053,-4.5549,-4.6054,-4.6583,-4.6655,-4.6872,-4.7401,-4.7449,-4.7473,-4.7497,-4.7497,-4.7497,-4.7497,-4.7497,-4.7497,-4.7497,-4.7497,-4.7497,-4.7497,-4.7497,-4.7497,-4.7497,-4.7497,-4.7762,-4.8243,-4.8267,-4.882,-4.9758,-4.983,-5.0167,-5.0648,-5.0696,-5.0696,-5.0696,-5.0696,-5.0696,-5.0696,-5.0696,-5.0696,-5.0696,-4.2275,-4.2275,-4.2275,-4.2275,-4.2275,-4.2275,-4.2275,-4.2275,-4.2275,-4.2275,-4.2275,-4.2275,-4.2275,-4.2275,-4.2275,-4.2275,-4.2275,-4.2061,-4.1527,-4.0192,-3.7934,-3.4746,-3.4075,-3.3817,-3.3817,-3.3817,-3.3817,-3.3817,-3.4055,-3.4183,-3.4183,-3.444,-3.4642,-3.4788,-3.4788,-3.488,-3.5027,-3.5027,-3.5027,-3.5027,-3.5027,-3.5027,-3.5027,-3.5027,-3.4935,-3.4752,-3.4495,-3.4312,-3.4147,-3.4168,-3.4163,-3.4232,-3.4577,-3.4715,-3.4784,-3.5127,-3.5401,-3.5606,-3.5606,-3.5538,-3.5743,-3.6856,-3.7193,-3.7662,-3.9101,-4.0062,-4.0991,-4.2102,-4.2925,-4.3701,-4.4223,-4.4549,-4.4765,-4.4765,-4.5285,-4.5742,-4.6078,-4.6295,-4.6607,-4.7136,-4.7209,-4.7281,-4.7473,-4.7497,-4.7497,-4.7497,-4.7497,-4.7497,-4.7497,-4.7497,-4.7497,-4.7497,-4.7497,-4.7497,-4.7497,-4.7497,-4.7666,-4.8002,-4.8002,-4.8267,-4.8796,-4.9109,-4.9493,-4.9878,-5.0239,-5.0503,-5.0696,-5.0696,-5.0696,-5.0696,-5.0696,-5.0696,-5.0696,-5.0696,-5.0696,-5.0696,-4.2275,-4.2275,-4.2275,-4.2275,-4.2275,-4.2275,-4.2275,-4.2275,-4.2275,-4.2275,-4.2275,-4.2275,-4.2275,-4.2275,-4.2275,-4.2275,-4.2275,-4.2275,-4.2275,-4.0603,-3.8001,-3.4609,-3.4006,-3.3872,-3.4,-3.4,-3.4055,-3.4202,-3.4458,-3.4605,-3.4605,-3.4899,-3.51,-3.521,-3.521,-3.5284,-3.5394,-3.5394,-3.5394,-3.5394,-3.5394,-3.5394,-3.5394,-3.5394,-3.5393,-3.5318,-3.5042,-3.4907,-3.4789,-3.4808,-3.469,-3.4646,-3.499,-3.5196,-3.5333,-3.5538,-3.5811,-3.6016,-3.6016,-3.6152,-3.6606,-3.7775,-3.8109,-3.8573,-4.0452,-4.1633,-4.242,-4.2862,-4.3781,-4.4525,-4.4525,-4.4957,-4.5381,-4.5381,-4.5838,-4.6295,-4.6655,-4.6848,-4.7088,-4.7473,-4.7497,-4.7497,-4.7497,-4.7497,-4.7497,-4.7497,-4.7497,-4.7497,-4.7497,-4.7497,-4.7497,-4.7497,-4.7666,-4.7738,-4.7738,-4.7738,-4.793,-4.8291,-4.8459,-4.882,-4.9325,-4.971,-4.9974,-5.0143,-5.0359,-5.0551,-5.0696,-5.0503,-5.0551,-5.0696,-5.0696,-5.0696,-5.0696,-5.0696,-5.0696,-5.0696,-4.2275,-4.2275,-4.2275,-4.2275,-4.2275,-4.2275,-4.2275,-4.2275,-4.2275,-4.2275,-4.2275,-4.2275,-4.2275,-4.2275,-4.2275,-4.2275,-4.2275,-4.2275,-4.2275,-3.967,-3.7488,-3.5957,-3.4558,-3.4,-3.4403,-3.4403,-3.4605,-3.5027,-3.5027,-3.5027,-3.5027,-3.5045,-3.5247,-3.5632,-3.5632,-3.5852,-3.6201,-3.6201,-3.6201,-3.6201,-3.6201,-3.6201,-3.6201,-3.6201,-3.6183,-3.6216,-3.6216,-3.598,-3.5635,-3.5616,-3.5281,-3.499,-3.5401,-3.5743,-3.6016,-3.6016,-3.6016,-3.6016,-3.6016,-3.7079,-3.8109,-3.8109,-3.8109,-3.8904,-4.1697,-4.2293,-4.2673,-4.4037,-4.4717,-4.5077,-4.5077,-4.551,-4.5934,-4.5934,-4.6367,-4.6728,-4.6728,-4.7161,-4.7497,-4.7497,-4.7497,-4.7497,-4.7497,-4.7497,-4.7497,-4.7497,-4.7497,-4.7497,-4.7497,-4.7497,-4.7497,-4.7521,-4.8002,-4.8291,-4.8291,-4.8291,-4.8291,-4.8315,-4.8844,-4.9373,-4.9948,-4.9948,-5.0167,-5.0672,-5.0119,-5.0191,-5.0648,-5.0095,-5.0191,-5.0696,-5.0696,-5.0696,-5.0696,-5.0696,-5.0696,-5.0696,-4.2275,-4.2275,-4.2275,-4.2275,-4.2275,-4.2275,-4.2275,-4.2275,-4.2275,-4.2275,-4.2275,-4.2275,-4.2275,-4.2275,-4.2275,-4.2275,-4.2275,-4.2029,-4.1415,-4.0628,-3.916,-3.6955,-3.5191,-3.4422,-3.4825,-3.4844,-3.4899,-3.5027,-3.5302,-3.5449,-3.5449,-3.5724,-3.5925,-3.6036,-3.6036,-3.6091,-3.6201,-3.6201,-3.6201,-3.6201,-3.6201,-3.6201,-3.6201,-3.6201,-3.6368,-3.6588,-3.6309,-3.6337,-3.6432,-3.6412,-3.6119,-3.5716,-3.584,-3.5947,-3.6016,-3.6016,-3.6016,-3.6219,-3.7193,-3.7775,-3.8308,-3.9343,-4.0322,-4.1505,-4.3326,-4.3701,-4.3945,-4.4702,-4.4957,-4.5261,-4.5621,-4.6126,-4.6487,-4.6487,-4.692,-4.7257,-4.7257,-4.7401,-4.7497,-4.7497,-4.7497,-4.7497,-4.7497,-4.7497,-4.7497,-4.7497,-4.7497,-4.7497,-4.7497,-4.7497,-4.7666,-4.805,-4.8219,-4.8459,-4.8844,-4.8844,-4.9036,-4.9397,-4.9565,-4.9926,-5.0455,-5.0455,-5.0335,-5.0119,-5.0359,-5.0335,-5.0143,-5.0359,-5.0551,-5.0696,-5.0696,-5.0696,-5.0696,-5.0696,-5.0696,-5.0696,-4.2275,-4.2275,-4.2275,-4.2275,-4.2275,-4.2275,-4.2275,-4.2275,-4.2275,-4.2275,-4.2275,-4.2275,-4.2275,-4.2275,-4.2275,-4.2275,-4.2522,-4.224,-4.1308,-4.1263,-4.0451,-3.8567,-3.6752,-3.5635,-3.5265,-3.5265,-3.5339,-3.5504,-3.5742,-3.5852,-3.5852,-3.6091,-3.6201,-3.6201,-3.6201,-3.6201,-3.6201,-3.6201,-3.6201,-3.6201,-3.6201,-3.6201,-3.6201,-3.6201,-3.659,-3.6996,-3.6752,-3.6929,-3.7225,-3.719,-3.6797,-3.6344,-3.6279,-3.6152,-3.6016,-3.6016,-3.6016,-3.6287,-3.7709,-3.8507,-3.9277,-4.0668,-4.1697,-4.2673,-4.395,-4.4285,-4.4429,-4.4957,-4.5245,-4.5597,-4.615,-4.6655,-4.7016,-4.7016,-4.7305,-4.7497,-4.7497,-4.7497,-4.7497,-4.7497,-4.7497,-4.7497,-4.7497,-4.7497,-4.7497,-4.7497,-4.7497,-4.7497,-4.7497,-4.769,-4.7954,-4.8291,-4.87,-4.906,-4.9373,-4.9614,-4.9782,-4.9878,-5.0095,-5.0383,-5.0696,-5.0479,-5.0191,-4.9948,-4.9998,-4.9998,-4.9972,-5.0239,-5.0503,-5.0696,-5.0696,-5.0696,-5.0696,-5.0696,-5.0696,-5.0696,-4.2275,-4.2275,-4.2275,-4.2275,-4.2275,-4.2275,-4.2275,-4.2275,-4.2275,-4.2275,-4.2275,-4.2275,-4.2275,-4.2275,-4.2298,-4.2408,-4.2867,-4.2827,-4.2014,-4.199,-4.1488,-4.0487,-3.8979,-3.7446,-3.5888,-3.5742,-3.5852,-3.6201,-3.6201,-3.6201,-3.6201,-3.6201,-3.6201,-3.6201,-3.6201,-3.6201,-3.6201,-3.6201,-3.6201,-3.6201,-3.6201,-3.6201,-3.6275,-3.6238,-3.6682,-3.7419,-3.7381,-3.7552,-3.7851,-3.7832,-3.7305,-3.666,-3.6621,-3.6348,-3.6016,-3.6016,-3.6016,-3.6355,-3.7842,-3.9212,-4.0581,-4.2102,-4.2506,-4.2869,-4.4084,-4.4357,-4.4525,-4.5101,-4.5645,-4.615,-4.668,-4.7185,-4.7497,-4.7497,-4.7497,-4.7497,-4.7497,-4.7497,-4.7497,-4.7497,-4.7497,-4.7497,-4.7497,-4.7497,-4.7497,-4.7497,-4.7545,-4.7569,-4.7569,-4.8074,-4.8387,-4.8435,-4.9373,-4.9878,-4.995,-5.0407,-5.0407,-4.995,-5.0407,-5.0624,-5.06,-5.0046,-4.9806,-4.9782,-4.9325,-4.9421,-4.9878,-4.9926,-5.0239,-5.0696,-5.0696,-5.0696,-5.0696,-5.0696,-5.0696,-5.0696,-4.2275,-4.2275,-4.2275,-4.2275,-4.2275,-4.2275,-4.2275,-4.2275,-4.2275,-4.2275,-4.2275,-4.2275,-4.2275,-4.2275,-4.25,-4.289,-4.3372,-4.3745,-4.3982,-4.396,-4.3556,-4.2483,-4.1009,-3.9441,-3.787,-3.6663,-3.6127,-3.6201,-3.6201,-3.6201,-3.6201,-3.6201,-3.6201,-3.6201,-3.6201,-3.6201,-3.6201,-3.6201,-3.6201,-3.6201,-3.6201,-3.6367,-3.6627,-3.6311,-3.6692,-3.7379,-3.6962,-3.7074,-3.7383,-3.7051,-3.6816,-3.6621,-3.6269,-3.6094,-3.6016,-3.6016,-3.6016,-3.6539,-3.9101,-3.9932,-4.0775,-4.324,-4.4198,-4.457,-4.4846,-4.4909,-4.5173,-4.6175,-4.6463,-4.6704,-4.7233,-4.7425,-4.7497,-4.7497,-4.7497,-4.7497,-4.7497,-4.7497,-4.7497,-4.7497,-4.7497,-4.7497,-4.7497,-4.7497,-4.7497,-4.7497,-4.7882,-4.8122,-4.8122,-4.8628,-4.9084,-4.9517,-4.9758,-5.007,-5.0527,-5.0215,-5.0215,-5.0527,-5.0191,-5.0046,-5.0022,-4.9493,-4.9253,-4.9277,-4.9565,-4.9758,-4.9902,-5.0335,-5.06,-5.0696,-5.0696,-5.0696,-5.0696,-5.0696,-5.0696,-5.0696,-4.2529,-4.2402,-4.2275,-4.2275,-4.2275,-4.2275,-4.2275,-4.2275,-4.2275,-4.2275,-4.2275,-4.2431,-4.266,-4.2706,-4.3005,-4.3739,-4.4038,-4.4405,-4.4933,-4.4956,-4.4732,-4.4228,-4.2025,-4.0443,-3.9582,-3.7364,-3.6201,-3.6201,-3.6201,-3.6201,-3.6201,-3.6201,-3.6201,-3.6201,-3.6201,-3.6201,-3.6201,-3.6201,-3.6201,-3.6182,-3.622,-3.6293,-3.6476,-3.6211,-3.6565,-3.7009,-3.6797,-3.6932,-3.7266,-3.7051,-3.6836,-3.6641,-3.6406,-3.6191,-3.6016,-3.6016,-3.6016,-3.6471,-3.8639,-3.9908,-4.1064,-4.3235,-4.4587,-4.539,-4.5125,-4.5269,-4.5742,-4.6535,-4.6704,-4.6872,-4.7401,-4.7497,-4.7497,-4.7497,-4.7497,-4.7497,-4.7497,-4.7497,-4.7497,-4.7497,-4.7497,-4.7497,-4.7497,-4.7497,-4.7617,-4.7858,-4.8122,-4.8411,-4.8652,-4.9157,-4.9589,-4.9854,-4.9878,-4.9998,-5.0311,-4.9758,-4.9638,-4.9926,-4.9638,-4.9493,-4.9469,-4.894,-4.8844,-4.9084,-4.9373,-4.9638,-4.9902,-5.0479,-5.0696,-5.0696,-5.0696,-5.0696,-5.0696,-5.0696,-5.0696,-5.0696,-4.2886,-4.2656,-4.2402,-4.2402,-4.2339,-4.2275,-4.2275,-4.2275,-4.2275,-4.2275,-4.2344,-4.2614,-4.3051,-4.3234,-4.3693,-4.4543,-4.4681,-4.491,-4.5392,-4.5438,-4.5278,-4.5006,-4.2284,-4.0657,-4.0443,-3.7639,-3.6201,-3.6201,-3.6201,-3.6201,-3.6201,-3.6201,-3.6201,-3.6275,-3.6275,-3.6349,-3.6442,-3.6442,-3.6442,-3.6405,-3.6366,-3.6473,-3.649,-3.6365,-3.6513,-3.6772,-3.6714,-3.6848,-3.707,-3.707,-3.6855,-3.6562,-3.6562,-3.6309,-3.6035,-3.6113,-3.6133,-3.6474,-3.8249,-3.9877,-4.1507,-4.3165,-4.4812,-4.5958,-4.5438,-4.5742,-4.6199,-4.6728,-4.6848,-4.6968,-4.7425,-4.7497,-4.7497,-4.7497,-4.7497,-4.7497,-4.7497,-4.7497,-4.7497,-4.7497,-4.7497,-4.7497,-4.7497,-4.7569,-4.781,-4.8267,-4.8459,-4.8748,-4.9181,-4.9638,-4.9878,-4.9878,-4.9782,-4.9734,-4.9734,-4.9205,-4.894,-4.894,-4.8844,-4.8844,-4.894,-4.8483,-4.8579,-4.9084,-4.9181,-4.9517,-5.0046,-5.0503,-5.0696,-5.0696,-5.0696,-5.0696,-5.0696,-5.0696,-5.0696,-5.0696,-4.3263,-4.2949,-4.2696,-4.2696,-4.2466,-4.2275,-4.2275,-4.2275,-4.2275,-4.2275,-4.2706,-4.3005,-4.3074,-4.3877,-4.4451,-4.4589,-4.5002,-4.5346,-4.5415,-4.5438,-4.48,-4.3445,-4.1742,-4.0157,-3.8859,-3.707,-3.6201,-3.6201,-3.6201,-3.6201,-3.6201,-3.6201,-3.6367,-3.6738,-3.6738,-3.6886,-3.7255,-3.7255,-3.7255,-3.7255,-3.7272,-3.7473,-3.7728,-3.736,-3.719,-3.7176,-3.6805,-3.6435,-3.6191,-3.6191,-3.6152,-3.6113,-3.6113,-3.6074,-3.6094,-3.6465,-3.6582,-3.7262,-4.0298,-4.1325,-4.2193,-4.4889,-4.6069,-4.6583,-4.6511,-4.6559,-4.6752,-4.7281,-4.7401,-4.7425,-4.7497,-4.7497,-4.7497,-4.7497,-4.7497,-4.7497,-4.7497,-4.7497,-4.7497,-4.7497,-4.7497,-4.7497,-4.7497,-4.7906,-4.8219,-4.8291,-4.9133,-4.9686,-4.9758,-4.983,-4.9878,-4.9878,-4.9421,-4.9181,-4.9181,-4.8652,-4.8411,-4.8387,-4.793,-4.7954,-4.8387,-4.8315,-4.8579,-4.9109,-4.9565,-5.007,-5.06,-5.0672,-5.0696,-5.0696,-5.0696,-5.0696,-5.0696,-5.0696,-5.0696,-5.0696,-4.3576,-4.3326,-4.3012,-4.2822,-4.2696,-4.2529,-4.2339,-4.2275,-4.2431,-4.2729,-4.2959,-4.3303,-4.3877,-4.4589,-4.5025,-4.5025,-4.5232,-4.5438,-4.5438,-4.4572,-4.3814,-4.3097,-4.08,-3.9221,-3.8496,-3.6996,-3.6201,-3.6201,-3.6201,-3.6275,-3.6516,-3.6516,-3.6738,-3.7107,-3.7107,-3.7255,-3.7421,-3.7421,-3.7421,-3.7383,-3.7375,-3.7498,-3.7677,-3.7449,-3.7319,-3.7266,-3.709,-3.6894,-3.6738,-3.6738,-3.6738,-3.6738,-3.6738,-3.6738,-3.6777,-3.6973,-3.7619,-3.8608,-4.0009,-4.1808,-4.3577,-4.486,-4.6138,-4.7161,-4.7161,-4.7161,-4.7209,-4.7449,-4.7497,-4.7497,-4.7497,-4.7497,-4.7497,-4.7497,-4.7497,-4.7497,-4.7497,-4.7497,-4.7497,-4.7497,-4.7762,-4.7954,-4.7954,-4.8411,-4.8844,-4.9157,-4.9614,-4.9878,-4.9878,-4.9878,-4.9734,-4.9421,-4.8916,-4.8628,-4.8628,-4.8122,-4.7858,-4.7858,-4.7906,-4.805,-4.8291,-4.8291,-4.8748,-4.9541,-4.9758,-5.0191,-5.0696,-5.0696,-5.0696,-5.0696,-5.0696,-5.0696,-5.0696,-5.0696,-5.0696,-5.0696]},{"header":{"parameterUnit":"m.s-1","parameterCategory":1,"la1":30.6,"la2":28.766,"lo1":-90.7593,"lo2":-88.6598,"dx":0.0162,"dy":0.0183,"nx":116,"ny":114,"refTime":"2023-02-04T06:00:00:Z","depth":0,"parameterNumber":3,"parameterNumberName":"V-component_of_WINDS"},"data":[0.0,0.0,0.0,0.0,0.0,0.0,0.0,0.0,0.0,0.0,0.0,0.0,0.0,0.0,0.0,0.0,0.0,0.0,0.0,0.0,0.0,0.0,0.0,0.0,0.0,0.0,0.0,0.0,0.0,0.0,0.0,0.0,0.0,0.0,0.0,0.0,0.0,0.0,0.0,0.0,0.0,0.0,0.0,0.0,0.0,0.0,0.0,0.0,0.0,0.0,0.0,0.0,0.0,0.0,0.0,0.0,0.0,0.0,0.0,0.0,0.0,0.0,0.0,0.0,0.0,0.0,0.0,0.0,0.0,0.0,0.0,0.0,0.0,0.0,0.0,0.0,0.0,0.0,0.0,0.0,0.0,0.0,0.0,0.0,0.0,0.0,0.0,0.0,0.0,0.0,0.0,0.0,0.0,0.0,0.0,0.0,0.0,0.0,0.0,0.0,0.0,0.0,0.0,0.0,0.0,0.0,0.0,0.0,0.0,0.0,0.0,0.0,0.0,0.0,0.0,0.0,0.0,0.0,0.0,0.0,0.0,0.0,0.0,0.0,0.0,0.0,0.0,0.0,0.0,0.0,0.0,0.0,0.0,0.0,0.0,0.0,0.0,0.0,0.0,0.0,0.0,0.0,0.0,0.0,0.0,0.0,0.0,0.0,0.0,0.0,0.0,0.0,0.0,0.0,0.0,0.0,0.0,0.0,0.0,0.0,0.0,0.0,0.0,0.0,0.0,0.0,0.0,0.0,0.0,0.0,0.0,0.0,0.0,0.0,0.0,0.0,0.0,0.0,0.0,0.0,0.0,0.0,0.0,0.0,0.0,0.0,0.0,0.0,0.0,0.0,0.0,0.0,0.0,0.0,0.0,0.0,0.0,0.0,0.0,0.0,0.0,0.0,0.0,0.0,0.0,0.0,0.0,0.0,0.0,0.0,0.0,0.0,0.0,0.0,0.0,0.0,0.0,0.0,0.0,0.0,0.0,0.0,0.0,0.0,0.0,0.0,0.0,0.0,0.0,0.0,0.0,0.0,0.0,0.0,0.0,0.0,0.0,0.0,0.0,0.0,0.0,0.0,0.0,0.0,0.0,0.0,0.0,0.0,0.0,0.0,0.0,0.0,0.0,0.0,0.0,0.0,0.0,0.0,0.0,0.0,0.0,0.0,0.0,0.0,0.0,0.0,0.0,0.0,0.0,0.0,0.0,0.0,0.0,0.0,0.0,0.0,0.0,0.0,0.0,0.0,0.0,0.0,0.0,0.0,0.0,0.0,0.0,0.0,0.0,0.0,0.0,0.0,0.0,0.0,0.0,0.0,0.0,0.0,0.0,0.0,0.0,0.0,0.0,0.0,0.0,0.0,0.0,0.0,0.0,0.0,0.0,0.0,0.0,0.0,0.0,0.0,0.0,0.0,0.0,0.0,0.0,0.0,0.0,0.0,0.0,0.0,0.0,0.0,0.0,0.0,0.0,0.0,0.0,0.0,0.0,0.0,0.0,0.0,0.0,0.0,0.0,0.0,0.0,0.0,0.0,0.0,0.0,0.0,0.0,0.0,0.0,0.0,0.0,0.0,0.0,0.0,0.0,0.0,0.0,0.0,0.0,0.0,0.0,0.0,0.0,0.0,0.0,0.0,0.0,0.0,0.0,0.0,0.0,0.0,0.0,0.0,0.0,0.0,0.0,0.0,0.0,0.0,0.0,0.0,0.0,0.0,0.0,0.0,0.0,0.0,0.0,0.0,0.0,0.0,0.0,0.0,0.0,0.0,0.0,0.0,0.0,0.0,0.0,0.0,0.0,0.0,0.0,0.0,0.0,0.0,0.0,0.0,0.0,0.0,0.0,0.0,0.0,0.0,0.0,0.0,0.0,0.0,0.0,0.0,0.0,0.0,0.0,0.0,0.0,0.0,0.0,0.0,0.0,0.0,0.0,0.0,0.0,0.0,0.0,0.0,0.0,0.0,0.0,0.0,0.0,0.0,0.0,0.0,0.0,0.0,0.0,0.0,0.0,0.0,0.0,0.0,0.0,0.0,0.0,0.0,0.0,0.0,0.0,0.0,0.0,0.0,0.0,0.0,0.0,0.0,0.0,0.0,0.0,0.0,0.0,0.0,0.0,0.0,0.0,0.0,0.0,0.0,0.0,0.0,0.0,0.0,0.0,0.0,0.0,0.0,0.0,0.0,0.0,0.0,0.0,0.0,0.0,0.0,0.0,0.0,0.0,0.0,0.0,0.0,0.0,0.0,0.0,0.0,0.0,0.0,0.0,0.0,0.0,0.0,0.0,0.0,0.0,0.0,0.0,0.0,0.0,0.0,0.0,0.0,0.0,0.0,0.0,0.0,0.0,0.0,0.0,0.0,0.0,0.0,0.0,0.0,0.0,0.0,0.0,0.0,0.0,0.0,0.0,0.0,0.0,0.0,0.0,0.0,0.0,0.0,0.0,0.0,0.0,0.0,0.0,0.0,0.0,0.0,0.0,0.0,0.0,0.0,0.0,0.0,0.0,0.0,0.0,0.0,0.0,0.0,0.0,0.0,0.0,0.0,0.0,0.0,0.0,0.0,0.0,0.0,0.0,0.0,0.0,0.0,0.0,0.0,0.0,0.0,0.0,0.0,0.0,0.0,0.0,0.0,0.0,0.0,0.0,0.0,0.0,0.0,0.0,0.0,0.0,0.0,0.0,0.0,0.0,0.0,0.0,0.0,0.0,0.0,0.0,0.0,0.0,0.0,0.0,0.0,0.0,0.0,0.0,0.0,0.0,0.0,0.0,0.0,0.0,0.0,0.0,0.0,0.0,0.0,0.0,0.0,0.0,0.0,0.0,0.0,0.0,0.0,0.0,0.0,0.0,0.0,0.0,0.0,0.0,0.0,0.0,0.0,0.0,0.0,0.0,0.0,0.0,0.0,0.0,0.0,0.0,0.0,0.0,0.0,0.0,0.0,0.0,0.0,0.0,0.0,0.0,0.0,0.0,0.0,0.0,0.0,0.0,0.0,0.0,0.0,0.0,0.0,0.0,0.0,0.0,0.0,0.0,0.0,0.0,0.0,0.0,0.0,0.0,0.0,0.0,0.0,0.0,0.0,0.0,0.0,0.0,0.0,0.0,0.0,0.0,0.0,0.0,0.0,0.0,0.0,0.0,0.0,0.0,0.0,0.0,0.0,0.0,0.0,0.0,0.0,0.0,0.0,0.0,0.0,0.0,0.0,0.0,0.0,0.0,0.0,0.0,0.0,0.0,0.0,0.0,0.0,0.0,0.0,0.0,0.0,0.0,0.0,0.0,0.0,0.0,0.0,0.0,0.0,0.0,0.0,0.0,0.0,0.0,0.0,0.0,0.0,0.0,0.0,0.0,0.0,0.0,0.0,0.0,0.0,0.0,0.0,0.0,0.0,0.0,0.0,0.0,0.0,0.0,0.0,0.0,0.0,0.0,0.0,0.0,0.0,0.0,0.0,0.0,0.0,0.0,0.0,0.0,0.0,0.0,0.0,0.0,0.0,0.0,0.0,0.0,0.0,0.0,0.0,0.0,0.0,0.0,0.0,0.0,0.0,0.0,0.0,0.0,0.0,0.0,0.0,0.0,0.0,0.0,0.0,0.0,0.0,0.0,0.0,0.0,0.0,0.0,0.0,0.0,0.0,0.0,0.0,0.0,0.0,0.0,0.0,0.0,0.0,0.0,0.0,0.0,0.0,0.0,0.0,0.0,0.0,0.0,0.0,0.0,0.0,0.0,0.0,0.0,0.0,0.0,0.0,0.0,0.0,0.0,0.0,0.0,0.0,0.0,0.0,0.0,0.0,0.0,0.0,0.0,0.0,0.0,0.0,0.0,0.0,0.0,0.0,0.0,0.0,0.0,0.0,0.0,0.0,0.0,0.0,0.0,0.0,0.0,0.0,0.0,0.0,0.0,0.0,0.0,0.0,0.0,0.0,0.0,0.0,0.0,0.0,0.0,0.0,0.0,0.0,0.0,0.0,0.0,0.0,0.0,0.0,0.0,0.0,0.0,0.0,0.0,0.0,0.0,0.0,0.0,0.0,0.0,0.0,0.0,0.0,0.0,0.0,0.0,0.0,0.0,0.0,0.0,0.0,0.0,0.0,0.0,0.0,0.0,0.0,0.0,0.0,0.0,0.0,0.0,0.0,0.0,0.0,0.0,0.0,0.0,0.0,0.0,0.0,0.0,0.0,0.0,0.0,0.0,0.0,0.0,0.0,0.0,0.0,0.0,0.0,0.0,0.0,0.0,0.0,0.0,0.0,0.0,0.0,0.0,0.0,0.0,0.0,0.0,0.0,0.0,0.0,0.0,0.0,0.0,0.0,0.0,0.0,0.0,0.0,0.0,0.0,0.0,0.0,0.0,0.0,0.0,0.0,0.0,0.0,0.0,0.0,0.0,0.0,0.0,0.0,0.0,0.0,0.0,0.0,0.0,0.0,0.0,0.0,0.0,0.0,0.0,0.0,0.0,0.0,0.0,0.0,0.0,0.0,0.0,0.0,0.0,0.0,0.0,0.0,0.0,0.0,0.0,0.0,0.0,0.0,0.0,0.0,0.0,0.0,0.0,0.0,0.0,0.0,0.0,0.0,0.0,0.0,0.0,0.0,0.0,0.0,0.0,0.0,0.0,0.0,0.0,0.0,0.0,0.0,0.0,0.0,0.0,0.0,0.0,0.0,0.0,0.0,0.0,0.0,0.0,0.0,0.0,0.0,0.0,0.0,0.0,0.0,0.0,0.0,0.0,0.0,0.0,0.0,0.0,0.0,0.0,0.0,0.0,0.0,0.0,0.0,0.0,0.0,0.0,0.0,0.0,0.0,0.0,0.0,0.0,0.0,0.0,0.0,0.0,0.0,0.0,0.0,0.0,0.0,0.0,0.0,0.0,0.0,0.0,0.0,0.0,0.0,0.0,0.0,0.0,0.0,0.0,0.0,0.0,0.0,0.0,0.0,0.0,0.0,0.0,0.0,0.0,0.0,0.0,0.0,0.0,0.0,0.0,0.0,0.0,0.0,0.0,0.0,0.0,0.0,0.0,0.0,0.0,0.0,0.0,0.0,0.0,0.0,0.0,0.0,0.0,0.0,0.0,0.0,0.0,0.0,0.0,0.0,0.0,0.0,0.0,0.0,0.0,0.0,0.0,0.0,0.0,0.0,0.0,0.0,0.0,0.0,0.0,0.0,0.0,0.0,0.0,0.0,0.0,0.0,0.0,0.0,0.0,0.0,0.0,0.0,0.0,0.0,0.0,0.0,0.0,0.0,0.0,0.0,0.0,0.0,0.0,0.0,0.0,0.0,0.0,0.0,0.0,0.0,0.0,0.0,0.0,0.0,0.0,0.0,0.0,0.0,0.0,0.0,0.0,0.0,0.0,0.0,0.0,0.0,0.0,0.0,0.0,0.0,0.0,0.0,0.0,0.0,0.0,0.0,0.0,0.0,0.0,0.0,0.0,0.0,0.0,0.0,0.0,0.0,0.0,0.0,0.0,0.0,0.0,0.0,0.0,0.0,0.0,0.0,0.0,0.0,0.0,0.0,0.0,0.0,0.0,0.0,0.0,0.0,0.0,0.0,0.0,0.0,0.0,0.0,0.0,0.0,0.0,0.0,0.0,0.0,0.0,0.0,0.0,0.0,0.0,0.0,0.0,0.0,0.0,0.0,0.0,0.0,0.0,0.0,0.0,0.0,0.0,0.0,0.0,0.0,0.0,0.0,0.0,0.0,0.0,0.0,0.0,0.0,0.0,0.0,0.0,0.0,0.0,0.0,0.0,0.0,0.0,0.0,0.0,0.0,0.0,0.0,0.0,0.0,0.0,0.0,0.0,0.0,0.0,0.0,0.0,0.0,0.0,0.0,0.0,0.0,0.0,0.0,0.0,0.0,0.0,0.0,0.0,0.0,0.0,0.0,0.0,0.0,0.0,0.0,0.0,0.0,0.0,0.0,0.0,0.0,0.0,0.0,0.0,0.0,0.0,0.0,0.0,0.0,0.0,0.0,0.0,0.0,0.0,0.0,0.0,0.0,0.0,0.0,0.0,0.0,0.0,0.0,0.0,0.0,0.0,0.0,0.0,0.0,0.0,0.0,0.0,0.0,0.0,0.0,0.0,0.0,4.7277,4.7307,0.0,0.0,0.0,0.0,0.0,0.0,0.0,0.0,0.0,0.0,0.0,0.0,0.0,0.0,0.0,0.0,0.0,0.0,0.0,0.0,0.0,0.0,0.0,0.0,0.0,0.0,0.0,0.0,0.0,0.0,0.0,0.0,0.0,0.0,0.0,0.0,0.0,0.0,0.0,0.0,0.0,0.0,0.0,0.0,0.0,0.0,0.0,0.0,0.0,0.0,0.0,0.0,0.0,0.0,0.0,0.0,0.0,0.0,0.0,0.0,0.0,0.0,0.0,0.0,0.0,0.0,0.0,0.0,0.0,0.0,0.0,0.0,0.0,0.0,0.0,0.0,0.0,0.0,0.0,0.0,0.0,0.0,0.0,0.0,0.0,0.0,0.0,0.0,0.0,0.0,0.0,0.0,0.0,0.0,0.0,0.0,0.0,0.0,0.0,0.0,0.0,0.0,0.0,0.0,0.0,0.0,0.0,0.0,0.0,0.0,0.0,0.0,0.0,0.0,4.8332,4.8309,0.0,0.0,0.0,0.0,0.0,0.0,0.0,0.0,0.0,0.0,0.0,0.0,0.0,0.0,0.0,0.0,0.0,0.0,0.0,0.0,0.0,0.0,0.0,0.0,0.0,0.0,0.0,0.0,0.0,0.0,0.0,0.0,0.0,0.0,0.0,0.0,0.0,0.0,0.0,0.0,0.0,0.0,0.0,0.0,0.0,0.0,0.0,0.0,0.0,0.0,0.0,0.0,0.0,0.0,0.0,0.0,0.0,0.0,0.0,0.0,0.0,0.0,0.0,0.0,0.0,0.0,0.0,0.0,0.0,0.0,0.0,0.0,0.0,0.0,0.0,0.0,0.0,0.0,0.0,0.0,0.0,0.0,0.0,0.0,0.0,0.0,0.0,0.0,0.0,0.0,0.0,0.0,0.0,0.0,0.0,0.0,0.0,0.0,0.0,0.0,0.0,0.0,0.0,0.0,0.0,0.0,0.0,0.0,4.9233,4.9107,4.9199,4.9077,4.9049,4.9018,4.929,4.932,4.9229,4.95,0.0,0.0,0.0,0.0,0.0,0.0,0.0,0.0,0.0,0.0,0.0,0.0,0.0,0.0,0.0,0.0,0.0,0.0,0.0,0.0,0.0,0.0,0.0,0.0,0.0,0.0,0.0,0.0,0.0,0.0,0.0,0.0,0.0,0.0,0.0,0.0,0.0,0.0,4.5703,4.5805,4.6177,4.6819,4.7665,0.0,0.0,0.0,0.0,0.0,0.0,0.0,0.0,0.0,0.0,0.0,0.0,0.0,0.0,0.0,0.0,0.0,0.0,0.0,0.0,0.0,0.0,0.0,0.0,0.0,0.0,0.0,0.0,0.0,0.0,0.0,0.0,0.0,0.0,0.0,0.0,0.0,0.0,0.0,0.0,0.0,0.0,0.0,4.9168,4.9015,0.0,0.0,0.0,0.0,0.0,0.0,0.0,0.0,0.0,0.0,0.0,0.0,0.0,4.9199,4.9199,4.935,4.9441,4.95,4.9441,4.935,4.9199,4.9168,4.9107,4.9018,4.9049,0.0,4.9199,4.926,0.0,0.0,0.0,0.0,0.0,0.0,0.0,0.0,0.0,0.0,0.0,0.0,0.0,0.0,0.0,0.0,0.0,0.0,0.0,0.0,0.0,0.0,0.0,0.0,0.0,0.0,0.0,0.0,0.0,0.0,0.0,0.0,0.0,0.0,0.0,0.0,4.4993,4.5162,4.506,4.506,4.5703,4.6819,4.7124,4.7936,4.9018,4.9018,0.0,0.0,0.0,0.0,0.0,0.0,0.0,0.0,0.0,0.0,0.0,0.0,0.0,0.0,0.0,0.0,0.0,0.0,0.0,0.0,0.0,0.0,0.0,0.0,0.0,0.0,0.0,0.0,0.0,0.0,0.0,0.0,0.0,0.0,0.0,0.0,0.0,0.0,0.0,4.95,4.9471,4.9381,4.9624,4.9713,0.0,0.0,0.0,0.0,0.0,0.0,0.0,0.0,0.0,4.9381,4.935,4.932,4.9199,4.929,4.9381,4.95,4.95,4.9381,4.9199,4.9199,4.9107,4.9018,4.9018,4.9015,4.9077,4.9168,4.929,4.9441,0.0,0.0,0.0,0.0,4.959,4.956,0.0,0.0,0.0,0.0,0.0,0.0,0.0,0.0,0.0,0.0,0.0,0.0,0.0,0.0,0.0,4.4615,0.0,0.0,0.0,0.0,0.0,0.0,0.0,0.0,0.0,0.0,0.0,4.4615,4.5128,4.5128,4.4615,4.4615,4.5393,4.6786,4.6786,4.7597,4.9018,4.9018,4.9018,0.0,0.0,0.0,0.0,0.0,0.0,0.0,0.0,0.0,0.0,0.0,0.0,0.0,0.0,0.0,0.0,0.0,0.0,0.0,0.0,0.0,0.0,0.0,0.0,0.0,0.0,0.0,0.0,0.0,0.0,0.0,0.0,0.0,0.0,0.0,0.0,0.0,0.0,4.9649,4.9649,4.9649,4.9801,4.986,0.0,0.0,0.0,0.0,0.0,0.0,5.0011,4.9952,4.9801,4.956,4.9471,4.935,4.9199,4.9403,4.9596,4.9718,4.9983,4.996,4.9777,4.9777,4.9613,4.9289,4.9289,4.9187,4.9018,4.9107,4.9168,4.9199,4.935,4.9441,4.9471,4.9441,4.9411,4.9381,0.0,0.0,0.0,0.0,0.0,0.0,0.0,0.0,0.0,0.0,0.0,0.0,0.0,0.0,4.4615,4.4615,4.4615,4.4615,0.0,0.0,0.0,0.0,0.0,0.0,0.0,0.0,0.0,4.4615,4.4649,4.4649,4.4615,4.4615,4.5393,4.6786,4.6786,4.7597,4.9018,4.9018,4.9018,4.9018,0.0,0.0,0.0,0.0,0.0,0.0,0.0,0.0,0.0,0.0,0.0,0.0,0.0,0.0,0.0,0.0,0.0,0.0,0.0,0.0,0.0,0.0,0.0,0.0,0.0,0.0,0.0,0.0,0.0,0.0,0.0,0.0,0.0,0.0,0.0,0.0,0.0,0.0,0.0,4.95,4.9619,0.0,0.0,0.0,0.0,4.9982,5.0011,5.0011,5.0011,4.983,4.9708,4.9679,4.9381,4.9199,4.9199,4.9977,5.0317,5.0382,5.1188,5.1529,5.1371,5.1371,5.0869,5.0033,5.0033,4.9627,4.9018,4.9018,4.9077,4.9199,4.9199,4.932,4.9471,4.929,4.9229,4.9199,0.0,0.0,0.0,0.0,0.0,0.0,0.0,0.0,0.0,0.0,0.0,0.0,0.0,4.4615,4.4615,4.4615,4.4615,4.4615,4.4615,0.0,0.0,0.0,0.0,0.0,0.0,0.0,4.4852,4.5297,4.5297,4.5534,4.6007,4.6007,4.6549,4.753,4.753,4.8071,4.9018,4.9018,4.9018,4.9018,4.9138,4.9199,0.0,0.0,0.0,0.0,0.0,0.0,0.0,0.0,0.0,0.0,0.0,0.0,0.0,0.0,0.0,0.0,0.0,0.0,0.0,0.0,0.0,0.0,0.0,0.0,0.0,0.0,0.0,0.0,0.0,0.0,0.0,0.0,0.0,0.0,0.0,0.0,0.0,4.9801,4.986,0.0,4.9889,4.9982,5.0011,5.0011,5.0011,5.0218,5.07,5.0641,5.0759,5.115,5.0936,5.0813,5.0813,5.1026,5.1162,5.1256,5.1558,5.1631,5.1505,5.1505,5.1242,5.0811,5.0811,5.0676,5.0439,5.0439,4.9895,4.9046,4.9046,4.9107,4.9168,4.9077,4.9046,4.9046,0.0,0.0,0.0,0.0,0.0,0.0,0.0,0.0,0.0,0.0,0.0,4.4615,4.4615,4.4615,4.4615,4.4615,4.4615,4.4615,4.4615,0.0,0.0,0.0,0.0,0.0,0.0,4.4823,4.5196,4.5703,4.594,4.6312,4.6786,4.6786,4.7192,4.7906,4.7906,4.8308,4.9018,4.9018,4.9018,4.9018,4.9077,4.9138,4.9199,0.0,0.0,0.0,0.0,0.0,0.0,0.0,0.0,0.0,0.0,0.0,0.0,0.0,0.0,0.0,0.0,0.0,0.0,0.0,0.0,0.0,0.0,0.0,0.0,0.0,0.0,0.0,0.0,0.0,0.0,0.0,0.0,0.0,0.0,4.9918,5.0011,5.0011,5.0011,5.0114,5.0355,5.039,5.0493,5.0735,5.0735,5.0976,5.1459,5.1434,5.158,5.2066,5.1819,5.1694,5.1694,5.1807,5.1879,5.1911,5.2183,5.2255,5.2158,5.2158,5.1924,5.1589,5.1589,5.1454,5.1185,5.1185,5.0642,4.9763,4.9763,4.9763,4.9763,4.9763,4.9763,4.9763,0.0,0.0,0.0,0.0,0.0,0.0,0.0,0.0,0.0,0.0,4.4615,4.4615,4.4615,4.4615,4.4615,4.4615,4.4615,4.4615,4.4615,4.4615,0.0,0.0,0.0,0.0,4.4649,4.5365,4.5771,4.5771,4.6481,4.6853,4.6853,4.6853,4.7259,4.7906,4.7906,4.8311,4.9018,4.9018,4.9018,4.9018,4.9018,4.9199,4.9505,0.0,0.0,0.0,0.0,0.0,0.0,0.0,0.0,0.0,0.0,0.0,0.0,0.0,0.0,0.0,0.0,0.0,0.0,0.0,0.0,0.0,0.0,0.0,0.0,0.0,0.0,0.0,0.0,0.0,0.0,0.0,0.0,0.0,5.0011,5.0011,5.0011,5.0045,5.0045,5.0321,5.105,5.1149,5.1459,5.2119,5.2188,5.2188,5.2222,5.21,5.2135,5.2257,5.195,5.1762,5.1762,5.2354,5.2531,5.2334,5.3145,5.3518,5.3518,5.3518,5.3078,5.2334,5.2334,5.1928,5.1252,5.1252,5.1252,5.1252,5.1219,5.1185,5.1185,5.1185,5.1185,5.1185,0.0,0.0,0.0,0.0,0.0,0.0,0.0,0.0,0.0,0.0,4.4615,4.4615,4.4615,4.4615,4.4615,4.4615,4.4615,4.4615,4.4615,0.0,0.0,0.0,0.0,0.0,4.5399,4.6109,4.6752,4.7327,4.7496,4.7868,4.8409,4.8409,4.8511,4.8714,4.8714,4.8815,4.9018,4.9018,4.908,4.9138,4.9138,4.9138,4.9138,0.0,0.0,0.0,0.0,0.0,0.0,0.0,0.0,0.0,0.0,0.0,0.0,0.0,0.0,0.0,0.0,0.0,0.0,0.0,0.0,0.0,0.0,0.0,0.0,0.0,0.0,0.0,0.0,0.0,0.0,0.0,5.2567,5.1843,5.0037,4.9889,5.0218,5.0735,5.0804,5.1055,5.1687,5.1817,5.1951,5.2066,5.2157,5.2429,5.3046,5.3049,5.3197,5.3619,5.3462,5.3365,5.3365,5.331,5.3279,5.3345,5.3449,5.3518,5.3518,5.3518,5.3382,5.3179,5.3179,5.3078,5.2875,5.2875,5.2875,5.2773,5.1657,5.1185,5.1185,5.1185,5.1185,5.1185,0.0,0.0,0.0,0.0,0.0,0.0,0.0,0.0,0.0,0.0,4.4615,4.4615,4.4615,4.4615,4.4615,4.4615,4.4615,4.4615,4.4615,0.0,0.0,0.0,0.0,4.5838,4.6143,4.6887,4.7496,4.7906,4.8545,4.9052,4.9458,4.9796,4.9932,4.9932,4.9932,4.9763,4.9458,4.9458,4.9351,4.9107,4.9168,4.9199,4.9229,4.9411,4.95,4.95,4.9649,4.9801,4.9889,4.9982,0.0,0.0,0.0,0.0,0.0,0.0,0.0,0.0,0.0,0.0,0.0,0.0,0.0,0.0,0.0,0.0,0.0,0.0,0.0,0.0,0.0,0.0,0.0,0.0,5.3115,5.2394,5.0961,5.0848,5.105,5.1438,5.1507,5.1722,5.2417,5.2485,5.2588,5.2994,5.306,5.3232,5.3714,5.3685,5.3825,5.4173,5.4078,5.398,5.398,5.3817,5.3685,5.3618,5.3517,5.3518,5.3518,5.3518,5.3518,5.3518,5.3518,5.3518,5.3518,5.3518,5.3518,5.3416,0.0,0.0,0.0,0.0,5.2164,5.2164,0.0,0.0,0.0,0.0,0.0,0.0,0.0,0.0,0.0,0.0,0.0,4.4615,4.4615,4.4615,4.4615,4.4615,4.4615,4.4615,0.0,0.0,0.0,4.5669,4.5771,4.6177,4.6921,4.7733,4.8142,4.8142,4.9526,5.0202,5.0236,5.0913,5.1185,5.1185,5.1185,5.0845,5.0202,5.0202,4.9828,4.9151,4.9304,4.9388,4.9471,4.9471,4.95,4.95,4.9619,4.9679,4.9737,4.9889,0.0,0.0,0.0,0.0,0.0,0.0,0.0,0.0,0.0,0.0,0.0,0.0,0.0,0.0,0.0,0.0,0.0,0.0,0.0,0.0,0.0,0.0,0.0,0.0,5.2942,5.2429,5.2398,5.2463,5.2398,5.2173,5.2111,5.2355,5.3141,5.3051,5.3357,5.4365,5.4303,5.4207,5.4239,5.411,0.0,0.0,0.0,5.4117,5.4117,5.4153,5.4056,5.3788,5.3754,5.3721,5.3619,5.3619,5.3585,5.3518,5.3518,5.3518,5.3518,5.3518,5.3518,5.3518,5.3518,5.3518,5.3518,5.3518,5.3518,5.3518,0.0,0.0,0.0,0.0,0.0,0.0,0.0,0.0,0.0,4.4615,4.4615,4.4615,4.4615,4.4615,4.4615,4.4615,4.4615,4.4615,0.0,0.0,4.4925,4.5669,4.6278,4.6921,4.7665,4.8984,4.9661,4.9661,5.0574,5.1014,5.1014,5.1117,5.1185,5.1185,5.1185,5.115,5.1014,5.1014,5.0638,5.015,5.0181,4.9773,4.929,4.9441,4.95,4.95,4.953,4.9619,4.9708,4.9737,4.986,5.0011,5.0011,0.0,0.0,0.0,0.0,0.0,0.0,0.0,0.0,0.0,0.0,0.0,0.0,0.0,0.0,0.0,0.0,0.0,0.0,0.0,0.0,5.4287,5.4184,5.3983,5.3825,5.3952,5.3808,5.3222,5.2835,5.2953,5.3738,5.3871,5.3971,5.411,5.4175,5.4271,5.4431,5.4271,5.4143,5.4045,5.4595,5.4836,5.4668,5.5144,5.5415,5.5518,5.5346,0.0,5.4397,5.4397,5.4059,5.3518,5.3518,5.3518,5.3518,5.3518,5.3518,5.3518,5.3518,5.3518,5.3518,5.3518,5.3518,5.3518,0.0,0.0,0.0,0.0,0.0,0.0,0.0,0.0,0.0,0.0,4.4615,4.4615,4.4615,4.4615,4.4615,4.4615,4.4615,0.0,0.0,4.4925,4.5466,4.621,4.6955,4.7699,4.8443,4.9526,5.0101,5.0101,5.1217,5.1758,5.1758,5.2164,5.2367,5.2367,5.2367,5.2131,5.1758,5.1758,5.1385,5.0769,5.0524,5.0147,4.9773,4.9581,4.95,4.95,4.956,4.959,4.9619,4.9679,4.9708,4.9772,4.983,4.986,4.986,0.0,0.0,0.0,0.0,0.0,0.0,0.0,0.0,0.0,0.0,0.0,0.0,0.0,0.0,5.408,5.4425,0.0,5.4463,5.4367,5.4431,5.4431,5.4239,5.4239,5.407,5.3597,5.3528,5.3633,5.3979,5.398,5.415,5.4658,5.4658,5.483,5.5207,5.5207,5.5141,5.5008,5.5383,5.5485,5.5417,5.5687,5.5856,5.5856,5.5751,5.5513,5.5141,5.5141,5.4972,5.46,5.46,5.46,5.4566,5.4194,5.4059,5.4025,5.3653,5.3518,5.3518,5.3518,5.3518,5.3518,0.0,0.0,0.0,0.0,0.0,0.0,0.0,0.0,0.0,0.0,4.4615,4.4615,4.4615,4.4615,4.4615,0.0,0.0,0.0,0.0,4.5162,4.5872,4.6752,4.7361,4.8105,4.8984,4.9864,5.0304,5.0304,5.1792,5.2536,5.2536,5.3213,5.3518,5.3518,5.3518,5.3145,5.2536,5.2536,5.2097,5.1352,5.0801,5.049,5.0348,4.9687,4.9441,4.9441,4.9619,4.959,4.95,4.9649,4.9649,4.9624,4.9708,4.9737,4.9737,4.9737,4.986,0.0,0.0,0.0,0.0,0.0,0.0,0.0,0.0,5.1119,5.2019,5.236,5.3394,5.4259,5.4431,5.4431,5.4367,5.4239,5.4303,5.4335,5.4175,5.4247,5.4187,5.3888,5.412,5.4251,5.4153,5.4157,5.4564,5.5479,5.5413,5.5552,5.6064,5.6133,5.6099,5.603,5.6131,5.6233,5.6233,5.6334,5.6297,5.6156,5.6156,5.6055,5.5919,5.5919,5.5852,5.5681,5.5681,5.5681,5.5683,5.5074,5.4803,5.4735,5.416,5.3923,5.389,5.3619,5.3518,5.3518,0.0,0.0,0.0,0.0,0.0,0.0,0.0,0.0,0.0,0.0,0.0,0.0,0.0,0.0,0.0,0.0,0.0,0.0,4.4615,4.4682,4.5359,4.6718,4.6887,4.7564,4.8984,5.0371,5.1082,5.1082,5.2604,5.3382,5.3382,5.345,5.3518,5.3518,5.3518,5.345,5.3382,5.3382,5.2909,5.2097,5.1386,5.0837,5.0317,4.9535,4.9229,4.926,4.9441,4.95,4.95,4.9649,4.983,4.9952,4.9982,4.9982,4.9982,4.9982,0.0,5.0011,4.9982,4.9982,5.0011,5.0011,5.0011,5.0183,0.0,5.0961,5.1382,5.2946,5.3232,5.3447,5.4102,5.4239,5.4239,5.4207,5.411,5.4045,5.4013,5.476,5.5072,5.4567,5.4533,5.4568,5.4703,5.5417,5.5962,5.6099,5.6099,5.6167,5.6438,5.6201,5.6098,5.6167,5.6677,5.6981,5.6981,5.7448,5.7681,5.7645,5.7645,5.7306,5.6697,5.6697,5.6325,5.5681,5.5681,5.5681,5.5681,5.5615,5.5581,5.5581,5.5513,5.548,5.531,5.3991,5.3518,5.3518,0.0,0.0,0.0,0.0,0.0,0.0,0.0,0.0,0.0,0.0,0.0,0.0,0.0,0.0,0.0,0.0,0.0,0.0,4.4615,4.4993,4.55,4.6143,4.6989,4.7733,4.8376,4.983,5.0574,5.0574,5.1657,5.2164,5.2198,5.2604,5.2807,5.2807,5.3281,5.3518,5.3484,5.301,5.2604,5.2198,5.1014,5.0403,5.0159,4.944,4.9199,4.9229,4.953,4.956,0.0,0.0,4.9679,4.9713,4.9801,4.983,4.983,4.983,4.9889,0.0,5.0011,5.0011,5.0011,5.0011,4.9889,5.0066,5.0912,5.1305,5.1863,5.3153,5.3579,5.383,5.4139,5.4143,5.4045,5.3948,5.3948,5.4151,5.4561,5.487,5.5178,5.5519,5.5755,5.5786,5.5519,5.586,5.6269,5.6677,5.6711,5.6951,5.743,5.7498,5.7428,5.7359,5.7594,5.7693,5.7586,5.7782,5.7881,5.7881,5.7881,5.7712,5.7442,5.7442,5.7273,5.6968,5.7075,5.7109,5.6968,5.6635,5.6501,5.6467,5.5921,5.5856,5.5962,5.5075,5.4803,5.4803,0.0,0.0,0.0,0.0,0.0,0.0,0.0,0.0,0.0,0.0,0.0,0.0,0.0,0.0,0.0,0.0,0.0,0.0,0.0,4.5094,4.55,4.5703,4.6718,4.7466,4.7872,4.9154,4.9898,5.0101,5.0845,5.1185,5.1185,5.1758,5.1995,5.2029,5.2604,5.2875,5.2841,5.2232,5.1995,5.1894,5.0608,5.0132,5.0127,4.944,4.9229,4.932,4.959,4.9649,0.0,0.0,4.9742,4.9654,4.9737,4.9767,4.9767,4.9767,4.986,4.9918,4.9982,4.9982,4.9918,4.9918,4.9997,5.0312,5.1163,5.1829,5.2492,5.3404,5.3862,5.4078,5.4078,5.398,5.3882,5.3717,5.3954,5.436,5.4939,5.5281,5.5689,5.6303,5.6843,5.7008,5.6536,5.6572,5.6845,5.7355,5.7389,5.7627,5.8171,5.8312,5.8278,5.8171,5.8169,5.8063,5.7991,5.7918,5.7918,5.7991,5.7918,5.7918,5.7954,5.7918,5.7918,5.7991,5.8169,5.8169,5.8029,5.7662,5.7424,5.7355,5.6705,5.6642,5.6747,5.622,5.5772,5.5435,0.0,0.0,0.0,0.0,0.0,0.0,0.0,0.0,0.0,0.0,0.0,0.0,0.0,0.0,0.0,0.0,0.0,0.0,0.0,4.4615,4.4925,4.5669,4.5737,4.6447,4.7872,4.8646,4.939,5.0101,5.0845,5.1185,5.1185,5.1219,5.1219,5.1219,5.1285,5.1252,5.1252,5.1251,5.1219,5.1183,5.0405,5.0195,5.0317,4.9505,4.932,4.95,4.9649,0.0,0.0,0.0,4.9982,4.9982,5.0011,5.0011,0.0,5.0011,4.986,0.0,4.9952,4.986,4.9708,4.9708,5.041,5.1227,5.1829,5.2398,5.3022,5.3969,5.3913,5.3717,5.3717,5.3717,5.3717,5.3717,5.4194,5.4669,5.4805,5.6097,5.6978,5.6801,5.7588,5.8065,5.785,5.7995,5.8137,5.8137,5.8171,5.8171,5.8171,5.8027,5.7991,5.8171,5.7991,5.7991,5.8205,5.7991,5.7991,5.8205,5.7991,5.7991,5.8171,5.7991,5.7991,5.8171,5.8171,5.8312,5.849,5.8456,5.835,5.8173,5.8351,5.8315,5.8031,5.7156,5.5954,5.4685,0.0,0.0,0.0,0.0,0.0,0.0,0.0,0.0,0.0,0.0,0.0,0.0,0.0,0.0,0.0,0.0,0.0,0.0,0.0,4.4615,4.4716,4.4959,4.5906,4.665,4.7158,4.8376,4.912,4.9357,4.9627,4.9763,4.9763,5.0236,5.0473,5.0473,5.098,5.1185,5.1183,5.0676,5.0473,5.0405,4.9661,4.9421,4.945,4.927,4.9229,4.932,0.0,0.0,0.0,0.0,0.0,0.0,5.0011,0.0,0.0,5.0011,0.0,0.0,4.9767,5.0026,5.0283,5.0283,5.0925,5.1679,5.2367,5.268,5.309,5.3874,5.3882,5.3717,5.3717,5.3617,5.3584,5.3584,5.4127,5.4838,5.5519,5.6332,5.7109,5.7656,5.7891,5.7954,5.7918,5.8063,5.8135,5.7991,5.8099,5.8171,5.8171,5.8169,5.8099,5.8171,5.8135,5.8063,5.7991,5.7918,5.7918,5.7991,5.7918,5.7991,5.8171,5.7991,5.8063,5.8419,5.8419,5.8384,5.8277,5.7811,5.752,5.726,5.6619,5.6503,5.6586,5.6041,5.523,5.4487,0.0,0.0,0.0,0.0,0.0,0.0,0.0,0.0,0.0,0.0,0.0,0.0,0.0,0.0,0.0,0.0,0.0,0.0,0.0,0.0,4.5393,4.5393,4.6278,4.6921,4.7192,4.8139,4.8748,4.9018,4.9018,4.9018,4.9018,4.9492,4.9695,4.9729,5.0202,5.0439,5.0405,4.9898,4.9695,4.9661,4.9187,4.9015,4.9077,4.9168,4.926,0.0,0.0,0.0,0.0,0.0,0.0,0.0,0.0,0.0,0.0,0.0,0.0,4.9688,4.9962,5.0283,5.0636,5.0847,5.1589,5.2301,5.2652,5.2961,5.3302,5.378,5.375,5.3617,5.3617,5.3551,5.3518,5.3518,5.4329,5.5176,5.5823,5.6633,5.741,5.8029,5.7954,5.7881,5.7881,5.8063,5.8099,5.7918,5.8027,5.8063,5.8063,5.8063,5.8099,5.8171,5.8099,5.8063,5.7991,5.7918,5.7881,5.7881,5.7954,5.8027,5.8063,5.7954,5.8063,5.8384,5.8063,5.7918,5.7811,5.7372,5.7072,5.6844,5.6231,5.608,5.6159,5.528,5.4662,5.4369,0.0,0.0,0.0,0.0,0.0,0.0,0.0,0.0,0.0,0.0,0.0,0.0,0.0,0.0,0.0,0.0,0.0,0.0,0.0,0.0,0.0,4.6786,4.6819,4.7192,4.7872,4.7939,4.8308,4.9018,4.9018,4.9018,4.9018,4.9018,4.9018,4.9018,4.9018,4.9018,4.9018,4.9018,4.9018,4.9018,4.9018,4.9077,4.9199,4.9233,0.0,0.0,0.0,0.0,0.0,0.0,0.0,0.0,0.0,0.0,0.0,4.953,4.9505,4.971,5.0397,5.0636,5.081,5.1403,5.234,5.3046,5.2728,5.3174,5.3717,5.3684,5.3584,5.3518,5.3518,5.3518,5.3518,5.3518,5.4735,5.5681,5.5681,5.6968,5.7881,5.7881,5.7881,5.7881,5.7881,5.8063,5.8133,5.7918,5.7918,5.7918,5.7881,5.7952,5.8058,5.8239,5.8128,5.8126,5.8307,5.8126,5.7983,5.7949,5.8131,5.8131,5.7918,5.7881,5.7991,5.8171,5.7297,5.7072,5.726,5.7147,5.6996,5.6844,5.6925,5.6849,5.6465,5.4861,5.4264,5.4264,0.0,0.0,0.0,0.0,0.0,0.0,0.0,0.0,0.0,0.0,0.0,0.0,0.0,0.0,0.0,0.0,0.0,0.0,0.0,0.0,0.0,0.0,0.0,0.0,0.0,0.0,0.0,4.9018,4.9018,4.9018,4.9018,4.9018,4.9018,4.9018,4.9018,4.9018,4.9018,4.9018,4.9018,4.9018,0.0,4.9049,4.9114,0.0,0.0,0.0,0.0,0.0,0.0,0.0,0.0,0.0,0.0,4.953,4.953,4.95,4.982,5.0209,5.0413,5.1136,5.1922,5.2061,5.2835,5.3477,5.3313,5.3482,5.3684,5.3584,5.3517,5.3518,5.3518,5.3518,5.3518,5.3518,5.4735,5.5681,5.5681,5.6968,5.7881,5.7881,5.7881,5.7881,5.7881,5.7954,5.7954,5.7881,5.8027,5.8063,5.7918,5.8535,5.895,5.8987,5.9675,5.9981,5.9837,5.9651,5.9268,5.8727,5.8764,5.8533,5.8099,5.7954,5.8063,5.8419,5.8027,5.7918,5.7848,5.6509,5.5883,5.5563,5.4317,5.3793,5.3801,5.385,5.3992,5.422,0.0,0.0,0.0,0.0,0.0,0.0,0.0,0.0,0.0,0.0,0.0,0.0,0.0,0.0,0.0,0.0,0.0,0.0,0.0,0.0,0.0,0.0,0.0,0.0,0.0,0.0,0.0,0.0,0.0,0.0,4.9018,4.9018,4.9018,4.9018,4.9018,4.9018,4.9018,4.9018,0.0,0.0,0.0,0.0,0.0,0.0,0.0,0.0,0.0,0.0,0.0,0.0,0.0,5.0051,4.9517,4.935,4.935,4.929,4.9804,5.0453,5.0699,5.1583,5.25,5.2739,5.3279,5.3651,5.3517,5.3551,5.3584,5.3551,5.3518,5.3518,5.3518,5.3518,5.3518,5.3518,5.4735,5.5681,5.5681,5.6968,5.7881,5.7881,5.7881,5.7881,5.7881,5.8186,5.8389,5.8389,5.8499,5.8499,5.8389,5.9285,5.984,5.9916,6.0469,6.0671,6.0449,6.0337,5.9987,5.9471,5.958,5.9488,5.9191,5.9081,5.9154,5.9302,5.8717,5.827,5.7963,5.6953,5.6334,5.5834,5.4913,5.4504,5.4491,5.4479,5.4589,5.4787,0.0,0.0,0.0,0.0,0.0,0.0,0.0,0.0,0.0,0.0,0.0,0.0,0.0,0.0,0.0,0.0,0.0,0.0,0.0,0.0,0.0,0.0,0.0,0.0,0.0,0.0,0.0,0.0,0.0,0.0,0.0,0.0,0.0,0.0,0.0,0.0,0.0,0.0,0.0,0.0,0.0,0.0,0.0,0.0,0.0,0.0,0.0,0.0,0.0,0.0,5.1272,4.9641,4.9508,4.9474,4.9443,4.932,4.9924,5.0764,5.1216,5.2025,5.287,5.3382,5.3618,5.3651,5.3517,5.3518,5.3518,5.3517,5.3484,5.3484,5.3551,5.3551,5.3518,5.3517,5.4735,5.5681,5.5681,5.6968,5.7881,5.7881,5.7881,5.7915,5.8017,5.8626,5.9066,5.9204,5.9306,5.9306,5.9204,6.0174,6.0839,6.1092,6.1089,6.1015,6.0864,6.0826,6.0646,6.0325,6.0581,6.0622,6.0557,6.0557,6.0449,6.0227,5.9276,5.8485,5.7827,5.7702,5.7322,5.6785,5.6698,5.6611,5.6523,5.5879,5.5669,5.5669,0.0,0.0,0.0,0.0,0.0,0.0,0.0,0.0,0.0,0.0,0.0,0.0,0.0,0.0,0.0,0.0,0.0,0.0,0.0,0.0,0.0,0.0,0.0,0.0,0.0,0.0,0.0,0.0,0.0,0.0,0.0,0.0,0.0,0.0,0.0,0.0,0.0,0.0,0.0,0.0,0.0,0.0,0.0,0.0,0.0,0.0,0.0,0.0,0.0,0.0,5.2357,5.1883,5.1078,5.0877,5.0877,5.0845,5.1352,5.1994,5.2063,5.2804,5.3514,5.3484,5.3618,5.3651,5.3517,5.3518,5.3517,5.3651,5.3584,5.3584,5.3883,5.3685,5.3517,5.3651,5.4804,5.5681,5.5681,5.6968,5.7881,5.7881,5.7881,5.8118,5.8761,5.893,5.9306,6.0102,6.0785,6.0853,6.017,6.1257,6.2272,6.3076,6.2778,6.2665,6.2812,6.2472,6.2089,6.1589,6.1627,6.1323,6.0745,6.0745,6.0303,5.9582,5.9354,5.88,5.7985,5.727,5.6883,5.6742,5.6023,5.574,5.5757,5.6184,5.6495,5.6772,0.0,0.0,0.0,0.0,0.0,0.0,0.0,0.0,0.0,0.0,0.0,0.0,0.0,0.0,0.0,0.0,0.0,0.0,0.0,0.0,0.0,0.0,0.0,0.0,0.0,0.0,0.0,0.0,0.0,0.0,0.0,0.0,0.0,0.0,0.0,0.0,0.0,0.0,0.0,0.0,0.0,0.0,0.0,0.0,0.0,0.0,0.0,0.0,0.0,0.0,5.3239,5.2936,5.1622,5.1185,5.1185,5.1185,5.1725,5.23,5.23,5.2941,5.3584,5.3551,5.3551,5.3584,5.3484,5.3518,5.3517,5.3684,5.3584,5.3584,5.3915,5.3718,5.3551,5.3684,5.4839,5.5681,5.5681,5.6968,5.7881,5.7881,5.7881,5.8186,5.893,5.9445,6.0099,6.0959,6.193,6.2074,6.1211,6.2193,6.3036,6.3565,6.3414,6.3302,6.3302,6.3114,6.2829,6.2453,6.26,6.2432,6.209,6.1643,6.1187,6.0723,6.0163,5.9464,5.8659,5.8268,5.7904,5.7547,5.7127,5.6975,5.7007,5.7321,5.7539,5.7663,0.0,0.0,0.0,0.0,0.0,0.0,0.0,0.0,0.0,0.0,0.0,0.0,0.0,0.0,0.0,0.0,0.0,0.0,0.0,0.0,0.0,0.0,0.0,0.0,0.0,0.0,0.0,4.9018,0.0,0.0,0.0,0.0,0.0,0.0,4.9018,0.0,0.0,0.0,0.0,0.0,0.0,0.0,0.0,0.0,0.0,0.0,0.0,0.0,0.0,0.0,5.3882,5.3546,5.2226,5.1756,5.1691,5.1691,5.2097,5.257,5.257,5.3077,5.3584,5.3551,5.3551,5.3584,5.3518,5.3518,5.3551,5.3717,5.3618,5.3618,5.4013,5.3784,5.3551,5.375,5.4873,5.5681,5.5681,5.6968,5.7881,5.7881,5.7881,5.8254,5.9167,5.9963,6.086,6.1817,6.2809,6.3062,6.2295,6.2956,6.3452,6.36,6.3563,6.3489,6.3377,6.3302,6.3152,6.2851,6.3004,6.2966,6.274,6.2116,6.1642,6.1439,6.0567,5.9783,5.9107,5.9107,5.8746,5.8321,5.8321,5.8321,5.8321,5.8321,5.8321,5.8274,0.0,0.0,0.0,0.0,0.0,0.0,0.0,0.0,0.0,0.0,0.0,0.0,0.0,0.0,0.0,0.0,0.0,0.0,0.0,0.0,0.0,0.0,0.0,0.0,0.0,0.0,0.0,4.9018,4.9018,0.0,0.0,0.0,0.0,0.0,0.0,4.9018,4.9018,0.0,0.0,0.0,0.0,0.0,0.0,0.0,0.0,0.0,0.0,0.0,0.0,0.0,0.0,5.398,5.3777,5.3547,5.3281,5.3281,5.3348,5.3382,5.3382,5.365,5.3849,5.3551,5.3718,5.3849,5.3551,5.3518,5.3584,5.3882,5.3718,5.3685,5.437,5.3949,5.3584,5.3915,5.4941,5.5681,5.5681,5.6968,5.7881,5.7881,5.7881,5.8457,5.9844,6.0303,6.1136,6.2757,6.3305,6.3528,6.3459,6.3528,6.36,6.36,6.3414,6.3414,6.3563,6.3377,6.3004,6.2358,6.2397,6.1929,6.1127,6.1044,6.0544,5.9805,5.9674,5.9177,5.8413,5.8413,5.8367,5.8321,5.8321,5.8321,5.8321,5.8321,5.8321,5.8321,0.0,0.0,0.0,0.0,0.0,0.0,0.0,0.0,0.0,0.0,0.0,0.0,0.0,0.0,0.0,0.0,0.0,0.0,0.0,0.0,0.0,0.0,0.0,0.0,0.0,0.0,0.0,0.0,0.0,0.0,0.0,0.0,0.0,0.0,0.0,4.9018,4.9018,0.0,0.0,0.0,0.0,0.0,0.0,0.0,0.0,0.0,0.0,0.0,5.411,0.0,0.0,0.0,5.4013,5.3882,0.0,0.0,5.3551,5.3518,5.3518,5.3584,5.3685,5.3617,5.3717,5.3816,5.3783,5.3718,5.3717,5.4045,5.3784,5.3651,5.4207,5.3948,5.3651,0.0,0.0,0.0,5.5858,5.6773,5.7588,5.8029,5.7954,5.8564,6.0201,6.0523,6.1431,6.3237,6.3007,6.3045,6.3563,6.36,6.36,6.36,6.3526,6.3526,6.36,6.2969,6.2552,6.2318,6.173,6.125,6.0879,6.0332,5.9935,5.9543,5.9075,5.861,5.8321,5.8321,5.8321,5.8321,5.8321,5.8321,5.8321,5.8321,5.8321,5.8274,0.0,0.0,0.0,0.0,0.0,0.0,0.0,0.0,0.0,0.0,0.0,0.0,0.0,0.0,0.0,0.0,0.0,0.0,0.0,0.0,0.0,0.0,0.0,0.0,0.0,0.0,0.0,0.0,0.0,0.0,0.0,0.0,4.9018,4.9018,0.0,0.0,0.0,0.0,0.0,0.0,0.0,0.0,0.0,0.0,0.0,0.0,0.0,0.0,0.0,0.0,0.0,0.0,0.0,0.0,0.0,0.0,5.3651,5.3551,5.3551,5.3584,5.3651,5.3617,5.375,5.3882,5.3915,5.3849,5.3882,5.4143,5.3916,5.3784,5.4207,5.4013,5.3816,0.0,0.0,5.5314,5.5962,5.6642,5.739,5.8174,5.8099,5.8637,6.0313,6.0857,6.1654,6.309,6.2397,6.2127,6.2745,6.2783,6.3045,6.36,6.36,6.3489,6.323,6.2591,6.2009,6.1487,6.0837,6.0374,6.0108,5.9487,5.9222,5.9177,5.8564,5.8321,5.8321,5.8321,5.8321,5.8321,5.8321,5.8321,5.8321,5.8321,5.8274,5.8136,0.0,0.0,0.0,0.0,0.0,0.0,0.0,0.0,0.0,0.0,0.0,0.0,0.0,0.0,0.0,0.0,0.0,0.0,0.0,0.0,0.0,0.0,0.0,0.0,0.0,0.0,0.0,0.0,0.0,0.0,0.0,0.0,0.0,4.9018,0.0,0.0,0.0,0.0,0.0,0.0,0.0,0.0,0.0,0.0,0.0,0.0,0.0,0.0,0.0,0.0,0.0,0.0,0.0,0.0,0.0,0.0,5.3849,5.3717,5.3717,5.3849,5.3915,5.3584,5.385,5.411,5.3783,5.3849,5.4045,5.4175,5.4078,5.4078,5.4431,5.4207,5.4045,5.4175,5.4728,0.0,5.6065,5.6711,5.746,5.8388,5.8348,5.8783,6.0279,6.12,6.1883,6.2279,6.1413,6.092,6.092,6.092,6.177,6.3563,6.36,6.3193,6.2318,6.2318,6.1406,5.9631,5.9587,5.9133,5.8321,5.8321,5.8321,5.8321,5.8321,5.8321,5.8321,5.8321,5.8321,5.8321,5.8321,5.8321,5.8321,5.8321,5.8136,5.7871,0.0,0.0,0.0,0.0,0.0,0.0,0.0,0.0,0.0,0.0,0.0,0.0,0.0,0.0,0.0,0.0,0.0,0.0,0.0,0.0,0.0,0.0,0.0,0.0,0.0,0.0,0.0,0.0,0.0,0.0,0.0,0.0,0.0,0.0,0.0,0.0,0.0,0.0,0.0,0.0,0.0,0.0,0.0,0.0,0.0,0.0,0.0,0.0,0.0,0.0,0.0,0.0,0.0,0.0,0.0,0.0,0.0,0.0,5.3915,5.3948,5.398,5.398,5.4078,5.4207,5.4239,5.4175,5.4175,5.4367,5.4175,5.4045,5.4271,5.4207,5.411,5.4078,5.4413,5.5096,5.6267,5.6096,5.6601,5.8494,5.9448,5.9834,5.9708,6.0458,6.1078,6.1291,6.0501,6.0247,6.0879,6.092,6.1454,6.2668,6.2088,6.1929,6.2318,6.1044,6.0194,5.9587,5.8985,5.8564,5.8321,5.8321,5.8321,5.8321,5.8321,5.8321,5.8321,5.8321,5.8321,5.8321,5.8321,5.8321,5.8321,5.8321,5.8136,5.7871,0.0,0.0,0.0,0.0,0.0,0.0,0.0,0.0,0.0,0.0,0.0,0.0,0.0,0.0,0.0,0.0,0.0,0.0,0.0,0.0,0.0,0.0,0.0,0.0,0.0,0.0,0.0,0.0,0.0,0.0,0.0,0.0,0.0,0.0,0.0,0.0,0.0,0.0,0.0,0.0,0.0,0.0,5.4335,0.0,0.0,0.0,0.0,0.0,0.0,0.0,0.0,0.0,0.0,0.0,0.0,0.0,0.0,0.0,0.0,5.4078,5.4078,5.411,5.4207,5.4335,5.4367,5.4335,5.4335,5.4463,5.4335,5.4207,5.4303,5.4303,5.4271,5.4207,5.4335,5.4982,5.6299,5.5823,5.5941,5.7642,5.9017,5.9665,5.9197,5.972,6.0194,6.0374,5.9587,5.9355,5.9892,5.9935,6.0365,6.125,6.1044,6.1003,6.1283,6.0194,5.9443,5.9088,5.8564,5.8321,5.8321,5.8321,5.8321,5.8321,5.8321,5.8321,0.0,5.8321,5.8321,5.8321,5.8321,5.8321,5.8321,5.8321,5.8089,5.7731,0.0,0.0,0.0,0.0,0.0,0.0,0.0,0.0,0.0,0.0,0.0,0.0,0.0,0.0,0.0,0.0,0.0,0.0,0.0,0.0,0.0,0.0,0.0,0.0,0.0,0.0,0.0,0.0,4.9018,4.9018,4.9018,0.0,0.0,0.0,0.0,0.0,0.0,0.0,5.1291,0.0,0.0,5.3908,0.0,0.0,0.0,0.0,0.0,0.0,0.0,0.0,0.0,0.0,0.0,0.0,0.0,0.0,0.0,0.0,0.0,0.0,0.0,0.0,5.4271,5.4431,5.4271,5.4367,0.0,5.4494,5.4494,5.4494,5.4494,5.4494,5.4494,5.4494,5.4494,5.4982,5.6332,5.5925,5.5643,5.6171,5.7442,5.8419,5.8646,5.9003,5.9278,5.9455,5.876,5.8321,5.8321,5.8321,5.8701,5.9487,6.0289,6.0332,5.9587,5.9575,5.912,5.8321,5.8321,5.8321,5.8321,5.8321,5.8321,5.8321,5.8321,5.8321,5.8321,5.8321,5.8321,5.8321,5.8321,5.8321,5.8321,5.8321,5.7965,5.7495,0.0,0.0,0.0,0.0,0.0,0.0,0.0,0.0,0.0,0.0,0.0,0.0,0.0,0.0,0.0,0.0,0.0,0.0,0.0,0.0,0.0,0.0,0.0,0.0,0.0,0.0,0.0,4.9018,4.9018,4.9018,4.9018,4.9018,0.0,0.0,0.0,0.0,4.9483,5.1028,5.1802,0.0,5.3639,5.4356,0.0,0.0,0.0,0.0,5.4494,5.4494,0.0,0.0,0.0,0.0,0.0,0.0,0.0,0.0,5.4494,0.0,0.0,0.0,0.0,0.0,5.4431,5.4463,0.0,5.4463,5.4494,5.4494,5.4494,5.4494,5.4494,5.4494,5.4494,5.4494,5.4494,5.5014,5.6498,5.7018,5.6746,5.5547,5.6734,5.7609,5.7534,5.8109,5.8574,5.8624,5.8413,5.8321,5.8321,5.8321,5.8413,5.861,5.8805,5.9133,5.9619,5.894,5.8473,5.8321,5.8321,5.8321,5.8321,5.8321,5.8321,5.8321,5.8321,5.8321,5.8321,5.8321,5.8321,5.8321,5.8321,5.8321,5.8321,5.8321,5.7965,5.7495,0.0,0.0,0.0,0.0,0.0,0.0,0.0,0.0,0.0,0.0,0.0,0.0,0.0,0.0,0.0,0.0,0.0,0.0,0.0,0.0,0.0,0.0,0.0,0.0,0.0,0.0,0.0,0.0,0.0,4.9018,0.0,0.0,0.0,0.0,0.0,0.0,4.9692,5.0948,5.1726,5.22,5.3497,0.0,0.0,0.0,0.0,0.0,5.4494,5.4494,0.0,5.4494,5.4494,5.4494,0.0,0.0,0.0,0.0,5.4494,5.4494,5.4494,5.4494,5.4494,5.4494,5.4494,5.4494,5.4494,0.0,5.4494,5.4494,5.4494,5.4494,5.4494,5.4494,5.4494,5.4494,5.4482,5.4737,5.5494,5.6486,5.6498,5.4842,5.5661,5.6411,5.6634,5.7368,5.7968,5.8257,5.8321,5.8321,5.8321,5.8321,5.8321,5.8321,5.8321,5.8518,5.8985,5.8518,5.8321,5.8321,5.8321,5.8321,5.8321,5.8321,5.8321,5.8321,5.8321,5.8228,5.8136,5.8274,5.8228,5.8136,5.8136,5.8182,5.8274,5.8011,5.7731,5.7495,0.0,0.0,0.0,0.0,0.0,0.0,0.0,0.0,0.0,0.0,0.0,0.0,0.0,0.0,0.0,0.0,0.0,0.0,0.0,0.0,0.0,0.0,0.0,0.0,0.0,0.0,0.0,0.0,0.0,0.0,0.0,0.0,0.0,0.0,0.0,0.0,4.9806,5.0699,5.1511,5.2257,5.3218,0.0,0.0,0.0,0.0,0.0,0.0,0.0,0.0,5.4494,5.4494,5.4494,5.4494,0.0,0.0,0.0,0.0,0.0,5.4494,5.4494,5.4494,5.4494,5.4494,5.4494,5.4494,0.0,5.4494,5.4494,5.4494,5.4494,5.4494,5.4494,5.4494,5.4494,5.4531,5.4472,5.424,5.5332,5.5628,5.4242,5.4609,5.5241,5.5967,5.6568,5.72,5.7895,5.8053,5.8116,5.8116,5.8257,5.8321,5.8321,5.8321,5.8321,5.8321,5.8321,5.8321,5.8321,5.8321,5.8321,5.8321,5.8321,5.8321,5.8321,5.8274,5.8136,5.7918,5.8136,5.8011,5.7825,5.7825,5.7965,5.8136,5.7684,5.7495,5.737,0.0,0.0,0.0,0.0,0.0,0.0,0.0,0.0,0.0,0.0,0.0,0.0,0.0,0.0,0.0,0.0,0.0,0.0,0.0,0.0,0.0,0.0,0.0,0.0,0.0,0.0,0.0,0.0,0.0,0.0,4.9018,4.9049,4.9168,0.0,0.0,0.0,5.005,5.1399,5.2084,5.2291,5.377,0.0,0.0,0.0,0.0,0.0,0.0,0.0,0.0,5.4494,5.4494,5.4494,5.4494,0.0,0.0,0.0,0.0,0.0,5.4494,5.4494,5.4494,5.4494,5.4494,5.4494,5.4494,5.4494,5.4494,5.4494,5.4494,5.4494,5.4494,5.4494,5.4494,5.4494,5.494,5.5077,5.4305,5.4899,5.514,5.42,5.4198,5.4514,5.5197,5.5355,5.5746,5.6441,5.7042,5.739,5.739,5.7958,5.8321,5.8321,5.8321,5.8321,5.8321,5.8321,5.8321,5.8321,5.8321,5.8321,5.8321,5.8321,5.8321,5.8274,5.8089,5.7918,5.7871,5.7684,5.759,5.759,5.759,5.759,5.7637,5.7543,5.7353,5.7132,0.0,0.0,0.0,0.0,0.0,0.0,0.0,0.0,0.0,0.0,0.0,0.0,0.0,0.0,0.0,0.0,0.0,0.0,0.0,0.0,0.0,0.0,0.0,0.0,0.0,0.0,0.0,0.0,0.0,4.9107,4.9107,4.929,4.95,4.9772,0.0,0.0,5.0114,5.1567,5.2188,5.2326,0.0,0.0,0.0,0.0,0.0,0.0,0.0,0.0,0.0,0.0,5.4494,5.4494,5.4494,0.0,0.0,0.0,0.0,0.0,5.4494,5.4494,5.4494,5.4494,5.4494,5.4494,5.4494,5.4494,5.4494,5.4494,5.4494,5.4494,5.4494,5.4494,5.448,5.4397,5.5037,5.5199,5.425,5.4791,5.4985,5.42,5.4103,5.4356,5.5007,5.5102,5.543,5.6125,5.6473,5.6663,5.6663,5.6979,5.7326,5.7674,5.7706,5.7895,5.8321,5.8321,5.8321,5.8321,5.8321,5.8321,5.8321,5.8321,5.8228,5.8089,5.7965,5.7731,5.7495,5.7495,5.7401,5.7275,5.7275,5.7401,5.7495,5.7353,5.7163,5.6923,0.0,0.0,0.0,0.0,0.0,0.0,0.0,0.0,0.0,0.0,0.0,0.0,0.0,0.0,0.0,0.0,0.0,0.0,0.0,0.0,0.0,0.0,0.0,0.0,0.0,0.0,0.0,4.9141,4.9229,4.926,4.929,4.956,4.9767,0.0,0.0,0.0,5.0355,5.1873,5.2494,5.2597,0.0,0.0,0.0,0.0,0.0,0.0,0.0,0.0,0.0,0.0,0.0,0.0,0.0,0.0,0.0,5.4494,5.4494,5.4494,5.4494,5.4391,5.4287,5.446,5.4494,5.4494,5.4494,5.4494,5.4494,5.4494,5.4494,5.4494,5.4494,5.4494,5.4457,5.4313,5.4834,5.4966,5.4221,5.4633,5.4768,5.4157,5.4103,5.4292,5.483,5.4893,5.5114,5.5651,5.5841,5.5936,5.5936,5.6094,5.6441,5.6947,5.7137,5.7484,5.8022,5.818,5.8321,5.8321,5.8321,5.8321,5.8321,5.8321,5.8182,5.7965,5.7871,5.759,5.718,5.7306,5.7211,5.7019,5.7019,5.7163,5.7306,5.7115,5.6923,5.681,0.0,0.0,0.0,0.0,0.0,0.0,0.0,0.0,0.0,0.0,0.0,0.0,0.0,0.0,0.0,0.0,0.0,0.0,0.0,0.0,0.0,0.0,0.0,0.0,0.0,4.935,4.9441,4.9441,4.9471,4.9471,4.9471,4.9619,4.9708,0.0,0.0,0.0,5.1149,5.2666,5.3322,5.3391,5.4184,0.0,0.0,0.0,0.0,0.0,0.0,0.0,0.0,0.0,0.0,0.0,0.0,0.0,0.0,0.0,5.4494,5.4494,5.4494,5.4011,5.3632,5.4356,5.4494,5.4494,5.4494,5.4494,5.4494,5.4494,5.4494,5.4494,5.4494,5.4494,5.4457,5.4313,5.4324,5.4323,5.4137,5.4146,5.4157,5.4103,5.4103,5.4134,5.4166,5.4166,5.4198,5.4261,5.4861,5.5165,5.5165,5.5841,5.622,5.6252,5.6884,5.7263,5.7295,5.7958,5.8321,5.8321,5.8321,5.8321,5.8321,5.8321,5.8274,5.8228,5.7731,5.7495,5.7448,5.7019,5.6858,5.681,5.681,5.6858,5.6858,5.681,5.681,5.681,0.0,0.0,0.0,0.0,0.0,0.0,0.0,0.0,0.0,0.0,0.0,0.0,0.0,0.0,0.0,0.0,0.0,0.0,0.0,0.0,0.0,0.0,0.0,4.959,4.95,4.95,4.95,4.95,4.959,4.9713,4.9801,4.986,0.0,0.0,0.0,0.0,5.1873,5.2942,5.3391,5.346,5.4218,5.4494,0.0,0.0,0.0,0.0,0.0,0.0,0.0,0.0,0.0,0.0,0.0,0.0,0.0,0.0,5.3839,5.3701,5.3218,5.2873,5.2839,5.3632,5.3839,5.3942,5.4391,5.4494,5.4494,5.4494,5.4494,5.4494,5.4494,5.4494,5.4457,5.4313,5.4287,5.4246,5.4137,5.4103,5.4103,5.4103,5.4103,5.4103,5.4103,5.4103,5.4103,5.4103,5.4324,5.4482,5.4482,5.4735,5.5083,5.5525,5.5734,5.6302,5.72,5.7302,5.7694,5.8321,5.8321,5.8321,5.8321,5.8321,5.8136,5.7778,5.759,5.7353,5.7019,5.6858,5.681,5.681,5.681,5.681,5.681,5.681,5.681,5.681,0.0,0.0,0.0,0.0,0.0,0.0,0.0,0.0,0.0,0.0,0.0,0.0,0.0,0.0,0.0,0.0,0.0,0.0,0.0,0.0,0.0,0.0,0.0,4.9767,4.9767,4.9713,4.9654,4.9654,4.9772,4.9963,5.0355,0.0,0.0,0.0,0.0,0.0,0.0,5.3425,5.377,5.3804,5.4322,5.4494,0.0,0.0,0.0,0.0,0.0,0.0,0.0,0.0,0.0,0.0,0.0,0.0,0.0,0.0,5.3218,5.2908,5.2356,5.2015,5.2084,5.3149,5.3218,5.3287,5.4287,5.4494,5.4494,5.4494,5.4494,5.4494,5.4494,5.4494,5.4457,5.4313,5.4287,5.4246,5.4137,5.4103,5.4103,5.4103,5.4103,5.4103,5.4103,5.4103,5.4103,5.4103,5.4103,5.4103,5.4103,5.4103,5.4324,5.4755,5.4976,5.5544,5.6523,5.6707,5.7132,5.7835,5.7963,5.8136,5.8321,5.8321,5.8058,5.7637,5.7543,5.7258,5.6906,5.681,5.681,5.681,5.681,5.681,5.681,5.681,5.681,5.681,0.0,0.0,0.0,0.0,0.0,0.0,0.0,0.0,0.0,0.0,0.0,0.0,0.0,0.0,0.0,0.0,0.0,0.0,0.0,0.0,0.0,0.0,0.0,5.0011,5.0011,5.0011,5.0011,5.0011,5.0011,5.039,5.1114,0.0,0.0,0.0,0.0,0.0,0.0,0.0,5.4494,5.4494,5.4494,5.4494,5.4494,0.0,0.0,0.0,0.0,0.0,0.0,0.0,5.4494,5.4494,0.0,0.0,0.0,5.3391,5.2839,5.2188,5.2153,5.1636,5.1459,5.3011,5.2804,5.2601,5.4149,5.4494,5.4494,5.4494,5.4494,5.4494,5.4494,5.4463,5.4424,5.4313,5.4287,5.4246,5.4137,5.4103,5.4103,5.4103,5.4103,5.4103,5.4103,5.4103,5.4103,5.4103,5.4103,5.4103,5.4103,5.4103,5.4103,5.4103,5.4723,5.507,5.5102,5.6235,5.6789,5.6789,5.7246,5.7778,5.8274,5.8274,5.8182,5.7871,5.7637,5.7322,5.7084,5.6875,5.681,5.681,5.681,5.681,5.681,5.681,5.681,5.681,0.0,0.0,0.0,0.0,0.0,0.0,0.0,0.0,0.0,0.0,0.0,0.0,0.0,0.0,0.0,0.0,0.0,0.0,0.0,0.0,0.0,0.0,0.0,0.0,0.0,0.0,5.0011,5.0011,5.0528,5.0907,0.0,0.0,0.0,5.3046,0.0,0.0,0.0,0.0,0.0,5.4494,5.4494,5.4494,5.4494,0.0,0.0,0.0,0.0,0.0,0.0,0.0,0.0,0.0,0.0,0.0,0.0,5.2114,5.1632,5.1291,5.0804,5.0493,5.07,5.2183,5.236,5.2601,5.4149,5.4494,5.4494,5.4494,5.4076,5.3881,5.4399,5.3616,5.3034,5.3536,5.3574,5.3485,5.3418,5.3787,5.4103,5.4103,5.4103,5.4103,5.4103,5.4103,5.4103,5.4103,5.4103,5.4103,5.4103,5.4103,5.4103,5.4103,5.4292,5.464,5.5102,5.5583,5.615,5.6789,5.7105,5.737,5.7731,5.7731,5.759,5.7322,5.7227,5.7115,5.6875,5.681,5.681,5.681,5.681,5.681,5.681,5.681,5.681,5.681,0.0,0.0,0.0,0.0,0.0,0.0,0.0,0.0,0.0,0.0,0.0,0.0,0.0,0.0,0.0,0.0,0.0,0.0,0.0,0.0,0.0,0.0,0.0,0.0,0.0,5.0287,5.0459,0.0,0.0,0.0,0.0,0.0,0.0,5.3839,0.0,5.408,0.0,0.0,5.4494,5.4494,5.4494,5.4494,5.4494,0.0,0.0,0.0,0.0,0.0,0.0,0.0,0.0,0.0,5.3529,0.0,0.0,5.139,5.0907,5.0562,5.0114,5.0011,5.0355,5.1808,5.2188,5.2601,5.4149,5.4494,5.4494,5.4494,5.3913,5.3516,5.3979,5.3043,5.2332,5.2762,5.2764,5.282,5.3091,5.3439,5.3787,5.4071,5.4103,5.4103,5.4103,5.4103,5.4103,5.4103,5.4103,5.4103,5.4103,5.4103,5.4103,5.4103,5.4103,5.4292,5.4703,5.5162,5.5669,5.6244,5.6745,5.7067,5.7211,5.7401,5.7322,5.7084,5.7019,5.6923,5.681,5.681,5.681,5.681,5.681,5.681,5.681,5.681,5.681,5.684,0.0,0.0,0.0,0.0,0.0,0.0,0.0,0.0,0.0,0.0,0.0,0.0,0.0,0.0,0.0,0.0,0.0,0.0,0.0,0.0,0.0,0.0,0.0,0.0,0.0,0.0,0.0,0.0,0.0,0.0,0.0,0.0,5.3873,5.4494,0.0,5.4494,0.0,5.4494,5.4494,5.4494,5.4494,5.4494,5.4494,5.4494,0.0,0.0,0.0,0.0,0.0,0.0,0.0,0.0,5.3322,5.2287,5.1114,5.1045,5.0528,5.0011,5.0011,5.0011,5.0355,5.1808,5.2291,5.2804,5.4184,5.4494,5.4494,5.4494,5.3848,5.3315,5.3382,5.263,5.1973,5.1988,5.1997,5.2234,5.2796,5.3028,5.3344,5.3945,5.4071,5.4103,5.4103,5.4103,5.4103,5.4103,5.4103,5.4103,5.4103,5.4103,5.4103,5.4103,5.4103,5.406,5.406,5.4867,5.5328,5.5391,5.626,5.6748,5.681,5.7258,5.7306,5.7036,5.6906,5.681,5.681,5.681,5.681,5.681,5.681,5.681,5.681,5.681,5.681,5.6902,0.0,0.0,0.0,0.0,0.0,0.0,0.0,0.0,0.0,0.0,0.0,0.0,0.0,0.0,0.0,0.0,0.0,0.0,0.0,0.0,0.0,0.0,0.0,0.0,0.0,0.0,0.0,0.0,0.0,0.0,0.0,0.0,0.0,5.4494,0.0,5.4494,0.0,5.4494,5.4494,5.4494,5.4494,5.4494,5.4494,5.4494,5.4494,0.0,0.0,0.0,0.0,0.0,0.0,0.0,5.2666,5.1839,5.1011,5.0424,5.0114,5.0011,5.0011,5.0011,5.0355,5.1808,5.3115,5.4115,5.4425,5.4494,5.4494,5.4494,5.3415,5.263,5.3281,5.174,5.0596,5.1221,5.1275,5.1311,5.1426,5.2396,5.3155,5.3313,5.3787,5.4103,5.4103,5.4103,5.4103,5.4103,5.4103,5.4103,5.4103,5.4103,5.4103,5.4103,5.3962,5.3876,5.3876,5.4206,5.4665,5.5147,5.5672,5.6255,5.681,5.6906,5.6954,5.6858,5.681,5.681,5.681,5.681,5.681,5.681,5.681,5.681,5.681,5.681,5.681,5.6902,0.0,0.0,0.0,0.0,0.0,0.0,0.0,0.0,0.0,0.0,0.0,0.0,0.0,0.0,0.0,0.0,0.0,0.0,0.0,0.0,0.0,0.0,0.0,0.0,0.0,0.0,0.0,0.0,0.0,0.0,0.0,0.0,0.0,5.4494,0.0,5.4494,5.4494,5.4494,5.4494,5.4494,5.4494,5.4494,5.4494,5.4494,5.4494,5.4494,5.4494,0.0,0.0,0.0,0.0,0.0,0.0,0.0,5.0493,5.0114,5.0011,5.0011,5.0011,5.0011,5.0355,5.1808,5.3356,5.4494,5.4494,5.4494,5.4494,5.4494,5.3281,5.235,5.2768,5.122,5.0018,5.0448,5.0493,5.0595,5.0983,5.1606,5.2333,5.3028,5.3408,5.3755,5.4071,5.4103,5.4103,5.4103,5.4103,5.406,5.3931,5.3962,5.3962,5.3962,5.3714,5.3671,5.3789,5.3992,5.445,5.5101,5.5517,5.6084,5.681,5.681,5.681,5.681,5.681,5.681,5.681,5.681,5.681,5.681,5.681,5.681,5.681,5.681,5.7025,5.7395,0.0,0.0,0.0,0.0,0.0,0.0,0.0,0.0,0.0,0.0,0.0,0.0,0.0,0.0,0.0,0.0,0.0,0.0,0.0,0.0,0.0,0.0,0.0,0.0,0.0,0.0,0.0,0.0,0.0,0.0,0.0,0.0,0.0,5.4494,0.0,0.0,5.4494,5.4494,5.4494,5.4494,5.4494,5.4494,5.4494,5.4494,5.4494,5.4494,5.4494,5.4494,5.4494,5.4356,0.0,0.0,0.0,0.0,5.0011,5.0011,5.0011,5.0011,5.0011,5.0183,5.0666,5.1908,5.3356,5.4494,5.4494,5.4399,5.4335,5.4463,5.3281,5.2208,5.2208,5.0957,4.9892,4.9892,4.9892,5.0121,5.069,5.0951,5.1448,5.2776,5.3028,5.3376,5.404,5.4103,5.4103,5.4103,5.406,5.4005,5.3789,5.3746,5.3746,5.3746,5.3496,5.3452,5.3659,5.3823,5.428,5.5039,5.5594,5.6176,5.681,5.681,5.681,5.681,5.681,5.681,5.681,5.681,5.681,5.681,5.681,5.681,5.681,5.6933,5.7333,5.7919,0.0,0.0,0.0,0.0,0.0,0.0,0.0,0.0,0.0,0.0,0.0,0.0,0.0,0.0,0.0,0.0,0.0,0.0,0.0,0.0,0.0,0.0,0.0,0.0,0.0,0.0,0.0,0.0,0.0,0.0,0.0,0.0,0.0,5.4494,0.0,0.0,0.0,5.4494,5.4494,5.4494,5.4494,5.4494,5.4494,5.4494,5.4494,5.4494,5.4494,5.4494,5.4425,5.377,5.2977,0.0,0.0,0.0,5.0011,5.0011,5.0011,5.0011,5.0011,5.0942,5.1946,5.2153,5.3356,5.4494,5.4494,5.4011,5.3749,5.4367,5.3281,5.2208,5.2208,5.0957,4.9892,4.9892,4.9892,4.9923,5.0058,5.0595,5.1259,5.2049,5.2712,5.3376,5.404,5.4103,5.4103,5.4103,5.3962,5.3833,5.3789,5.3584,5.3421,5.3421,5.3233,5.3175,5.3219,5.3001,5.3544,5.476,5.607,5.6717,5.681,5.681,5.681,5.681,5.681,5.681,5.681,5.681,5.681,5.681,5.681,5.681,5.6871,5.7457,5.7734,5.8011,0.0,0.0,0.0,0.0,0.0,0.0,0.0,0.0,0.0,0.0,0.0,0.0,0.0,0.0,0.0,0.0,0.0,0.0,0.0,0.0,0.0,0.0,0.0,0.0,0.0,0.0,0.0,0.0,0.0,0.0,0.0,5.4494,5.4494,0.0,0.0,0.0,0.0,0.0,5.4494,5.4494,5.4494,5.4494,0.0,0.0,5.4494,5.4494,5.4494,5.4494,5.4391,5.3667,5.2873,5.205,5.1326,0.0,0.0,0.0,5.0011,5.0011,5.0011,5.0804,5.1671,5.2084,5.308,5.4011,5.4425,5.4271,5.3979,5.3913,5.3009,5.2208,5.2208,5.0957,4.9892,4.9892,4.9892,4.9892,4.9892,5.0184,5.0658,5.1353,5.2049,5.2776,5.3471,5.3882,5.406,5.3962,5.3833,5.3702,5.344,5.3277,5.3233,5.3233,5.2966,5.2953,5.3086,5.2833,5.3375,5.4714,5.6115,5.681,5.681,5.681,5.681,5.681,5.681,5.681,5.681,5.681,5.681,5.681,5.681,5.681,5.6902,5.758,5.8073,5.8485,0.0,0.0,0.0,0.0,0.0,0.0,0.0,0.0,0.0,0.0,0.0,0.0,0.0,0.0,0.0,0.0,0.0,0.0,0.0,0.0,0.0,0.0,0.0,0.0,0.0,0.0,0.0,0.0,0.0,0.0,5.4494,5.4494,5.4494,0.0,5.4494,0.0,0.0,0.0,0.0,0.0,0.0,0.0,0.0,0.0,5.4494,0.0,5.4494,5.4494,5.4356,5.3425,5.2701,5.2015,5.1114,5.0459,0.0,0.0,0.0,5.0011,5.0011,5.0562,5.1252,5.1774,5.2666,5.3529,5.4115,5.4036,5.3814,5.3449,5.242,5.1667,5.1885,5.0805,4.9892,4.9892,4.9892,4.9892,4.9892,4.9892,5.0184,5.092,5.1575,5.2302,5.3028,5.3681,5.3931,5.3789,5.3702,5.3484,5.3131,5.3042,5.2997,5.2997,5.2788,5.2819,5.2997,5.3158,5.3745,5.4714,5.6115,5.681,5.681,5.681,5.681,5.681,5.681,5.681,5.681,5.681,5.681,5.681,5.681,5.6902,5.7148,5.7826,5.8454,5.9131,0.0,0.0,0.0,0.0,0.0,0.0,0.0,0.0,0.0,0.0,0.0,0.0,0.0,0.0,0.0,0.0,0.0,0.0,0.0,0.0,0.0,0.0,0.0,0.0,0.0,0.0,0.0,0.0,0.0,0.0,5.4494,5.4494,5.4494,5.4494,5.4494,5.4494,5.4494,0.0,0.0,0.0,0.0,0.0,0.0,0.0,0.0,0.0,0.0,5.4494,5.4287,5.2774,5.2222,5.1946,5.0528,5.0045,5.0011,0.0,0.0,0.0,5.0011,5.0562,5.1114,5.1149,5.2287,5.3425,5.346,5.2875,5.2526,5.3247,5.159,5.0253,5.1027,5.0486,4.9892,4.9892,4.9892,4.9892,4.9892,4.9892,5.0184,5.092,5.1575,5.2302,5.3028,5.351,5.3789,5.3789,5.3396,5.3131,5.3086,5.2863,5.2698,5.2698,5.2729,5.2729,5.2698,5.3991,5.4621,5.4714,5.6115,5.681,5.681,5.681,5.681,5.681,5.681,5.681,5.681,5.681,5.681,5.681,5.681,5.721,5.7857,5.8485,5.9162,5.9839,0.0,0.0,0.0,0.0,0.0,0.0,0.0,0.0,0.0,0.0,0.0,0.0,0.0,0.0,0.0,0.0,0.0,0.0,0.0,0.0,0.0,0.0,0.0,0.0,0.0,0.0,0.0,0.0,0.0,5.4494,5.4494,5.4494,5.4494,5.4494,5.4494,5.4494,5.4494,5.4494,0.0,0.0,0.0,0.0,0.0,0.0,0.0,5.4494,5.4494,5.4494,5.4287,5.2705,5.2188,5.1912,5.0459,5.0011,5.0011,5.0011,5.0011,5.0011,5.0011,5.0183,5.0528,5.1011,5.1873,5.277,5.3287,5.3528,5.3449,5.2769,5.235,5.1773,5.0531,5.0097,4.9892,4.9892,4.9892,4.9892,4.9892,4.9892,5.0026,5.0279,5.1322,5.2112,5.2365,5.3258,5.3746,5.3584,5.3277,5.3042,5.2863,5.2743,5.2698,5.2698,5.2698,5.2698,5.2698,5.4052,5.4683,5.4714,5.6115,5.681,5.681,5.681,5.681,5.681,5.681,5.681,5.681,5.681,5.681,5.681,5.681,5.7241,5.7888,5.8516,5.9193,5.9901,0.0,0.0,0.0,0.0,0.0,0.0,0.0,0.0,0.0,0.0,0.0,0.0,0.0,0.0,0.0,0.0,0.0,0.0,0.0,0.0,0.0,0.0,0.0,0.0,0.0,0.0,0.0,0.0,0.0,0.0,0.0,5.4494,5.4494,5.4494,5.4494,5.4494,0.0,0.0,0.0,5.4494,0.0,0.0,5.4494,0.0,5.4494,5.4494,5.4494,5.4494,5.4287,5.2705,5.2188,5.1912,5.0459,5.0011,5.0011,0.0,0.0,0.0,5.0011,5.0011,5.0114,5.0631,5.1494,5.2326,5.2873,5.3389,5.3415,5.242,5.2208,5.1773,5.0175,4.9892,4.9892,4.9892,4.9892,4.9892,4.9812,4.9852,4.9892,4.9812,5.1123,5.1976,5.1893,5.2941,5.354,5.3321,5.31,5.2908,5.2729,5.2698,5.2698,5.2698,5.2698,5.2698,5.2698,5.4052,5.4683,5.4714,5.6115,5.681,5.681,5.681,5.681,5.681,5.681,5.681,5.681,5.681,5.681,5.684,5.7056,5.758,5.8227,5.8885,5.9562,6.0178,0.0,0.0,0.0,0.0,0.0,0.0,0.0,0.0,0.0,0.0,0.0,0.0,0.0,0.0,0.0,0.0,0.0,0.0,0.0,0.0,0.0,0.0,0.0,0.0,0.0,0.0,0.0,0.0,0.0,0.0,0.0,0.0,5.4494,5.4494,5.4494,5.4494,5.4494,0.0,5.4494,5.4494,5.4494,5.4494,5.4494,5.4494,5.4494,5.4494,5.4494,5.4494,5.4287,5.277,5.2222,5.1981,5.0493,5.0011,0.0,0.0,0.0,0.0,0.0,0.0,0.0,5.0011,5.1114,5.2188,5.2188,5.2233,5.2246,5.2243,5.107,4.9979,4.9939,4.9931,4.9931,4.9931,4.9892,4.9852,4.9653,4.9773,4.9812,4.9653,5.1001,5.1893,5.1717,5.2727,5.3321,5.3131,5.2863,5.2698,5.2698,5.2698,5.2698,5.2698,5.2698,5.2729,5.2729,5.4006,5.4683,5.4745,5.6115,5.681,5.681,5.681,5.681,5.681,5.681,5.681,5.681,5.681,5.681,5.6902,5.758,5.8208,5.8885,5.9562,6.0209,6.0794,0.0,0.0,0.0,0.0,0.0,0.0,0.0,0.0,0.0,0.0,0.0,0.0,0.0,0.0,0.0,0.0,0.0,0.0,0.0,0.0,0.0,0.0,0.0,0.0,0.0,0.0,0.0,0.0,0.0,0.0,0.0,0.0,0.0,0.0,5.4494,5.4494,5.4494,5.4494,0.0,5.4494,5.4494,5.4494,5.4494,5.4494,5.4494,5.4494,5.4494,5.4494,5.4356,5.3391,5.308,5.2804,5.1287,0.0,0.0,0.0,0.0,0.0,5.0011,0.0,0.0,0.0,0.0,0.0,5.2188,5.3043,5.3715,5.318,5.2733,5.2098,5.0951,5.0794,5.0602,4.9979,4.9892,4.9892,4.9852,4.9773,4.9693,4.9613,5.0724,5.1445,5.1434,5.2468,5.3144,5.3131,5.2863,5.2698,5.2698,5.2698,5.2698,5.2698,5.2698,5.2944,5.3437,5.4252,5.4976,5.5438,5.6378,5.681,5.681,5.681,5.681,5.681,5.681,5.681,5.681,5.681,5.7118,5.7549,5.7734,5.8535,5.9532,5.9716,6.0209,6.0794,0.0,0.0,0.0,0.0,0.0,0.0,0.0,0.0,0.0,0.0,0.0,0.0,0.0,0.0,0.0,0.0,0.0,0.0,0.0,0.0,0.0,0.0,0.0,0.0,0.0,0.0,0.0,0.0,0.0,0.0,0.0,0.0,0.0,0.0,0.0,0.0,0.0,0.0,5.4494,5.4494,5.4494,5.4494,5.4494,5.4494,5.4494,5.4494,5.4494,5.4494,5.4391,5.3667,5.3184,5.2735,5.1839,5.1287,0.0,0.0,0.0,0.0,0.0,0.0,0.0,0.0,0.0,0.0,5.2632,5.3413,5.3913,5.3483,5.2905,5.217,5.1252,5.0832,5.0448,4.9971,4.9892,4.9892,4.9812,4.9661,4.9573,4.9461,5.0559,5.1276,5.118,5.2337,5.3042,5.2953,5.2819,5.2698,5.2698,5.2698,5.2698,5.2698,5.2698,5.3037,5.3714,5.4345,5.5068,5.5715,5.6471,5.681,5.681,5.681,5.681,5.681,5.681,5.6964,5.7241,5.7241,5.7457,5.7888,5.8442,5.9101,5.9809,6.0116,6.0455,6.0794,0.0,0.0,0.0,0.0,0.0,0.0,0.0,0.0,0.0,0.0,0.0,0.0,0.0,0.0,0.0,0.0,0.0,0.0,0.0,0.0,0.0,0.0,0.0,0.0,0.0,0.0,0.0,0.0,0.0,0.0,0.0,0.0,0.0,0.0,0.0,0.0,0.0,0.0,5.4494,5.4494,5.4494,5.4494,5.4494,5.4494,5.4494,5.4494,5.4494,5.4494,5.4425,5.3736,5.3011,5.2326,5.2326,5.2257,5.205,5.1425,5.1188,0.0,0.0,0.0,0.0,0.0,5.1774,0.0,5.3253,5.3466,5.3516,5.3516,5.2348,5.1364,5.1364,5.0685,5.0136,5.0018,5.0018,4.9939,4.9661,4.9582,4.9501,4.93,5.0372,5.1087,5.0967,5.2175,5.286,5.2698,5.2698,5.2698,5.2698,5.2698,5.2698,5.2698,5.279,5.316,5.3837,5.4514,5.5161,5.5807,5.6502,5.681,5.681,5.681,5.681,5.681,5.6902,5.7272,5.7826,5.798,5.7993,5.8165,5.9316,5.9839,5.9963,6.0578,6.0794,6.0794,0.0,0.0,0.0,0.0,0.0,0.0,0.0,0.0,0.0,0.0,0.0,0.0,0.0,0.0,0.0,0.0,0.0,0.0,0.0,0.0,0.0,0.0,0.0,0.0,0.0,0.0,0.0,0.0,0.0,0.0,0.0,0.0,0.0,0.0,0.0,0.0,0.0,5.4494,5.4494,5.4494,5.4494,5.4494,5.4494,5.4494,5.4494,5.4494,5.4494,5.4494,5.4494,5.4356,5.3804,5.3184,5.3184,5.2735,5.2153,5.2015,5.1981,0.0,0.0,0.0,0.0,5.1946,5.2597,0.0,5.3356,5.3883,5.4303,5.4303,5.355,5.2974,5.2974,5.2279,5.1557,5.0951,5.087,5.064,4.9939,4.9541,4.934,4.93,4.9719,5.0209,5.0722,5.1524,5.2158,5.2667,5.2698,5.2698,5.2698,5.2698,5.2698,5.2698,5.3252,5.3837,5.4468,5.5191,5.5869,5.6594,5.6748,5.681,5.681,5.681,5.681,5.684,5.7395,5.7703,5.7869,5.8947,5.9408,5.9439,5.9686,6.0116,6.0609,6.0763,6.0794,6.0794,0.0,0.0,0.0,0.0,0.0,0.0,0.0,0.0,0.0,0.0,0.0,0.0,0.0,0.0,0.0,0.0,0.0,0.0,0.0,0.0,0.0,0.0,0.0,0.0,0.0,0.0,0.0,0.0,0.0,0.0,0.0,0.0,0.0,0.0,0.0,0.0,0.0,5.4494,5.4494,5.4494,5.4494,5.4494,5.4494,5.4494,5.4494,5.4494,5.4494,5.4494,5.4494,5.4494,5.4253,5.3942,5.3942,5.3667,5.3287,5.2908,5.2804,5.2735,5.2321,5.2188,5.2291,5.2701,5.3115,0.0,0.0,5.4253,5.4494,5.4494,5.3913,5.3382,5.3382,5.2735,5.1957,5.1215,5.1102,5.0832,4.9979,4.9541,4.9331,4.9331,4.9543,4.9959,5.0636,5.1313,5.199,5.2667,5.2698,5.2698,5.2698,5.2698,5.2698,5.2698,5.3375,5.4006,5.4683,5.5376,5.6053,5.681,5.681,5.681,5.681,5.681,5.6994,5.7333,5.7672,5.8196,5.8824,5.9501,5.9993,6.0301,6.0301,6.0486,6.0794,6.0794,6.0794,6.0794,0.0,0.0,0.0,0.0,0.0,0.0,0.0,0.0,0.0,0.0,0.0,0.0,0.0,0.0,0.0,0.0,0.0,0.0,0.0,0.0,0.0,0.0,0.0,5.4494,0.0,0.0,0.0,0.0,0.0,0.0,0.0,0.0,0.0,0.0,0.0,0.0,0.0,5.4494,5.4494,5.4494,5.4494,5.4494,5.4494,5.4494,5.4494,5.4494,5.4494,5.4494,5.4494,5.4494,5.4494,5.4494,5.4494,5.4494,5.4391,5.3804,5.3632,5.346,5.2839,5.2636,5.2804,5.346,5.3632,5.377,0.0,0.0,0.0,5.4494,5.4011,5.3583,5.3583,5.3078,5.2285,5.1267,5.1353,5.1117,4.9833,4.9584,4.9461,4.934,4.9419,4.9805,5.0648,5.148,5.2113,5.2667,5.2698,5.2698,5.2698,5.2698,5.2698,5.2698,5.3498,5.4129,5.4683,5.5499,5.6176,5.681,5.681,5.681,5.681,5.6933,5.7303,5.7826,5.8054,5.8793,5.9809,5.9932,6.0301,6.0794,6.0794,6.0794,6.0794,6.0794,6.0794,6.0794,5.4494,5.4494,0.0,0.0,0.0,0.0,0.0,0.0,0.0,0.0,0.0,0.0,0.0,0.0,5.4494,0.0,0.0,5.4494,5.4494,5.4494,0.0,0.0,0.0,0.0,5.4494,0.0,0.0,0.0,0.0,0.0,0.0,0.0,0.0,0.0,5.4494,0.0,0.0,5.4494,5.4494,5.4494,5.4494,5.4494,5.4494,5.4494,5.4494,5.4494,5.4494,5.4494,5.4494,5.4494,5.4494,5.4494,5.4494,5.4494,5.4494,5.4425,5.4391,5.4356,5.4287,5.4253,5.4253,5.4356,5.4391,5.4391,5.4494,0.0,5.4494,5.4494,0.0,5.4367,5.4367,0.0,0.0,5.1426,5.2236,5.216,4.9313,4.9699,5.0112,4.9622,4.9068,4.9334,5.0832,5.1924,5.2637,5.2698,5.2698,5.2698,5.2698,5.2698,5.2698,5.2698,5.396,5.4591,5.4683,5.5992,5.6717,5.681,5.681,5.681,5.684,5.7426,5.7734,5.7888,5.9039,5.9655,5.9839,6.0424,6.0732,6.0794,6.0794,6.0794,6.0794,6.0794,6.0794,6.0794,5.4494,5.4494,0.0,0.0,0.0,0.0,0.0,0.0,0.0,0.0,0.0,0.0,5.4494,5.4494,5.4494,5.4494,5.4494,5.4494,5.4494,5.4494,0.0,0.0,0.0,0.0,0.0,0.0,0.0,0.0,5.4494,0.0,0.0,0.0,0.0,0.0,5.4494,5.4494,5.4494,5.4494,5.4494,5.4494,5.4494,5.4494,5.4494,5.4494,5.4494,5.4494,5.4494,5.4494,5.4494,5.4494,5.4494,5.4494,5.4494,5.4494,5.4494,5.4494,5.4494,5.4494,5.4494,5.4494,5.4494,5.4494,5.4494,5.4494,5.4494,5.4494,5.4494,5.4494,0.0,0.0,0.0,0.0,0.0,0.0,5.2976,5.2739,5.0913,5.0532,5.0197,4.9661,4.9015,4.92,5.0672,5.1603,5.2298,5.2698,5.2698,5.2698,5.2698,5.3098,5.3283,5.3283,5.4607,5.5284,5.5284,5.6269,5.681,5.681,5.681,5.681,5.684,5.7518,5.8042,5.8423,5.9378,6.0024,6.0393,6.0671,6.0794,6.0794,6.0794,6.0794,6.0794,6.0794,6.0794,6.0794,5.4494,0.0,0.0,0.0,0.0,0.0,0.0,0.0,0.0,0.0,5.4494,5.4494,5.4494,5.4494,5.4494,5.4494,5.4494,5.4494,5.4494,5.4494,5.4494,5.4494,5.4494,5.4494,5.4494,0.0,0.0,0.0,0.0,0.0,0.0,0.0,0.0,0.0,0.0,5.4494,5.4494,5.4494,5.4494,5.4494,5.4494,5.4632,5.4805,5.4598,5.4494,5.4529,5.4736,5.4667,5.4529,5.4736,5.4667,5.4494,5.4494,5.4494,5.4494,5.4494,5.4494,5.4494,5.4494,5.4494,5.4494,5.4494,5.4494,5.4494,5.4494,5.4494,5.4494,5.4494,5.4494,0.0,0.0,0.0,0.0,0.0,0.0,5.3146,5.1569,5.0964,5.0506,4.9939,4.9365,4.9416,5.0574,5.1313,5.199,5.2667,5.2698,5.2698,5.2698,5.3345,5.3714,5.3714,5.5007,5.5684,5.5684,5.644,5.681,5.681,5.681,5.6902,5.7118,5.7795,5.8423,5.9101,5.9778,6.0332,6.0794,6.0794,6.0794,6.0794,6.0794,6.0794,6.0794,6.0794,6.0794,6.0794,5.4494,5.4494,0.0,0.0,0.0,0.0,0.0,0.0,5.4494,5.4494,5.4494,5.4494,5.4494,5.4494,5.4494,5.4494,5.4494,5.4494,5.4494,5.4494,5.4494,5.4494,5.4494,5.4494,5.4494,5.4494,0.0,0.0,0.0,0.0,0.0,0.0,0.0,0.0,5.4494,5.4494,5.4494,5.4494,5.4494,5.4494,5.4494,5.4943,5.5495,5.477,5.4494,5.4598,5.5322,5.5115,5.4632,5.5322,5.5115,5.4494,5.4494,5.4494,5.4494,5.4494,5.4494,5.4494,5.4494,5.4494,5.4494,5.4494,5.4494,5.4494,5.4494,5.4494,5.4494,5.4494,5.4494,5.4494,5.4494,0.0,0.0,0.0,0.0,0.0,0.0,5.0749,5.1299,5.0531,5.0169,5.014,5.0679,5.1313,5.199,5.2667,5.2698,5.2698,5.2698,5.3345,5.3714,5.3714,5.5007,5.5684,5.5684,5.644,5.681,5.681,5.681,5.7148,5.7795,5.8423,5.9131,5.9809,6.0486,6.0763,6.0794,6.0794,6.0794,6.0794,6.0794,6.0794,6.0794,6.0794,6.0794,6.0794,0.0,0.0,0.0,0.0,5.4494,5.4494,5.4494,5.4494,5.4494,5.4494,5.4943,5.5253,5.5253,5.5701,5.6012,5.6012,5.6012,5.5805,5.5288,5.5253,5.5012,5.4529,5.4494,5.4494,5.4494,5.4494,5.4494,0.0,0.0,0.0,0.0,0.0,0.0,0.0,0.0,5.4494,5.4494,5.4494,5.4805,5.5288,5.5805,5.6184,5.6357,5.6115,5.6012,5.6046,5.6322,5.6219,5.6046,5.6322,5.6219,5.6012,5.6012,5.6012,5.6012,5.6012,5.5667,5.5253,5.5253,5.4874,5.4494,5.4494,5.4494,5.4494,5.4494,5.4494,5.4494,5.4494,5.4494,5.4494,5.4494,0.0,0.0,0.0,0.0,0.0,0.0,5.0973,5.019,4.9309,4.9305,4.9718,5.0617,5.0913,5.1498,5.2637,5.2698,5.2914,5.3345,5.3976,5.4576,5.5007,5.593,5.644,5.644,5.6686,5.681,5.681,5.681,5.7179,5.7857,5.8485,5.9162,5.9839,6.0517,6.0794,6.0794,6.0794,6.0794,6.0794,6.0794,6.0794,6.0794,6.0794,6.0794,6.0855,5.4494,5.4494,0.0,5.4494,5.4494,5.4494,5.4494,5.4494,5.4598,5.4874,5.5322,5.5736,5.6012,5.6495,5.6805,5.6805,5.6805,5.6598,5.6081,5.6046,5.5701,5.4943,5.4908,5.477,5.4529,5.4494,5.4494,5.4494,0.0,5.4494,0.0,0.0,0.0,0.0,0.0,5.4494,5.4529,5.4805,5.5184,5.5669,5.6771,5.7185,5.7219,5.7495,5.7253,5.684,5.7116,5.7012,5.684,5.7116,5.7012,5.6805,5.6805,5.6805,5.6805,5.6805,5.6426,5.6046,5.6046,5.5701,5.5322,5.5322,5.5322,5.5253,5.4977,5.4908,5.4839,5.4563,5.4494,5.4494,5.4494,0.0,0.0,0.0,0.0,0.0,0.0,5.1,4.963,4.8687,4.8759,4.9356,5.0574,5.0697,5.1251,5.2606,5.2698,5.3006,5.3683,5.4314,5.5037,5.5684,5.644,5.681,5.681,5.681,5.681,5.681,5.7056,5.7518,5.8196,5.8824,5.9501,6.0178,6.0609,6.0794,6.0794,6.0794,6.0794,6.0794,6.0794,6.0794,6.0794,6.0794,6.0948,6.1255,5.4494,5.4494,5.4494,5.4494,5.4494,5.4494,5.4494,5.4529,5.4805,5.5529,5.5667,5.6012,5.6771,5.6874,5.6909,5.6909,5.6909,5.6874,5.6874,5.684,5.6495,5.5669,5.5667,5.5322,5.4563,5.4563,5.4563,5.4494,5.4494,0.0,0.0,0.0,0.0,0.0,5.4563,0.0,5.4598,5.5357,5.5701,5.5807,5.7357,5.7943,5.8047,5.8737,5.815,5.7012,5.7702,5.7495,5.7012,5.7736,5.7495,5.6909,5.6909,5.6909,5.6909,5.6909,5.6874,5.684,5.684,5.684,5.6805,5.6805,5.6805,5.6598,5.5839,5.5667,5.546,5.477,5.4632,5.4632,5.4632,5.4632,0.0,0.0,0.0,0.0,0.0,5.0779,4.9797,4.8769,4.8676,4.9231,5.0574,5.0697,5.1251,5.2606,5.2698,5.3037,5.3745,5.4345,5.5037,5.5715,5.644,5.681,5.681,5.681,5.681,5.681,5.7487,5.8165,5.8793,5.947,6.0147,6.0794,6.0794,6.0794,6.0794,6.0794,6.0794,6.0794,6.0794,6.0824,6.0855,6.0855,6.1255,6.1902,5.4494,5.4494,5.4494,5.4494,5.4494,5.4494,5.4494,5.4977,5.5391,5.5598,5.6598,5.7391,5.7598,5.8116,5.8461,5.8461,5.8461,5.8219,5.7667,5.7633,5.7288,5.6529,5.6495,5.6115,5.5357,5.5322,5.5046,5.4494,5.4494,0.0,5.4494,0.0,0.0,0.0,0.0,5.5322,5.5391,5.6184,5.6805,5.7391,5.8357,5.8737,5.8737,5.8944,5.8771,5.8461,5.8668,5.8599,5.8461,5.8668,5.8599,5.8461,5.8461,5.8461,5.8461,5.8461,5.8047,5.7633,5.7633,5.7219,5.6805,5.6805,5.6805,5.6736,5.6529,5.6495,5.646,5.6253,5.6219,5.6219,5.6219,5.6219,0.0,0.0,0.0,0.0,0.0,5.1598,5.0621,4.967,5.0021,5.0393,5.0691,5.0697,5.1251,5.2606,5.2698,5.3221,5.4345,5.4591,5.5284,5.6502,5.6717,5.681,5.681,5.681,5.681,5.681,5.7487,5.8165,5.8793,5.947,6.0147,6.0794,6.0794,6.0794,6.0794,6.0794,6.0794,6.0794,6.0794,6.1101,6.1532,6.1532,6.1656,6.1963,5.4494,5.4494,5.4598,5.4943,5.4977,5.4977,5.4977,5.5632,5.6253,5.6564,5.7357,5.8012,5.8357,5.8771,5.9012,5.9012,5.9012,5.884,5.8426,5.8392,5.8047,5.7322,5.7288,5.6909,5.615,5.6115,5.5943,5.5529,5.515,5.4977,5.4977,0.0,0.0,0.0,0.0,5.5598,5.5669,5.6805,5.7702,5.8426,5.884,5.9012,0.0,5.9012,5.9012,5.9012,5.9012,5.9012,5.9012,5.9012,5.9012,5.9012,5.9012,5.9012,5.9012,5.9012,5.8737,5.8392,5.8392,5.8081,5.7771,5.7771,5.7771,5.7667,5.7357,5.7288,5.7185,5.6874,5.6805,5.6805,5.6805,5.6805,5.66,0.0,0.0,0.0,5.3705,5.3135,5.2469,5.1506,5.1383,5.1474,5.1693,5.1358,5.1559,5.2637,5.2698,5.3314,5.4621,5.4683,5.5345,5.6779,5.681,5.681,5.681,5.681,5.6964,5.7272,5.7949,5.8577,5.9255,5.9932,6.0424,6.0794,6.0794,6.0794,6.0794,6.0794,6.0794,6.0794,6.0794,6.1225,6.184,6.2148,6.2425,6.2794,5.4632,5.4667,5.4908,5.5632,5.5839,5.5908,5.5908,5.6495,5.7185,5.784,5.7978,5.8288,5.8944,5.9012,5.9012,5.9012,5.9012,5.9012,5.9012,5.9012,5.8737,5.8081,5.8047,5.7702,5.6978,5.6943,5.6909,5.6805,5.6115,5.577,0.0,0.0,0.0,0.0,0.0,0.0,0.0,5.7495,5.8426,5.9012,5.9012,5.9012,5.9012,5.9012,5.9012,5.9012,5.9012,5.9012,5.9012,5.9012,5.9012,5.9012,5.9012,5.9012,5.9012,5.9012,5.9012,5.9012,5.9012,5.9012,5.9012,5.9012,5.9012,5.884,5.8185,5.8047,5.7874,5.7219,5.7081,5.7081,5.7081,5.6946,5.6709,0.0,0.0,5.5927,5.4689,5.4616,5.432,5.3253,5.2548,0.0,5.2776,5.2132,5.199,5.2667,5.2698,5.3314,5.4621,5.4683,5.5345,5.6779,5.681,5.681,5.681,5.681,5.7148,5.7826,5.8454,5.9131,5.9809,6.0486,6.0794,6.0794,6.0794,6.0794,6.0794,6.0794,6.0794,6.0824,6.0886,6.1348,6.2025,6.2702,6.3379,6.3964,5.5288,5.5426,5.5667,5.646,5.7081,5.7495,5.7495,5.7633,5.7771,5.7874,5.8426,5.8875,5.9012,5.9012,5.9012,5.9012,5.9012,5.9012,5.9012,5.9012,5.8944,5.8806,5.8806,5.8461,5.7736,5.7702,5.7426,5.6805,5.6667,5.6598,5.6564,0.0,0.0,0.0,0.0,0.0,5.8426,5.8702,5.8909,5.9012,5.9012,5.9012,5.9012,5.9012,5.9012,5.9012,5.9012,5.9012,5.9012,5.9012,5.9012,5.9012,5.9012,5.9012,5.9012,5.9012,5.9012,5.9012,5.9012,5.9012,5.9012,5.9012,5.9012,5.8978,5.884,5.8806,5.8771,5.8633,5.8633,5.8633,5.8633,5.7568,5.6635,5.6389,5.5881,5.5049,5.3727,5.4142,5.3987,5.2331,5.2501,5.2533,5.1958,5.177,5.199,5.2667,5.2698,5.3314,5.4621,5.4683,5.5345,5.6779,5.681,5.681,5.681,5.681,5.7148,5.7826,5.8454,5.9131,5.9809,6.0486,6.0794,6.0794,6.0794,6.0794,6.0794,6.0794,6.0794,6.0855,6.1409,6.2056,6.2733,6.341,6.4087,6.4703,5.5552,5.5921,5.6329,5.6714,5.7363,5.8047,5.8426,5.8118,5.8014,5.8393,5.8806,5.9185,5.9599,5.9633,5.9771,6.0151,6.0185,6.0047,5.9668,5.9633,5.9461,5.9047,5.9012,5.884,5.8495,5.8495,5.8323,5.7943,5.7564,5.7185,5.6771,0.0,0.0,0.0,0.0,5.7978,0.0,5.9012,5.9012,5.9012,5.9012,5.9254,5.9633,5.9633,5.9875,6.0185,6.0185,6.0185,6.0082,5.9288,5.9012,5.9012,5.9012,5.9012,5.9012,5.9012,5.9012,5.9012,5.9012,5.9012,5.9012,5.9012,5.9012,5.9012,5.9012,5.9012,5.9012,5.9012,5.9012,5.8978,5.8909,5.8288,5.7698,5.7345,5.7002,5.6549,5.5784,5.6077,5.5817,5.4475,5.4236,5.384,5.2977,5.2471,5.2359,5.2698,5.2698,5.3314,5.4621,5.4683,5.5345,5.6779,5.681,5.681,5.681,5.7148,5.7672,5.835,5.8978,5.9655,6.0332,6.064,6.0794,6.0794,6.0794,6.0794,6.0794,6.0794,6.0794,6.0855,6.1532,6.221,6.2887,6.3564,6.4272,6.4888,5.5819,5.6337,5.6782,5.6904,5.7464,5.8015,5.8425,5.7959,5.7887,5.8875,5.9013,5.9288,6.0116,6.0323,6.0668,6.1254,6.1289,6.1047,6.0461,6.0289,5.9909,5.9288,5.9116,5.9012,5.9012,5.9012,5.9012,5.9012,5.8426,5.7771,5.7012,0.0,0.0,0.0,0.0,5.8461,5.9012,5.9185,5.9254,5.9288,5.9426,5.9875,6.0427,6.0427,6.0806,6.1289,6.1289,6.122,6.0875,5.9668,5.9254,5.9254,5.9047,5.9012,5.9012,5.9012,5.9012,5.9012,5.9012,5.9012,5.9012,5.9012,5.9012,5.9012,5.9012,5.9012,5.9012,5.9012,5.8978,5.8909,5.8771,5.8596,5.8278,5.7738,5.7665,5.748,5.6882,5.6958,5.6768,5.5876,5.5061,5.4326,5.3793,5.2989,5.2575,5.2698,5.2852,5.3468,5.4621,5.4853,5.5499,5.6779,5.681,5.681,5.681,5.7487,5.8165,5.8793,5.947,6.0147,6.0794,6.0794,6.0794,6.0794,6.0794,6.0794,6.0794,6.0794,6.0886,6.1071,6.1748,6.2425,6.3133,6.381,6.4426,6.4888,5.6318,5.6665,5.6938,5.7577,5.7749,5.76,5.6958,5.6768,5.726,5.8771,5.8967,5.923,6.0115,6.0806,6.122,6.1289,6.1289,6.1254,6.122,6.0565,6.0151,6.0082,5.9392,5.9012,5.9012,5.9012,5.9012,5.9012,5.8944,5.853,5.7805,5.7736,5.7702,5.7736,5.853,5.8944,5.9047,5.9771,6.0082,6.0151,6.0806,6.1116,6.1185,6.1185,6.1254,6.1289,6.1289,6.0875,6.0289,6.0151,6.0082,5.9944,5.9254,5.9012,5.9012,5.9012,5.9012,5.9012,5.9012,5.9012,5.9012,5.9012,5.9012,5.9012,5.9012,5.9012,5.9012,5.9012,5.8909,5.8736,5.8561,5.7884,5.7001,5.6001,5.5876,5.5304,5.3434,5.3879,5.4019,5.3157,5.2454,5.2242,5.2771,5.2188,5.2052,5.2667,5.3283,5.396,5.4652,5.5284,5.5961,5.6779,5.681,5.681,5.681,5.7487,5.8165,5.8793,5.947,6.0147,6.0794,6.0794,6.0794,6.0794,6.0794,6.0794,6.0794,6.0794,6.1163,6.1779,6.2456,6.3133,6.381,6.4549,6.4826,6.4888,5.6608,5.6638,5.6554,5.636,5.6734,5.6996,5.6652,5.6507,5.7086,5.8713,5.8911,5.9565,6.139,6.1841,6.2186,6.2634,6.2668,6.2496,6.2048,6.1737,6.1358,6.0875,6.0116,5.9737,5.9737,5.9254,5.9012,5.9012,5.9012,5.8633,5.7909,5.7909,5.7909,5.7943,5.9185,5.9737,5.9771,6.053,6.0875,6.0875,6.1185,6.1599,6.2013,6.2013,6.2289,6.2634,6.2186,6.1806,6.1427,6.0496,5.9875,5.9426,5.9116,5.9012,5.9012,5.9012,5.9012,5.9012,5.9012,5.9012,5.9012,5.9012,5.9012,5.9012,5.9012,5.9012,5.9012,5.9012,5.8944,5.884,5.8561,5.8581,5.8413,5.774,5.803,5.8063,5.7273,5.7434,5.7354,5.645,5.5634,5.5011,5.4755,5.3644,5.3191,5.3822,5.3806,5.3976,5.4652,5.5345,5.6023,5.6779,5.681,5.6994,5.7426,5.8104,5.8731,5.9408,6.0086,6.0547,6.0794,6.0794,6.0794,6.0794,6.0794,6.0794,6.0794,6.0794,6.1194,6.1871,6.2548,6.3225,6.3903,6.4641,6.4888,6.4888,5.627,5.6192,5.6034,5.5434,5.5796,5.6211,5.613,5.6089,5.6667,5.8552,5.8814,5.9717,6.2249,6.2668,6.3013,6.3531,6.36,6.3358,6.2841,6.2599,6.2255,6.1668,6.0944,6.053,6.053,5.9978,5.9702,5.9702,5.9461,5.8978,5.8219,5.8219,5.8461,5.8944,6.0047,6.053,6.0565,6.1323,6.1634,6.1668,6.1875,6.2324,6.2806,6.2806,6.3151,6.3496,6.2737,6.2324,6.1944,6.0634,5.9668,5.9012,5.9012,5.9012,5.9012,5.9012,5.9012,5.9012,5.9012,5.9012,5.9012,5.9012,5.9012,5.9012,5.9012,5.9012,5.8978,5.8944,5.8875,5.8736,5.849,5.8791,5.8914,5.8399,5.893,5.9324,5.9059,5.8952,5.8687,5.8084,5.7012,5.6117,5.5705,5.4495,5.3991,5.4621,5.4453,5.4514,5.4976,5.5653,5.6238,5.6779,5.6994,5.7333,5.7826,5.8639,5.9316,5.9809,6.0486,6.0794,6.0794,6.0794,6.0794,6.0794,6.0794,6.0794,6.0824,6.1009,6.1502,6.2179,6.2856,6.3533,6.421,6.4703,6.4888,6.4888,5.5149,5.5312,5.5312,5.5312,5.5312,5.5283,5.5118,5.5114,5.5939,5.8281,5.8604,5.9581,6.2243,6.3151,6.3565,6.36,6.36,6.36,6.3565,6.2875,6.2496,6.2461,6.1703,6.1289,6.1289,6.1289,6.1289,6.1289,6.053,5.9771,5.9012,5.9012,5.9806,6.1254,6.1289,6.1289,6.1358,6.2117,6.2461,6.253,6.3289,6.3565,6.3565,6.3565,6.36,6.3496,6.2737,6.1979,6.122,6.0461,5.9668,5.9012,5.9012,5.9012,5.9012,5.9012,5.9012,5.9012,5.9012,5.9012,5.9012,5.9012,5.9012,5.9012,5.9012,5.9012,5.8944,5.8806,5.8631,5.8455,5.8241,5.8061,5.7625,5.6801,5.7249,5.7437,5.6555,5.6242,5.6151,5.6107,5.4722,5.3991,5.4668,5.4114,5.3991,5.4621,5.5315,5.5684,5.5684,5.6409,5.681,5.681,5.7457,5.7795,5.7826,5.9101,5.9778,5.9809,6.0486,6.0794,6.0794,6.0794,6.0794,6.0794,6.0794,6.0794,6.0855,6.1502,6.221,6.2856,6.3564,6.4241,6.4888,6.4888,6.4888,6.4888,5.5271,5.4851,5.4465,5.4465,5.4879,5.5132,5.5083,5.5891,5.7052,5.84,5.9015,6.0046,6.2135,6.257,6.2706,6.2706,6.3268,6.36,6.36,6.3358,6.3255,6.3255,6.2496,6.2117,6.2117,6.1565,6.1289,6.1289,6.1047,6.0806,6.0565,6.0565,6.084,6.1323,6.1875,6.2117,6.2151,6.291,6.3255,6.3255,6.3496,6.36,6.36,6.36,6.36,6.3496,6.2737,6.2324,6.1979,6.122,6.0461,5.9806,5.9806,5.9461,5.9012,5.9012,5.9012,5.9012,5.9012,5.9012,5.9012,5.9012,5.9012,5.9012,5.9012,5.8944,5.884,5.884,5.9042,5.9204,5.8989,5.9729,6.0034,5.8986,5.9463,5.9639,5.868,5.856,5.847,5.847,5.7462,5.6869,5.7088,5.5891,5.5345,5.6053,5.5838,5.5684,5.5684,5.6409,5.681,5.681,5.7457,5.7993,5.8454,5.9347,6.0024,6.0486,6.0701,6.0794,6.0794,6.0794,6.0794,6.0794,6.0794,6.0794,6.0855,6.1532,6.221,6.2887,6.3564,6.4272,6.4888,6.4888,6.4888,6.4888,5.4851,5.4645,5.4482,5.4482,5.5051,5.562,5.5828,5.6618,5.7521,5.837,5.8831,5.9575,6.067,6.1086,6.1689,6.2668,6.3305,6.36,6.36,6.36,6.36,6.36,6.3151,6.291,6.291,6.2427,6.2151,6.2151,6.1875,6.1737,6.1737,6.1737,6.191,6.2186,6.2668,6.291,6.2944,6.3393,6.36,6.36,6.36,6.36,6.36,6.36,6.36,6.3496,6.2737,6.2496,6.2358,6.1565,6.0978,6.0599,6.0599,6.0289,5.9771,5.9185,5.9012,5.9012,5.9012,5.9012,5.9012,5.9012,5.9254,5.9495,5.9701,5.9347,5.8987,5.8987,5.892,5.8806,5.8691,5.9349,5.9705,5.9012,5.9521,5.9811,5.9253,5.9117,5.9088,5.9088,5.8257,5.7653,5.7653,5.6712,5.6269,5.6779,5.6378,5.6207,5.6453,5.6717,5.6933,5.7179,5.7857,5.8485,5.9162,5.9839,6.0393,6.0794,6.0794,6.0794,6.0794,6.0794,6.0794,6.0794,6.0794,6.0948,6.1225,6.1902,6.2579,6.3256,6.3964,6.4487,6.4888,6.4888,6.4888,6.4888,5.4229,5.4767,5.5165,5.5165,5.5778,5.6473,5.7105,5.7263,5.7516,5.8226,5.8321,5.8321,5.8413,5.9088,6.0628,6.3193,6.3454,6.3526,6.3526,6.3563,6.36,6.3491,6.3563,6.36,6.36,6.36,6.36,6.36,6.291,6.2565,6.2565,6.2565,6.2944,6.36,6.36,6.36,6.36,6.36,6.36,6.36,6.36,6.36,6.36,6.36,6.36,6.3496,6.2806,6.2565,6.2461,6.1703,6.1427,6.1392,6.1392,6.1358,6.1013,5.9599,5.9185,5.9185,5.9185,5.9185,5.9185,5.9151,5.9702,6.0391,6.0865,6.0084,5.9287,5.9287,5.8444,5.7693,5.7693,5.7557,5.7452,5.7366,5.7926,5.8345,5.8302,5.8191,5.8119,5.8119,5.7353,5.681,5.681,5.681,5.684,5.6871,5.6871,5.7179,5.7857,5.7303,5.7241,5.7857,5.8485,5.9162,5.9778,6.0455,6.0794,6.0794,6.0794,6.0794,6.0794,6.0794,6.0794,6.0794,6.0855,6.1225,6.1871,6.2579,6.3256,6.3903,6.4611,6.4888,6.4888,6.4888,6.4888,6.4888,5.5683,5.5809,5.5936,5.5936,5.6505,5.7042,5.72,5.7674,5.8085,5.8289,5.8321,5.8564,5.9222,5.9487,6.0151,6.1413,6.2167,6.2591,6.2591,6.323,6.3305,6.2629,6.3268,6.36,6.36,6.36,6.36,6.36,6.3427,6.3324,6.3324,6.3324,6.3427,6.36,6.36,6.36,6.36,6.36,6.36,6.36,6.36,6.36,6.36,6.36,6.36,6.3565,6.3393,6.3324,6.3289,6.3117,6.2668,6.222,6.222,6.1772,6.122,6.0875,6.0771,6.0771,6.0771,6.0771,6.0736,6.0559,6.0553,6.0615,6.0713,5.9895,5.9052,5.9052,5.8634,5.827,5.8194,5.868,5.8807,5.8083,5.8151,5.8018,5.7262,5.7134,5.7115,5.7115,5.6954,5.681,5.681,5.681,5.7025,5.7549,5.758,5.7888,5.8516,5.8393,5.8362,5.8547,5.9193,5.9624,5.9778,6.0455,6.0794,6.0794,6.0794,6.0794,6.0794,6.0794,6.0794,6.0824,6.1348,6.1656,6.1902,6.3102,6.3687,6.3903,6.4611,6.4888,6.4888,6.4888,6.4888,6.4888,5.6189,5.6441,5.6663,5.6663,5.7231,5.7706,5.7706,5.8022,5.8321,5.8321,5.8321,5.8473,5.894,5.903,5.9355,6.0204,6.1127,6.1689,6.1689,6.2513,6.2817,6.2318,6.3121,6.36,6.36,6.36,6.36,6.36,6.36,6.36,6.36,6.36,6.36,6.36,6.36,6.36,6.36,6.36,6.36,6.36,6.36,6.36,6.36,6.36,6.36,6.36,6.36,6.36,6.36,6.36,6.3324,6.2979,6.2979,6.2703,6.2358,6.2358,6.1841,6.1289,6.1289,6.1218,6.1213,6.1339,6.0891,6.0507,6.0878,5.9761,5.8603,5.8603,5.8177,5.7702,5.767,5.8032,5.8133,5.7653,5.759,5.7401,5.6858,5.681,5.681,5.681,5.681,5.6933,5.7241,5.7272,5.7549,5.8177,5.8239,5.8516,5.9193,5.9255,5.9255,5.9255,5.9593,5.9932,6.024,6.0609,6.0794,6.0794,6.0794,6.0794,6.0794,6.0794,6.0794,6.0824,6.1502,6.1994,6.2364,6.3379,6.4026,6.4364,6.4734,6.4888,6.4888,6.4888,6.4888,6.4888,5.6505,5.6979,5.739,5.739,5.7864,5.8321,5.8321,5.8321,5.8321,5.8321,5.8321,5.8321,5.8321,5.8321,5.861,5.9355,6.0108,6.0628,6.0879,6.177,6.2318,6.2318,6.3121,6.36,6.36,6.36,6.36,6.36,6.36,6.36,6.36,6.36,6.36,6.36,6.36,6.36,6.36,6.36,6.36,6.36,6.36,6.36,6.36,6.36,6.36,6.36,6.36,6.36,6.36,6.36,6.36,6.36,6.36,6.36,6.36,6.36,6.2668,6.1634,6.1634,6.1488,6.1407,6.1876,6.1216,6.0605,6.1313,5.9989,5.8592,5.8409,5.7653,5.7002,5.681,5.681,5.681,5.681,5.681,5.681,5.681,5.681,5.684,5.6964,5.6964,5.7241,5.7919,5.798,5.8258,5.8885,5.8947,5.9224,5.9901,5.9932,5.9932,5.9932,5.9932,6.0209,6.0794,6.0794,6.0794,6.0794,6.0794,6.0794,6.0794,6.0794,6.0855,6.0978,6.1656,6.2333,6.301,6.3718,6.4364,6.4888,6.4888,6.4888,6.4888,6.4888,6.4888,6.4888,5.7958,5.8068,5.8116,5.8116,5.8257,5.8321,5.8321,5.8321,5.8321,5.8321,5.8321,5.8321,5.8321,5.8321,5.8367,5.8473,5.8655,5.9311,6.0795,6.177,6.2318,6.2318,6.3121,6.36,6.36,6.36,6.36,6.36,6.36,6.36,6.36,6.36,6.36,6.36,6.36,6.36,6.36,6.36,6.36,6.36,6.36,6.36,6.36,6.36,6.36,6.36,6.36,6.36,6.36,6.36,6.36,6.36,6.36,6.36,6.36,6.36,6.3427,6.322,6.322,6.2962,6.2696,6.2795,6.2411,6.2054,6.2229,6.1391,6.0355,5.9543,5.8637,5.7746,5.6954,5.681,5.681,5.681,5.681,5.681,5.681,5.681,5.7025,5.7611,5.7672,5.7919,5.8547,5.8608,5.8916,5.9593,5.9624,5.9932,6.0609,6.064,6.064,6.064,6.064,6.0701,6.0794,6.0794,6.0794,6.0794,6.0794,6.0794,6.0794,6.0794,6.1101,6.1686,6.2364,6.3041,6.3718,6.4426,6.4795,6.4888,6.4888,6.4888,6.4888,6.4888,6.4888,6.4888,5.8321,5.8321,5.8321,5.8321,5.8321,5.8321,5.8321,5.8321,5.8321,5.8321,5.8321,5.8321,5.8321,5.8321,5.8321,5.8321,5.8321,5.885,6.0108,6.1044,6.177,6.2279,6.3121,6.36,6.36,6.36,6.36,6.36,6.36,6.36,6.36,6.36,6.36,6.36,6.36,6.36,6.36,6.36,6.36,6.36,6.36,6.36,6.36,6.36,6.36,6.36,6.36,6.36,6.36,6.36,6.36,6.36,6.36,6.36,6.36,6.3452,6.3526,6.3563,6.334,6.3152,6.2962,6.2731,6.215,6.1635,6.1635,6.0525,5.9399,5.8953,5.8119,5.7306,5.6906,5.681,5.681,5.681,5.681,5.6933,5.7303,5.7364,5.7611,5.8239,5.83,5.8577,5.9255,5.9316,5.9593,6.027,6.0332,6.0455,6.0794,6.0794,6.0794,6.0794,6.0794,6.0794,6.0794,6.0794,6.0794,6.0794,6.0794,6.0794,6.0824,6.1163,6.1502,6.1871,6.2918,6.3533,6.3872,6.4611,6.4888,6.4888,6.4888,6.4888,6.4888,6.4888,6.4888,6.4888,5.8321,5.8321,5.8321,5.8321,5.8321,5.8321,5.8321,5.8321,5.8321,5.8321,5.8321,5.8321,5.8321,5.8321,5.8321,5.8321,5.8321,5.8701,5.9543,6.0417,6.1291,6.2279,6.3121,6.36,6.36,6.36,6.36,6.36,6.36,6.36,6.36,6.36,6.3669,6.3841,6.3841,6.3945,6.4117,6.4117,6.4117,6.4117,6.4117,6.4117,6.4117,6.4117,6.4014,6.3841,6.3841,6.3738,6.36,6.36,6.36,6.36,6.3563,6.3526,6.3489,6.3302,6.334,6.3414,6.3076,6.2962,6.2847,6.2537,6.1911,6.1268,6.1028,5.9892,5.8728,5.8303,5.7637,5.7098,5.6858,5.681,5.681,5.681,5.6933,5.7241,5.7734,5.79,5.8288,5.8947,5.9008,5.9285,5.9963,6.0024,6.024,6.0763,6.0794,6.0794,6.0794,6.0794,6.0794,6.0794,6.0794,6.0794,6.0794,6.0794,6.0794,6.0794,6.0794,6.0886,6.104,6.1563,6.1994,6.2333,6.3379,6.3933,6.4118,6.4672,6.4888,6.4888,6.4888,6.4888,6.4888,6.4888,6.4888,6.4888,5.8321,5.8321,5.8321,5.8321,5.8321,5.8321,5.8321,5.8321,5.8321,5.8321,5.8321,5.8321,5.8321,5.8321,5.8321,5.8321,5.8321,5.8701,5.9543,6.0417,6.1291,6.2279,6.3121,6.36,6.36,6.36,6.36,6.36,6.36,6.36,6.36,6.36,6.3945,6.4634,6.4634,6.5014,6.5704,6.5704,6.5704,6.5704,6.5704,6.5704,6.5704,6.5704,6.5255,6.4634,6.4634,6.4186,6.36,6.36,6.36,6.3563,6.3377,6.3302,6.3265,6.3076,6.3038,6.3038,6.3,6.2847,6.2693,6.2688,6.2498,6.207,6.1193,6.0903,6.0279,5.8546,5.8165,5.784,5.6954,5.681,5.681,5.681,5.7333,5.7765,5.7795,5.83,5.8947,5.9624,5.9716,5.9993,6.0671,6.0732,6.0763,6.0794,6.0794,6.0794,6.0794,6.0794,6.0794,6.0794,6.0794,6.0794,6.0794,6.0794,6.0794,6.0794,6.0794,6.1132,6.1748,6.1779,6.2487,6.3687,6.3779,6.421,6.4826,6.4888,6.4888,6.4888,6.4888,6.4888,6.4888,6.4888,6.4888,6.4888,5.8321,5.8321,5.8321,5.8321,5.8321,5.8321,5.8321,5.8321,5.8321,5.8321,5.8321,5.8321,5.8321,5.8321,5.8321,5.8321,5.8321,5.8427,5.876,5.9587,6.1003,6.3007,6.3417,6.36,6.36,6.36,6.36,6.36,6.4048,6.4289,6.4289,6.4772,6.5152,6.5428,6.5428,6.56,6.5876,6.5876,6.5876,6.5876,6.5876,6.5876,6.5876,6.5876,6.5704,6.5359,6.4876,6.4531,6.422,6.3589,6.3414,6.3377,6.3189,6.3114,6.3076,6.2885,6.2731,6.2615,6.2615,6.2654,6.2537,6.1797,6.1595,6.1309,6.0355,5.9674,5.9088,5.8349,5.7746,5.7211,5.6858,5.7148,5.7426,5.7426,5.7962,5.8547,5.8978,5.9255,5.9655,6.0332,6.0424,6.0517,6.0763,6.0794,6.0794,6.0794,6.0794,6.0794,6.0794,6.0794,6.0794,6.0794,6.0794,6.0794,6.0794,6.0794,6.1009,6.144,6.144,6.1779,6.2456,6.2856,6.3349,6.3841,6.4303,6.4641,6.4888,6.4888,6.4888,6.4888,6.4888,6.4888,6.4888,6.4888,6.4888,6.4888,5.8321,5.8321,5.8321,5.8321,5.8321,5.8321,5.8321,5.8321,5.8321,5.8321,5.8321,5.8321,5.8321,5.8321,5.8321,5.8321,5.8321,5.8321,5.8321,5.9355,6.0962,6.3083,6.3454,6.3703,6.3945,6.3945,6.4048,6.4324,6.4807,6.5083,6.5083,6.5635,6.6014,6.6221,6.6221,6.6359,6.6566,6.6566,6.6566,6.6566,6.6566,6.6566,6.6566,6.6566,6.6389,6.6075,6.5558,6.4966,6.4408,6.3776,6.3395,6.3152,6.2962,6.2847,6.277,6.2654,6.2498,6.2381,6.2381,6.2302,6.1991,6.1193,6.0986,6.0694,5.9411,5.8637,5.8119,5.7793,5.7445,5.7118,5.7118,5.7672,5.8085,5.8085,5.867,5.9255,5.9716,5.9963,6.027,6.0763,6.0794,6.0794,6.0794,6.0794,6.0794,6.0794,6.0794,6.0794,6.0794,6.0794,6.0794,6.0794,6.1009,6.1101,6.1101,6.1101,6.1348,6.1809,6.2025,6.2487,6.3133,6.3626,6.3964,6.418,6.4457,6.4703,6.4888,6.4641,6.4703,6.4888,6.4888,6.4888,6.4888,6.4888,6.4888,6.4888,5.8321,5.8321,5.8321,5.8321,5.8321,5.8321,5.8321,5.8321,5.8321,5.8321,5.8321,5.8321,5.8321,5.8321,5.8321,5.8321,5.8321,5.8321,5.8321,5.9935,6.1324,6.2279,6.3155,6.3945,6.4703,6.4703,6.5083,6.5876,6.5876,6.5876,6.5876,6.5911,6.629,6.7014,6.7014,6.7428,6.8083,6.8083,6.8083,6.8083,6.8083,6.8083,6.8083,6.8083,6.7517,6.6701,6.6701,6.5583,6.4123,6.4088,6.3649,6.2962,6.2731,6.2537,6.2381,6.2381,6.2381,6.2381,6.2381,6.1709,6.0986,6.0986,6.0986,6.0482,5.8592,5.8211,5.7933,5.7002,5.7364,5.7826,5.7826,5.8381,5.8793,5.8793,5.9347,5.9809,5.9809,6.0363,6.0794,6.0794,6.0794,6.0794,6.0794,6.0794,6.0794,6.0794,6.0794,6.0794,6.0794,6.0794,6.0794,6.0824,6.144,6.1809,6.1809,6.1809,6.1809,6.184,6.2517,6.3195,6.3787,6.3787,6.421,6.4857,6.4149,6.4241,6.4826,6.4118,6.4241,6.4888,6.4888,6.4888,6.4888,6.4888,6.4888,6.4888,5.8321,5.8321,5.8321,5.8321,5.8321,5.8321,5.8321,5.8321,5.8321,5.8321,5.8321,5.8321,5.8321,5.8321,5.8321,5.8321,5.8321,5.8787,5.9839,6.0376,6.1617,6.3687,6.4145,6.4738,6.5497,6.5531,6.5635,6.5876,6.6393,6.6669,6.6669,6.7187,6.7566,6.7773,6.7773,6.7876,6.8083,6.8083,6.8083,6.8083,6.8083,6.8083,6.8083,6.8083,6.7861,6.7387,6.6872,6.6234,6.5557,6.4852,6.4166,6.3451,6.2707,6.242,6.2381,6.2381,6.2381,6.2263,6.1595,6.1193,6.0861,6.0151,5.9499,5.8728,5.7495,5.7211,5.727,5.7475,5.7672,5.7931,5.8393,5.9039,5.9501,5.9501,6.0055,6.0486,6.0486,6.0671,6.0794,6.0794,6.0794,6.0794,6.0794,6.0794,6.0794,6.0794,6.0794,6.0794,6.0794,6.0794,6.1009,6.1502,6.1717,6.2025,6.2517,6.2517,6.2764,6.3225,6.3441,6.3903,6.458,6.458,6.4426,6.4149,6.4457,6.4426,6.418,6.4457,6.4703,6.4888,6.4888,6.4888,6.4888,6.4888,6.4888,6.4888,5.8321,5.8321,5.8321,5.8321,5.8321,5.8321,5.8321,5.8321,5.8321,5.8321,5.8321,5.8321,5.8321,5.8321,5.8321,5.8321,5.8527,5.9356,6.0954,6.1032,6.1993,6.4187,6.4794,6.546,6.6324,6.6324,6.6462,6.6773,6.7221,6.7428,6.7428,6.7876,6.8083,6.8083,6.8083,6.8083,6.8083,6.8083,6.8083,6.8083,6.8083,6.8083,6.8083,6.8083,6.7919,6.761,6.7164,6.6621,6.5963,6.54,6.4544,6.3589,6.2995,6.2618,6.2381,6.2381,6.2381,6.2223,6.1235,6.0736,6.0194,5.9311,5.8592,5.7933,5.7019,5.681,5.6994,5.7672,5.8042,5.8362,5.907,5.9716,6.0178,6.0178,6.0547,6.0794,6.0794,6.0794,6.0794,6.0794,6.0794,6.0794,6.0794,6.0794,6.0794,6.0794,6.0794,6.0794,6.0794,6.104,6.1379,6.1809,6.2333,6.2794,6.3195,6.3502,6.3718,6.3841,6.4118,6.4487,6.4888,6.4611,6.4241,6.3787,6.3995,6.3995,6.3817,6.4303,6.4641,6.4888,6.4888,6.4888,6.4888,6.4888,6.4888,6.4888,5.8321,5.8321,5.8321,5.8321,5.8321,5.8321,5.8321,5.8321,5.8321,5.8321,5.8321,5.8321,5.8321,5.8321,5.8352,5.8369,5.9001,6.0041,6.1561,6.1671,6.2386,6.4013,6.5033,6.6018,6.6966,6.7044,6.7428,6.8083,6.8083,6.8083,6.8083,6.8083,6.8083,6.8083,6.8083,6.8083,6.8083,6.8083,6.8083,6.8083,6.8083,6.8083,6.8044,6.7975,6.7736,6.7332,6.7264,6.6541,6.5561,6.5527,6.4613,6.3497,6.3429,6.2956,6.2381,6.2381,6.2381,6.2183,6.1152,6.0237,5.9323,5.8349,5.8104,5.7934,5.7064,5.6902,5.7118,5.7857,5.8423,5.907,5.9747,6.0393,6.0794,6.0794,6.0794,6.0794,6.0794,6.0794,6.0794,6.0794,6.0794,6.0794,6.0794,6.0794,6.0794,6.0794,6.0855,6.0886,6.0886,6.1532,6.1933,6.1994,6.3195,6.3841,6.3933,6.4518,6.4518,6.3933,6.4518,6.4795,6.4764,6.4057,6.3749,6.3718,6.3133,6.3256,6.3841,6.3903,6.4303,6.4888,6.4888,6.4888,6.4888,6.4888,6.4888,6.4888,5.8321,5.8321,5.8321,5.8321,5.8321,5.8321,5.8321,5.8321,5.8321,5.8321,5.8321,5.8321,5.8321,5.8321,5.8496,5.9033,5.9696,6.0487,6.1376,6.1488,6.2204,6.3882,6.4838,6.5804,6.6765,6.7525,6.7945,6.8083,6.8083,6.8083,6.8083,6.8083,6.8083,6.8083,6.8083,6.8083,6.8083,6.8083,6.8083,6.8083,6.8083,6.8039,6.7811,6.7226,6.6708,6.6235,6.5663,6.5196,6.4749,6.4174,6.3768,6.3429,6.2821,6.2516,6.2381,6.2381,6.2381,6.203,6.0355,5.9762,5.9189,5.7511,5.747,5.7824,5.766,5.7611,5.7949,5.9101,5.947,5.9778,6.0455,6.0701,6.0794,6.0794,6.0794,6.0794,6.0794,6.0794,6.0794,6.0794,6.0794,6.0794,6.0794,6.0794,6.0794,6.0794,6.1286,6.1594,6.1594,6.224,6.2825,6.3379,6.3687,6.4087,6.4672,6.4272,6.4272,6.4672,6.4241,6.4057,6.4026,6.3349,6.3041,6.3071,6.3441,6.3687,6.3872,6.4426,6.4764,6.4888,6.4888,6.4888,6.4888,6.4888,6.4888,6.4888,5.8136,5.8228,5.8321,5.8321,5.8321,5.8321,5.8321,5.8321,5.8321,5.8321,5.8321,5.8401,5.8717,5.878,5.9191,6.0202,6.0613,6.1119,6.1845,6.1877,6.228,6.3164,6.4558,6.5514,6.6038,6.7407,6.8083,6.8083,6.8083,6.8083,6.8083,6.8083,6.8083,6.8083,6.8083,6.8083,6.8083,6.8083,6.8083,6.8049,6.7586,6.7369,6.7181,6.6347,6.5796,6.5413,6.5039,6.4782,6.4546,6.4174,6.3802,6.3463,6.3057,6.2685,6.2381,6.2381,6.2381,6.207,6.0652,6.0152,5.9749,5.8295,5.8107,5.8227,5.7888,5.8073,5.8547,5.9562,5.9778,5.9993,6.0671,6.0794,6.0794,6.0794,6.0794,6.0794,6.0794,6.0794,6.0794,6.0794,6.0794,6.0794,6.0794,6.0794,6.0948,6.1255,6.1594,6.1963,6.2271,6.2918,6.3472,6.381,6.3841,6.3995,6.4395,6.3687,6.3533,6.3903,6.3533,6.3349,6.3318,6.2641,6.2517,6.2825,6.3195,6.3533,6.3872,6.4611,6.4888,6.4888,6.4888,6.4888,6.4888,6.4888,6.4888,6.4888,5.7825,5.8043,5.8228,5.8228,5.8274,5.8321,5.8321,5.8321,5.8321,5.8321,5.8415,5.8654,5.9254,5.9507,6.0139,6.1308,6.1498,6.1814,6.2333,6.2396,6.2464,6.2661,6.4341,6.5382,6.5514,6.7209,6.8083,6.8083,6.8083,6.8083,6.8083,6.8083,6.8083,6.8044,6.8044,6.8004,6.7999,6.7999,6.7999,6.793,6.7152,6.6827,6.6685,6.5773,6.5198,6.4828,6.4727,6.447,6.4208,6.4208,6.3835,6.3328,6.3328,6.2888,6.2415,6.255,6.2584,6.2386,6.1359,6.0968,6.0535,5.9412,5.9065,5.8824,5.8288,5.8547,5.9131,5.9809,5.9963,6.0116,6.0701,6.0794,6.0794,6.0794,6.0794,6.0794,6.0794,6.0794,6.0794,6.0794,6.0794,6.0794,6.0794,6.0886,6.1194,6.1779,6.2025,6.2394,6.2948,6.3533,6.3841,6.3841,6.3718,6.3656,6.3656,6.2979,6.2641,6.2641,6.2517,6.2517,6.2641,6.2056,6.2179,6.2825,6.2948,6.3379,6.4057,6.4641,6.4888,6.4888,6.4888,6.4888,6.4888,6.4888,6.4888,6.4888,5.7543,5.7778,5.7965,5.7965,5.8182,5.8321,5.8321,5.8321,5.8321,5.8321,5.878,5.9191,5.9286,6.0392,6.1182,6.1371,6.194,6.227,6.2365,6.2396,6.2808,6.3658,6.4741,6.569,6.6466,6.7569,6.8083,6.8083,6.8083,6.8083,6.8083,6.8083,6.8039,6.7839,6.7839,6.7759,6.7557,6.7557,6.7557,6.7557,6.7414,6.7257,6.7025,6.6201,6.54,6.4553,6.3909,6.3266,6.2685,6.2685,6.2618,6.255,6.255,6.2482,6.2516,6.3159,6.3362,6.3101,6.1906,6.1556,6.1106,5.9301,5.9232,5.9624,5.9532,5.9593,5.9839,6.0517,6.0671,6.0701,6.0794,6.0794,6.0794,6.0794,6.0794,6.0794,6.0794,6.0794,6.0794,6.0794,6.0794,6.0794,6.0794,6.1317,6.1717,6.1809,6.2887,6.3595,6.3687,6.3779,6.3841,6.3841,6.3256,6.2948,6.2948,6.2271,6.1963,6.1933,6.1348,6.1379,6.1933,6.184,6.2179,6.2856,6.3441,6.4087,6.4764,6.4857,6.4888,6.4888,6.4888,6.4888,6.4888,6.4888,6.4888,6.4888,5.7306,5.7495,5.7731,5.7871,5.7965,5.8136,5.8274,5.8321,5.8401,5.8812,5.9128,5.9602,6.0392,6.1371,6.1972,6.1972,6.2256,6.2396,6.2396,6.2922,6.3452,6.3894,6.5293,6.6253,6.6677,6.761,6.8083,6.8083,6.8083,6.8044,6.7959,6.7959,6.7839,6.7638,6.7638,6.7557,6.751,6.751,6.751,6.7441,6.6909,6.6616,6.6425,6.5522,6.4966,6.4546,6.4241,6.3903,6.3632,6.3632,6.3632,6.3632,6.3632,6.3632,6.37,6.4038,6.3706,6.3157,6.2651,6.1983,6.1233,6.0348,6.0265,6.0363,6.0363,6.0363,6.0424,6.0732,6.0794,6.0794,6.0794,6.0794,6.0794,6.0794,6.0794,6.0794,6.0794,6.0794,6.0794,6.0794,6.1132,6.1379,6.1379,6.1963,6.2517,6.2918,6.3502,6.3841,6.3841,6.3841,6.3656,6.3256,6.261,6.224,6.224,6.1594,6.1255,6.1255,6.1317,6.1502,6.1809,6.1809,6.2394,6.341,6.3687,6.4241,6.4888,6.4888,6.4888,6.4888,6.4888,6.4888,6.4888,6.4888,6.4888,6.4888]}]]